Date StartTime U_cm/s V_cm/s W_cm/s Ustd_cm/s Vstd_cm/s Wstd_cm/s Uvar_(cm/s)^2 Vvar_(cm/s)^2 Wvar_(cm/s)^2 KE_(m/s)^2 TurbulentKE_(m/s)^2 HorizWindSpeed_cm/s FrictionSpeec_cm/s DragCoef SpeedOfSound_m/s SonicTemperature_C Pressure_mb 
06/24/2013  00:00:00     -113.065     -137.903      -15.848      172.010       81.462       53.664    29587.590     6636.117     2879.823        3.557        1.955      178.328       47.694        0.072      341.831       16.816      854.872
06/24/2013  00:01:00     -109.002      -57.675        2.460       83.274       73.848       37.202     6934.535     5453.558     1383.960        1.449        0.689      123.320       35.498        0.083      341.713       16.615      854.865
06/24/2013  00:02:00     -122.543      -50.562       -3.232       73.837       43.839       28.397     5451.908     1921.823      806.379        1.288        0.409      132.564       35.801        0.073      341.612       16.445      854.876
06/24/2013  00:03:00      -82.943      -54.302        2.528       61.734       62.726       37.070     3811.138     3934.491     1374.214        0.948        0.456       99.137       31.701        0.102      341.532       16.309      854.884
06/24/2013  00:04:00     -231.553      -88.413      -13.785      107.677       63.099       32.402    11594.264     3981.446     1049.914        3.912        0.831      247.859       38.182        0.024      341.628       16.469      854.878
06/24/2013  00:05:00     -137.483      -34.426       11.126      103.119       53.752       41.456    10633.618     2889.259     1718.622        1.772        0.762      141.728       49.750        0.123      341.584       16.396      854.859
06/24/2013  00:06:00     -111.965      -67.316        6.379       83.572       81.264       44.437     6984.309     6603.798     1974.607        1.633        0.778      130.643       40.751        0.097      341.557       16.349      854.854
06/24/2013  00:07:00     -210.352        0.433      -15.018       59.238       46.380       36.294     3509.132     2151.110     1317.258        2.572        0.349      210.352       34.772        0.027      341.558       16.349      854.825
06/24/2013  00:08:00     -135.239      -40.640        3.530       69.144       55.136       30.194     4780.849     3039.930      911.679        1.434        0.437      141.213       21.264        0.023      341.521       16.290      854.807
06/24/2013  00:09:00     -191.195      -73.555       -9.808       74.190       52.640       30.903     5504.120     2770.922      955.000        2.564        0.462      204.855       31.618        0.024      341.429       16.132      854.796
06/24/2013  00:10:00     -161.961      -43.978        6.872      100.020       76.137       45.200    10004.053     5796.859     2043.048        2.302        0.892      167.825       50.343        0.090      341.348       15.996      854.771
06/24/2013  00:11:00     -159.234      -72.700       -4.895       79.402       55.897       40.762     6304.736     3124.440     1661.560        2.088        0.555      175.045       39.203        0.050      341.405       16.092      854.762
06/24/2013  00:12:00     -148.420      -78.668       -2.600       95.638       83.413       46.111     9146.583     6957.807     2126.198        2.322        0.912      167.980       45.054        0.072      341.379       16.049      854.736
06/24/2013  00:13:00     -192.846      -45.745       -6.291       72.849       60.077       32.090     5307.046     3609.289     1029.765        2.463        0.497      198.197       36.869        0.035      341.315       15.938      854.721
06/24/2013  00:14:00     -166.294      -40.264        1.125       87.030       60.988       42.944     7574.265     3719.480     1844.171        2.120        0.657      171.099       46.020        0.072      341.274       15.871      854.712
06/24/2013  00:15:00     -218.349      -86.977        1.492       78.448       79.191       39.054     6154.120     6271.138     1525.196        3.459        0.698      235.034       31.860        0.018      341.316       15.941      854.731
06/24/2013  00:16:00     -215.785      -49.658       -4.675       81.551       70.982       38.618     6650.506     5038.466     1491.351        3.111        0.659      221.425       38.026        0.029      341.275       15.871      854.758
06/24/2013  00:17:00     -191.226      -20.989       -2.964       80.537       58.298       40.457     6486.165     3398.671     1636.780        2.427        0.576      192.375       40.822        0.045      341.326       15.958      854.768
06/24/2013  00:18:00     -175.436      -42.466       10.943       56.553       61.038       34.230     3198.221     3725.600     1171.704        2.040        0.405      180.502       35.469        0.039      341.348       15.996      854.759
06/24/2013  00:19:00     -120.532       -6.820        1.803       68.501       63.419       34.280     4692.369     4022.010     1175.139        1.223        0.494      120.725       26.589        0.049      341.329       15.966      854.742
06/24/2013  00:20:00     -118.677      -55.416        5.925       70.135       50.235       36.232     4918.949     2523.596     1312.753        1.297        0.438      130.977       40.544        0.096      341.239       15.813      854.722
06/24/2013  00:21:00     -145.504      -75.916        9.402       78.127       55.034       38.198     6103.848     3028.773     1459.084        1.881        0.530      164.118       41.522        0.064      341.313       15.937      854.727
06/24/2013  00:22:00     -143.636      -67.825       -3.469       86.015       52.840       29.680     7398.635     2792.054      880.930        1.816        0.554      158.844       30.579        0.037      341.327       15.960      854.724
06/24/2013  00:23:00     -155.822      -88.431       10.234      123.719       73.585       51.832    15306.280     5414.710     2686.539        2.780        1.170      179.166       51.808        0.084      341.331       15.967      854.728
06/24/2013  00:24:00     -126.298      -88.050        8.829       67.344       76.443       36.686     4535.246     5843.554     1345.836        1.775        0.586      153.961       33.663        0.048      341.368       16.030      854.711
06/24/2013  00:25:00     -207.204     -112.406        2.431       73.011       83.076       46.486     5330.677     6901.574     2160.951        3.498        0.720      235.730       38.330        0.026      341.428       16.128      854.703
06/24/2013  00:26:00     -205.669      -94.027       -5.095       65.867       66.878       34.340     4338.526     4472.623     1179.206        3.058        0.500      226.143       34.560        0.023      341.388       16.063      854.698
06/24/2013  00:27:00     -212.103      -77.946      -10.361       68.280       58.605       42.210     4662.157     3434.519     1781.701        3.052        0.494      225.971       42.588        0.036      341.342       15.984      854.691
06/24/2013  00:28:00     -144.361      -23.525       -0.185       78.803       57.807       31.822     6209.864     3341.691     1012.645        1.598        0.528      146.265       36.764        0.063      341.296       15.908      854.688
06/24/2013  00:29:00      -70.357      -20.220        2.563       61.957       52.683       31.895     3838.686     2775.526     1017.279        0.650        0.382       73.205       32.434        0.196      341.267       15.861      854.683
06/24/2013  00:30:00      -48.553      -59.489       12.475       58.229       57.681       38.653     3390.647     3327.117     1494.027        0.713        0.411       76.787       37.371        0.237      341.362       16.021      854.674
06/24/2013  00:31:00      -39.991      -18.276       20.838       50.257       45.297       25.752     2525.721     2051.821      663.143        0.380        0.262       43.970       27.255        0.384      341.304       15.923      854.681
06/24/2013  00:32:00      -68.478     -116.105       -0.414       64.254       69.130       27.390     4128.524     4778.950      750.225        1.391        0.483      134.794       29.066        0.046      341.425       16.128      854.686
06/24/2013  00:33:00     -105.664      -96.097        9.318       68.661       57.876       32.857     4714.395     3349.603     1079.555        1.481        0.457      142.827       36.540        0.065      341.379       16.048      854.694
06/24/2013  00:34:00      -78.432      -50.908        5.755       59.323       25.697       20.395     3519.175      660.319      415.952        0.668        0.230       93.505       29.300        0.098      341.292       15.905      854.708
06/24/2013  00:35:00      -32.447      -37.567        2.283       24.975       31.483       16.510      623.729      991.188      272.578        0.218        0.094       49.639       13.652        0.076      341.319       15.949      854.727
06/24/2013  00:36:00     -106.370      -54.497       -0.974       39.111       27.886       22.817     1529.690      777.653      520.603        0.856        0.141      119.518       22.296        0.035      341.323       15.956      854.745
06/24/2013  00:37:00      -73.493      -48.116        4.475       67.862       48.839       25.269     4605.188     2385.265      638.514        0.768        0.381       87.843       29.416        0.112      341.276       15.876      854.750
06/24/2013  00:38:00      -64.772        1.684        4.851       52.065       39.431       31.655     2710.778     1554.804     1002.037        0.474        0.263       64.793       22.621        0.122      341.220       15.780      854.748
06/24/2013  00:39:00      -63.217      -12.428       12.972       50.099       38.945       27.643     2509.891     1516.711      764.136        0.455        0.240       64.427       29.592        0.211      341.226       15.794      854.749
06/24/2013  00:40:00     -157.392      -22.865       -8.186       75.706       66.575       36.836     5731.381     4432.287     1356.921        1.844        0.576      159.044       42.090        0.070      341.387       16.061      854.745
06/24/2013  00:41:00     -107.684      -56.683        2.799       64.769       39.615       27.501     4194.996     1569.324      756.332        1.067        0.326      121.691       29.180        0.057      341.441       16.156      854.730
06/24/2013  00:42:00      -21.651       -6.724       13.689       17.001       35.052       15.177      289.041     1228.663      230.354        0.122        0.087       22.671       17.478        0.594      341.239       15.812      854.725
06/24/2013  00:43:00       -9.494       -2.955       -4.316       13.855       13.976       11.067      191.970      195.317      122.470        0.031        0.025        9.944       12.023        1.462      341.246       15.827      854.735
06/24/2013  00:44:00      -12.274      -34.584       -6.818       14.835       45.541       14.728      220.066     2073.939      216.916        0.195        0.126       36.698       17.758        0.234      341.306       15.926      854.730
06/24/2013  00:45:00      -14.855      -12.924        5.290       19.428       42.198       29.925      377.442     1780.644      895.498        0.173        0.153       19.690       30.789        2.445      341.225       15.791      854.705
06/24/2013  00:46:00       37.057       54.890       15.535       31.396       33.608       16.042      985.728     1129.513      257.348        0.350        0.119       66.228       20.249        0.093      341.176       15.709      854.656
06/24/2013  00:47:00       28.200       46.558       10.681       28.894       22.055       17.510      834.887      486.415      306.607        0.235        0.081       54.432        7.619        0.020      341.131       15.632      854.628
06/24/2013  00:48:00      -17.472       42.724       -7.586       34.468       14.201       13.318     1188.025      201.681      177.357        0.188        0.078       46.159       13.958        0.091      340.936       15.298      854.633
06/24/2013  00:49:00     -113.734       12.683      -10.561       21.268       20.369       13.479      452.325      414.897      181.677        0.713        0.052      114.439        7.296        0.004      341.096       15.571      854.677
06/24/2013  00:50:00      -44.634       10.675        0.426       43.288       13.817       13.764     1873.888      190.911      189.449        0.218        0.113       45.893       15.739        0.118      340.956       15.335      854.701
06/24/2013  00:51:00       33.895       12.498        2.188        8.528        8.218        7.243       72.731       67.529       52.457        0.075        0.010       36.126        5.392        0.022      341.050       15.495      854.708
06/24/2013  00:52:00        9.536        2.829        5.606       12.553       20.856       19.689      157.566      434.988      387.675        0.056        0.049        9.947       19.074        3.677      341.101       15.580      854.706
06/24/2013  00:53:00       34.771       80.606       64.186       33.461       34.975       28.382     1119.622     1223.229      805.550        0.749        0.157       87.786       20.893        0.057      340.854       15.162      854.678
06/24/2013  00:54:00        7.116      109.990      108.564       35.201       40.479       44.039     1239.127     1638.541     1939.442        1.437        0.241      110.220       35.581        0.104      341.011       15.428      854.639
06/24/2013  00:55:00        6.812       85.561      124.811       51.317       47.187       25.806     2633.455     2226.644      665.927        1.423        0.276       85.832       25.194        0.086      341.241       15.817      854.608
06/24/2013  00:56:00        7.830       45.170       93.219       37.516       51.230       36.081     1407.456     2624.467     1301.854        0.806        0.267       45.843       34.733        0.574      341.087       15.556      854.585
06/24/2013  00:57:00       21.849       10.050       58.329       31.213       49.968       34.480      974.243     2496.822     1188.856        0.432        0.233       24.050       31.752        1.743      341.127       15.624      854.595
06/24/2013  00:58:00       -0.006       -9.353       28.051       23.897       50.090       34.319      571.057     2509.021     1177.804        0.257        0.213        9.353       29.426        9.899      341.077       15.539      854.618
06/24/2013  00:59:00      -13.775      -24.520        7.561       32.349       20.175       19.542     1046.447      407.043      381.906        0.134        0.092       28.125       18.084        0.413      340.934       15.297      854.643
06/24/2013  01:00:00      -81.513       22.185       -9.134       23.287       27.602       12.826      542.266      761.873      164.504        0.434        0.073       84.479       10.367        0.015      340.878       15.202      854.659
06/24/2013  01:01:00      -54.840       57.268      -13.477       29.787       32.472       11.438      887.246     1054.418      130.830        0.427        0.104       79.291        7.535        0.009      340.976       15.369      854.647
06/24/2013  01:02:00      -66.536       90.881      -15.918       29.482       27.283       20.981      869.190      744.342      440.191        0.750        0.103      112.634       19.019        0.029      341.113       15.600      854.624
06/24/2013  01:03:00      -23.914       98.730        1.278       28.842       52.678       31.185      831.873     2774.944      972.517        0.745        0.229      101.585       32.852        0.105      341.225       15.790      854.585
06/24/2013  01:04:00       -9.549      120.194      -13.671       17.440       40.446       11.649      304.168     1635.875      135.706        0.840        0.104      120.573       14.408        0.014      341.011       15.429      854.568
06/24/2013  01:05:00       36.516       -0.626       -0.792       23.723       16.884       17.106      562.796      285.078      292.604        0.124        0.057       36.521       10.860        0.088      340.914       15.263      854.561
06/24/2013  01:06:00       14.514       25.234       25.665       20.189       30.904       21.104      407.589      955.072      445.389        0.166        0.090       29.110       14.350        0.243      340.959       15.339      854.547
06/24/2013  01:07:00      -39.708       35.961       12.684       52.254       36.090       33.951     2730.532     1302.467     1152.642        0.411        0.259       53.571        7.460        0.019      341.360       16.017      854.543
06/24/2013  01:08:00     -116.209       55.575       -7.695       43.666       57.953       24.567     1906.710     3358.525      603.523        1.126        0.293      128.814       23.588        0.034      341.461       16.188      854.536
06/24/2013  01:09:00      -61.142       62.259       -3.440       45.083       50.078       25.621     2032.510     2507.810      656.410        0.641        0.260       87.261       27.975        0.103      341.512       16.277      854.552
06/24/2013  01:10:00      -19.504      -81.482        7.452       49.433       57.573       24.000     2443.648     3314.623      576.019        0.670        0.317       83.784       23.850        0.081      341.477       16.215      854.569
06/24/2013  01:11:00      -16.238       14.959        1.546       29.023       28.179       20.514      842.318      794.066      420.805        0.127        0.103       22.078       19.530        0.783      341.327       15.963      854.563
06/24/2013  01:12:00      -10.660     -111.153       -4.439       25.644       51.764       21.667      657.621     2679.541      469.451        0.815        0.190      111.663       13.811        0.015      341.383       16.058      854.563
06/24/2013  01:13:00       -3.427      -63.271       -5.907       27.974       54.060       18.587      782.532     2922.517      345.482        0.405        0.203       63.364       16.352        0.067      341.351       16.003      854.545
06/24/2013  01:14:00      -67.674      -86.335       -6.084       35.273       49.252       15.767     1244.211     2425.756      248.598        0.799        0.196      109.697       13.715        0.016      341.352       16.007      854.537
06/24/2013  01:15:00      -77.056      -60.507       -4.905       34.979       26.324       21.665     1223.513      692.972      469.352        0.600        0.119       97.973       17.535        0.032      341.350       16.000      854.527
06/24/2013  01:16:00      -14.133      -65.157       -8.220       15.933       13.496       12.220      253.847      182.136      149.336        0.255        0.029       66.672        7.122        0.011      341.334       15.976      854.524
06/24/2013  01:17:00       -4.867        1.668       17.778       18.389       28.560       14.786      338.163      815.652      218.629        0.086        0.069        5.145       18.155       12.453      341.268       15.864      854.518
06/24/2013  01:18:00      107.210       78.583       30.085       47.572       23.377       30.697     2263.130      546.488      942.312        1.116        0.188      132.926       29.667        0.050      341.276       15.876      854.492
06/24/2013  01:19:00      165.909       89.823       21.910       43.252       37.256       31.995     1870.755     1388.046     1023.653        2.018        0.214      188.664       22.562        0.014      341.366       16.027      854.458
06/24/2013  01:20:00      117.262       73.005       32.876       40.128       34.989       36.481     1610.244     1224.263     1330.865        1.216        0.208      138.131       23.683        0.029      341.299       15.914      854.430
06/24/2013  01:21:00       62.331       48.427       59.491       46.218       38.107       43.331     2136.108     1452.165     1877.589        0.762        0.273       78.932       36.774        0.217      341.247       15.828      854.431
06/24/2013  01:22:00       98.278      130.632       86.469       82.891       40.172       43.215     6870.974     1613.806     1867.512        2.227        0.518      163.472       39.642        0.059      341.279       15.879      854.438
06/24/2013  01:23:00       85.180       42.312       65.727       72.838       77.525       52.399     5305.392     6010.150     2745.699        1.371        0.703       95.110       48.903        0.264      341.233       15.803      854.453
06/24/2013  01:24:00       51.035        5.807       48.025       52.705       62.374       40.461     2777.859     3890.513     1637.108        0.662        0.415       51.364       47.863        0.868      341.263       15.854      854.463
06/24/2013  01:25:00       15.827      -11.047       35.132       41.266       78.670       38.663     1702.871     6188.961     1494.839        0.549        0.469       19.301       38.700        4.020      341.295       15.909      854.447
06/24/2013  01:26:00       46.413      -23.326        7.942       28.979       55.429       32.324      839.782     3072.334     1044.823        0.386        0.248       51.945       36.830        0.503      341.431       16.138      854.444
06/24/2013  01:27:00       65.890       61.809       31.634       41.410       25.611       29.467     1714.783      655.911      868.296        0.620        0.162       90.343       22.779        0.064      341.398       16.084      854.428
06/24/2013  01:28:00      104.059       74.601       32.037       25.812       23.743       29.111      666.253      563.737      847.444        0.975        0.104      128.037       15.219        0.014      341.310       15.935      854.406
06/24/2013  01:29:00       24.679      140.323      136.875       37.974       60.338       41.247     1442.014     3640.673     1701.298        2.291        0.339      142.477       41.495        0.085      341.314       15.939      854.374
06/24/2013  01:30:00       52.452      169.051      155.726       68.955       72.674       54.784     4754.760     5281.502     3001.330        3.431        0.652      177.001       48.922        0.076      341.155       15.667      854.348
06/24/2013  01:31:00        8.835       97.061      121.773       46.657       49.067       35.756     2176.914     2407.555     1278.505        1.509        0.293       97.462       23.204        0.057      341.069       15.526      854.332
06/24/2013  01:32:00       58.876      -38.330       40.953       73.798       64.429       47.060     5446.116     4151.152     2214.674        0.921        0.591       70.254       34.205        0.237      341.117       15.609      854.365
06/24/2013  01:33:00       -0.296      -72.946       -1.872       49.417       48.251       39.183     2442.005     2328.172     1535.338        0.581        0.315       72.947       28.121        0.149      341.136       15.638      854.424
06/24/2013  01:34:00      104.913     -128.875      -10.257       63.496       60.233       37.549     4031.743     3627.985     1409.959        1.839        0.453      166.179       33.029        0.040      341.209       15.761      854.441
06/24/2013  01:35:00      111.637     -109.263      -21.817       42.344       43.730       30.972     1793.045     1912.312      959.240        1.477        0.233      156.209       23.921        0.023      341.271       15.868      854.420
06/24/2013  01:36:00       13.076      -12.913       11.733       51.519       62.786       25.989     2654.201     3942.119      675.425        0.387        0.364       18.377       35.404        3.712      341.432       16.140      854.393
06/24/2013  01:37:00       -6.023      -18.119        2.296       18.459       25.555       13.042      340.740      653.075      170.099        0.077        0.058       19.093       13.579        0.506      341.287       15.896      854.388
06/24/2013  01:38:00      -11.307      -17.555        2.902       29.739       22.065       12.994      884.434      486.874      168.840        0.099        0.077       20.881        9.617        0.212      341.316       15.946      854.406
06/24/2013  01:39:00       49.387      -40.820       -2.477       44.953       34.299       22.652     2020.774     1176.442      513.123        0.391        0.186       64.073       19.460        0.092      341.256       15.843      854.401
06/24/2013  01:40:00       65.726     -120.756      -15.204       45.913       50.801       28.530     2107.989     2580.779      813.972        1.232        0.275      137.485        7.872        0.003      341.328       15.965      854.400
06/24/2013  01:41:00       42.220      -90.461       -4.426       45.000       51.242       38.532     2024.997     2625.704     1484.746        0.806        0.307       99.829       27.609        0.076      341.356       16.012      854.417
06/24/2013  01:42:00      -17.041      -79.582        1.470       19.428       54.770       20.536      377.447     2999.741      421.715        0.521        0.190       81.386       23.240        0.082      341.418       16.117      854.450
06/24/2013  01:43:00      -10.211      -21.708       20.608       27.615       39.808       18.565      762.575     1584.650      344.650        0.185        0.135       23.990       16.298        0.462      341.247       15.827      854.460
06/24/2013  01:44:00      -23.163        3.368       22.528       20.878       29.068       21.269      435.870      844.944      452.369        0.139        0.087       23.406       14.003        0.358      341.138       15.644      854.459
06/24/2013  01:45:00      -17.539       14.682        3.620       27.851       22.292       19.263      775.681      496.935      371.068        0.109        0.082       22.873       17.007        0.553      341.081       15.547      854.451
06/24/2013  01:46:00       25.288       27.220       18.458       21.793       12.079       17.972      474.943      145.895      323.005        0.133        0.047       37.154        7.722        0.043      341.089       15.561      854.432
06/24/2013  01:47:00       45.202       32.246       13.978       30.379       24.116       19.586      922.866      581.561      383.606        0.258        0.094       55.525       16.657        0.090      341.127       15.624      854.437
06/24/2013  01:48:00       80.980      -61.316        2.695       55.938       58.144       36.297     3129.097     3380.690     1317.460        0.907        0.391      101.575       29.077        0.082      341.122       15.614      854.461
06/24/2013  01:49:00       38.746       26.195       56.318       58.164       74.799       59.099     3383.029     5594.858     3492.671        0.891        0.624       46.770       62.568        1.790      341.035       15.467      854.490
06/24/2013  01:50:00       75.264        4.638       55.971       59.396       80.195       48.770     3527.842     6431.236     2378.536        1.058        0.617       75.407       55.958        0.551      340.970       15.357      854.507
06/24/2013  01:51:00       30.467       10.464       46.856       42.237       48.828       31.438     1783.928     2384.202      988.367        0.419        0.258       32.214       27.858        0.748      340.889       15.220      854.527
06/24/2013  01:52:00       28.848       11.221       40.494       39.676       32.830       33.900     1574.171     1077.796     1149.191        0.320        0.190       30.953       34.070        1.212      340.941       15.309      854.532
06/24/2013  01:53:00       33.887      -20.470       16.634       25.716       30.256       25.427      661.295      915.419      646.522        0.203        0.111       39.590       19.953        0.254      340.915       15.267      854.521
06/24/2013  01:54:00       48.560       42.623       36.659       29.522       25.697       29.778      871.535      660.348      886.722        0.397        0.121       64.613       25.015        0.150      340.868       15.185      854.494
06/24/2013  01:55:00       66.933       38.528       12.687       15.274       11.642       15.215      233.294      135.546      231.490        0.336        0.030       77.230        7.944        0.011      340.919       15.270      854.467
06/24/2013  01:56:00       74.740       51.564       25.181       23.076       12.744       20.238      532.485      162.399      409.569        0.499        0.055       90.801        7.377        0.007      340.998       15.407      854.465
06/24/2013  01:57:00       18.342       34.194       37.370       15.132       16.984       13.213      228.967      288.467      174.573        0.180        0.035       38.803        7.861        0.041      340.920       15.274      854.457
06/24/2013  01:58:00       49.263       42.018       18.018       15.981        7.520       14.682      255.387       56.547      215.549        0.252        0.026       64.748       11.519        0.032      340.877       15.198      854.441
06/24/2013  01:59:00       89.013       68.628       16.184       23.697       22.053       14.225      561.527      486.338      202.352        0.707        0.063      112.397       12.453        0.012      340.831       15.122      854.406
06/24/2013  02:00:00      119.003       84.944        9.122       37.438       30.892       25.970     1401.590      954.291      674.426        1.224        0.152      146.209       17.393        0.014      340.822       15.109      854.367
06/24/2013  02:01:00      133.453       98.718        3.152       39.191       37.595       30.659     1535.910     1413.408      939.957        1.573        0.194      165.997        4.188        0.001      340.647       14.812      854.341
06/24/2013  02:02:00      115.691       89.592       15.257       54.331       43.011       33.415     2951.889     1849.980     1116.555        1.378        0.296      146.326       21.077        0.021      340.782       15.040      854.325
06/24/2013  02:03:00      -16.944       76.011      -10.020       22.138       37.903       24.010      490.095     1436.628      576.501        0.433        0.125       77.877       25.361        0.106      340.727       14.946      854.333
06/24/2013  02:04:00      -23.310       42.412      -12.712       17.358       16.528       10.653      301.297      273.181      113.486        0.160        0.034       48.395        7.473        0.024      340.866       15.183      854.334
06/24/2013  02:05:00        6.107       40.193        4.478       29.135       20.142       17.100      848.842      405.684      292.394        0.161        0.077       40.654       13.864        0.116      340.696       14.895      854.295
06/24/2013  02:06:00       43.579       81.632      -12.658       18.150       32.115       22.829      329.430     1031.371      521.184        0.530        0.094       92.536       24.202        0.068      340.960       15.342      854.253
06/24/2013  02:07:00      -12.968       53.840      -21.652       39.680       41.882       13.184     1574.496     1754.117      173.827        0.352        0.175       55.380       15.450        0.078      341.375       16.043      854.237
06/24/2013  02:08:00       -6.747       46.989        3.190       19.836       36.393       17.998      393.472     1324.475      323.925        0.215        0.102       47.471       18.434        0.151      341.464       16.194      854.241
06/24/2013  02:09:00      -61.658       -7.073        1.319       31.960       25.051       19.817     1021.427      627.554      392.711        0.295        0.102       62.063       17.646        0.081      341.421       16.123      854.250
06/24/2013  02:10:00      -21.516      -69.048        1.956       36.755       28.736       28.180     1350.896      825.757      794.111        0.410        0.149       72.323       25.230        0.122      341.369       16.033      854.258
06/24/2013  02:11:00      -26.849       18.687        2.715       31.990       48.835       17.579     1023.363     2384.883      309.026        0.240        0.186       32.712       22.263        0.463      341.229       15.797      854.244
06/24/2013  02:12:00      -32.805       56.652        0.638       26.661       32.056       22.068      710.828     1027.565      487.018        0.326        0.111       65.464       16.242        0.062      340.895       15.231      854.227
06/24/2013  02:13:00       -9.960       39.346       -2.576       25.865       23.417        9.398      668.979      548.341       88.332        0.148        0.065       40.587        6.877        0.029      341.023       15.448      854.191
06/24/2013  02:14:00       -8.251      -33.055        3.174       12.971       34.413       14.196      168.235     1184.284      201.526        0.136        0.078       34.070       13.095        0.148      340.980       15.377      854.165
06/24/2013  02:15:00        3.306      -57.951        5.402       29.721       40.711       33.068      883.334     1657.421     1093.478        0.352        0.182       58.045       17.648        0.092      340.802       15.074      854.143
06/24/2013  02:16:00        8.845      -12.901       -1.895       22.750       26.076       16.938      517.564      679.965      286.905        0.087        0.074       15.642       12.208        0.609      340.623       14.773      854.135
06/24/2013  02:17:00        8.698      -19.403       13.106       12.010       25.530       13.512      144.233      651.803      182.573        0.080        0.049       21.264        6.378        0.090      340.610       14.751      854.133
06/24/2013  02:18:00        6.010      -34.602        1.044       10.031       21.728       12.837      100.617      472.124      164.789        0.099        0.037       35.120       10.108        0.083      340.789       15.051      854.123
06/24/2013  02:19:00        2.538        1.933        1.717        5.627        4.223        7.774       31.665       17.831       60.434        0.006        0.005        3.190        2.554        0.641      340.748       14.983      854.112
06/24/2013  02:20:00       -5.193       -2.043       -5.120        7.470        9.158        5.630       55.806       83.876       31.691        0.011        0.009        5.580        3.474        0.388      340.798       15.067      854.116
06/24/2013  02:21:00      -41.579        0.671       -4.677       22.194       10.562        6.837      492.576      111.556       46.749        0.120        0.033       41.585        6.086        0.021      340.894       15.230      854.112
06/24/2013  02:22:00      -75.123        7.864       -6.176       13.699       11.840       13.866      187.662      140.180      192.256        0.313        0.026       75.533       10.086        0.018      340.957       15.336      854.087
06/24/2013  02:23:00      -45.212       64.766      -10.906       25.177       23.566       14.219      633.885      555.368      202.167        0.387        0.070       78.986       10.888        0.019      340.919       15.273      854.071
06/24/2013  02:24:00        0.724       77.857       -5.714       27.430       25.437       18.748      752.391      647.061      351.490        0.392        0.088       77.860       17.507        0.051      340.917       15.268      854.065
06/24/2013  02:25:00      -13.968      100.342      -11.675       18.252       21.824       11.612      333.137      476.305      134.832        0.567        0.047      101.310        5.607        0.003      340.910       15.256      854.071
06/24/2013  02:26:00       21.048       38.064       -4.713       25.173       18.102       11.150      633.665      327.697      124.324        0.150        0.054       43.495        5.725        0.017      340.834       15.127      854.086
06/24/2013  02:27:00       33.394       17.346       -5.973       30.184       15.192       14.029      911.098      230.788      196.816        0.139        0.067       37.630       13.590        0.130      340.759       15.000      854.095
06/24/2013  02:28:00       66.102       63.798       36.216       22.160       15.867       23.421      491.053      251.747      548.545        0.552        0.065       91.868        7.439        0.007      340.724       14.942      854.069
06/24/2013  02:29:00       30.859       81.378       73.382       39.302       24.820       26.679     1544.636      616.027      711.768        0.792        0.144       87.033       22.571        0.067      340.724       14.942      854.038
06/24/2013  02:30:00      112.736       70.998       53.489       80.859       49.415       48.439     6538.187     2441.828     2346.325        1.597        0.566      133.229       46.017        0.119      340.739       14.967      854.013
06/24/2013  02:31:00      183.109       92.411       25.930       65.298       53.193       47.841     4263.784     2829.536     2288.784        2.606        0.469      205.107       33.763        0.027      340.777       15.029      854.000
06/24/2013  02:32:00       17.005        6.637       15.769       26.868       19.195       18.250      721.876      368.467      333.067        0.100        0.071       18.254       13.282        0.529      340.596       14.726      854.004
06/24/2013  02:33:00       16.581       16.426        5.709       23.866       29.460       16.927      569.566      867.909      286.516        0.115        0.086       23.340       13.852        0.352      340.590       14.716      854.023
06/24/2013  02:34:00      -10.615       -0.607        1.887       14.489       11.411        9.088      209.936      130.202       82.601        0.027        0.021       10.632        4.340        0.167      340.554       14.654      854.046
06/24/2013  02:35:00       12.664       20.674        2.568       13.822       19.983       14.515      191.057      399.306      210.692        0.070        0.040       24.245        7.199        0.088      340.540       14.632      854.064
06/24/2013  02:36:00       68.597       44.006       17.060       19.205       14.447       15.491      368.825      208.706      239.960        0.388        0.041       81.499        6.264        0.006      340.539       14.629      854.067
06/24/2013  02:37:00       86.535       56.190       15.489       18.703       15.788       20.146      349.800      249.265      405.843        0.595        0.050      103.178       12.295        0.014      340.466       14.506      854.038
06/24/2013  02:38:00       76.633       37.928       15.724       22.984       23.399       23.757      528.253      547.498      564.401        0.460        0.082       85.505       13.837        0.026      340.386       14.373      853.998
06/24/2013  02:39:00      118.129       55.917       16.159       31.424       26.099       24.158      987.490      681.170      583.591        0.980        0.113      130.695       17.976        0.019      340.421       14.430      853.969
06/24/2013  02:40:00      142.696       83.122       23.466       25.249       27.074       30.839      637.511      733.006      951.040        1.507        0.116      165.141       15.749        0.009      340.430       14.446      853.971
06/24/2013  02:41:00      102.347       82.257       37.210       47.405       30.267       25.087     2247.196      916.083      629.348        1.121        0.190      131.305        3.253        0.001      340.406       14.407      853.976
06/24/2013  02:42:00       65.543       53.697       25.419       25.573       13.721       13.325      653.999      188.255      177.560        0.442        0.051       84.731       11.115        0.017      340.342       14.297      853.980
06/24/2013  02:43:00      113.825       71.243        5.724       30.924       20.630       18.582      956.288      425.606      345.309        0.990        0.086      134.282       12.469        0.009      340.258       14.155      853.975
06/24/2013  02:44:00      100.868       65.738        6.918       29.438       26.410       20.700      866.615      697.465      428.507        0.827        0.100      120.399       13.750        0.013      340.201       14.057      853.973
06/24/2013  02:45:00      124.733       73.864        9.951       22.924       28.277       25.838      525.490      799.576      667.626        1.155        0.100      144.963       14.553        0.010      340.263       14.162      853.985
06/24/2013  02:46:00       61.405       33.641        6.059       40.745       28.628       22.656     1660.178      819.581      513.316        0.397        0.150       70.016       24.048        0.118      340.211       14.075      853.985
06/24/2013  02:47:00       54.670       37.068       12.554       18.419       17.019       20.327      339.245      289.648      413.186        0.278        0.052       66.052       10.446        0.025      340.250       14.140      853.989
06/24/2013  02:48:00       55.509       50.789       -6.394       27.557       20.753       20.026      759.388      430.707      401.051        0.365        0.080       75.238        9.659        0.016      340.338       14.291      853.976
06/24/2013  02:49:00       45.051       28.411       11.827       32.294       30.586       23.911     1042.911      935.496      571.753        0.276        0.128       53.262       13.869        0.068      340.524       14.603      853.954
06/24/2013  02:50:00       67.239       47.780       11.026       59.035       37.549       20.477     3485.183     1409.963      419.322        0.612        0.266       82.486       13.006        0.025      340.437       14.456      853.944
06/24/2013  02:51:00      138.921       67.045       27.182       70.949       58.475       39.819     5033.722     3419.300     1585.579        1.728        0.502      154.253       32.504        0.044      340.721       14.935      853.936
06/24/2013  02:52:00      129.102       80.794       16.008       34.152       30.166       27.072     1166.386      910.017      732.873        1.313        0.140      152.299       19.113        0.016      340.725       14.944      853.913
06/24/2013  02:53:00       50.892       55.377        1.336       36.035       26.427       29.238     1298.551      698.412      854.864        0.425        0.143       75.210       20.131        0.072      340.605       14.741      853.873
06/24/2013  02:54:00       37.724       47.078       -1.331       23.907       30.574       24.470      571.525      934.750      598.797        0.287        0.105       60.328       19.450        0.104      340.528       14.613      853.830
06/24/2013  02:55:00       46.786       41.257       12.141       37.139       29.063       27.458     1379.299      844.664      753.915        0.351        0.149       62.379       21.270        0.116      340.466       14.505      853.803
06/24/2013  02:56:00       13.096       25.185       -1.745       21.479       22.693       17.640      461.344      514.978      311.157        0.105        0.064       28.387       15.972        0.317      340.445       14.471      853.794
06/24/2013  02:57:00       24.297        7.551        0.047       15.010       21.209       12.415      225.315      449.811      154.125        0.074        0.041       25.443        9.806        0.149      340.529       14.612      853.801
06/24/2013  02:58:00       21.851       14.830        3.638       19.249       10.506       12.841      370.520      110.384      164.900        0.068        0.032       26.408        6.150        0.054      340.531       14.616      853.816
06/24/2013  02:59:00        6.901       21.428       24.335       13.777       16.059       10.615      189.802      257.906      112.685        0.083        0.028       22.512        9.810        0.190      340.536       14.624      853.820
06/24/2013  03:00:00       -3.405       23.428       56.081       16.740       23.376       18.027      280.228      546.445      324.976        0.243        0.058       23.675       13.356        0.318      340.589       14.714      853.812
06/24/2013  03:01:00       10.042       87.361       94.048       44.253       45.146       33.335     1958.321     2038.126     1111.238        1.084        0.255       87.936       29.360        0.111      340.579       14.696      853.780
06/24/2013  03:02:00       98.274      121.241       82.309       63.495       37.409       44.485     4031.597     1399.398     1978.942        1.927        0.370      156.068       42.064        0.073      340.498       14.557      853.730
06/24/2013  03:03:00      108.301       87.620       75.714       52.831       50.789       46.780     2791.152     2579.514     2188.380        1.635        0.378      139.307       39.074        0.079      340.389       14.377      853.671
06/24/2013  03:04:00      142.470       58.006       31.525       61.294       56.746       42.228     3756.936     3220.103     1783.233        1.671        0.438      153.826       32.185        0.044      340.398       14.390      853.635
06/24/2013  03:05:00      114.820       60.234       20.036       61.446       47.035       42.875     3775.672     2212.261     1838.291        1.252        0.391      129.661       35.739        0.076      340.425       14.437      853.619
06/24/2013  03:06:00       98.128       53.714       27.745       44.316       40.325       30.266     1963.929     1626.074      916.052        0.889        0.225      111.867       23.387        0.044      340.368       14.340      853.608
06/24/2013  03:07:00       43.895       52.693       45.308       32.998       23.896       19.290     1088.889      570.999      372.089        0.439        0.102       68.581       15.800        0.053      340.333       14.280      853.612
06/24/2013  03:08:00      122.093       77.232       42.343       50.669       36.480       36.039     2567.325     1330.793     1298.811        1.393        0.260      144.470       30.986        0.046      340.429       14.442      853.646
06/24/2013  03:09:00       77.435       26.854       11.455       28.227       27.070       25.877      796.784      732.767      669.637        0.452        0.110       81.959        7.138        0.008      340.425       14.437      853.668
06/24/2013  03:10:00       -3.632      -23.065       14.654       14.690       27.801       12.843      215.795      772.914      164.937        0.096        0.058       23.349        6.265        0.072      340.491       14.548      853.676
06/24/2013  03:11:00        4.659      -23.493        6.856       12.625       22.694       15.794      159.394      515.004      249.456        0.077        0.046       23.951       14.078        0.345      340.479       14.527      853.677
06/24/2013  03:12:00       10.809      -27.921       -4.541       20.676       13.482       10.790      427.506      181.768      116.434        0.082        0.036       29.941        4.571        0.023      340.500       14.563      853.673
06/24/2013  03:13:00      -10.926      -21.399        3.312       16.257       16.872       11.896      264.280      284.649      141.511        0.064        0.035       24.027        4.160        0.030      340.602       14.738      853.659
06/24/2013  03:14:00      -14.515       -9.314        8.918       14.918        9.522        6.537      222.540       90.663       42.734        0.037        0.018       17.246        3.790        0.048      340.545       14.639      853.652
06/24/2013  03:15:00        7.451        2.907        7.883       11.317        9.377        9.516      128.074       87.920       90.561        0.022        0.015        7.998        5.208        0.424      340.557       14.660      853.635
06/24/2013  03:16:00        6.976       -6.971       11.454        8.482       20.508        9.531       71.944      420.561       90.833        0.041        0.029        9.862       10.937        1.230      340.558       14.661      853.630
06/24/2013  03:17:00       -1.968      -18.146       21.558       10.056       33.290       13.533      101.114     1108.234      183.140        0.109        0.070       18.252        8.583        0.221      340.633       14.788      853.621
06/24/2013  03:18:00       14.423       -7.024        9.370       19.633       16.815       18.700      385.459      282.754      349.705        0.068        0.051       16.043       16.954        1.117      340.570       14.682      853.609
06/24/2013  03:19:00       22.012        3.428      -12.213        8.295       13.364        8.238       68.799      178.603       67.872        0.048        0.016       22.277        6.498        0.085      340.503       14.565      853.610
06/24/2013  03:20:00      -15.871        6.344       -5.840       17.509       11.398        9.712      306.558      129.908       94.315        0.043        0.027       17.092       10.127        0.351      340.501       14.564      853.611
06/24/2013  03:21:00      -12.171       20.927      -13.647       16.047       17.989       10.823      257.493      323.594      117.133        0.074        0.035       24.209       10.297        0.181      340.537       14.625      853.620
06/24/2013  03:22:00       -3.607      -14.644        4.445       20.932        8.861        7.713      438.155       78.509       59.495        0.041        0.029       15.082        7.155        0.225      340.563       14.670      853.633
06/24/2013  03:23:00      -36.916        2.251       -1.235        9.582       14.757        5.991       91.821      217.771       35.891        0.086        0.017       36.985        3.290        0.008      340.510       14.583      853.641
06/24/2013  03:24:00       -5.693       26.754       -3.966       18.125       20.363       12.863      328.507      414.646      165.461        0.084        0.045       27.353       13.973        0.261      340.602       14.737      853.638
06/24/2013  03:25:00       32.193       47.339       -2.174       22.994       19.056       15.469      528.707      363.136      239.291        0.221        0.057       57.249       13.386        0.055      340.626       14.776      853.631
06/24/2013  03:26:00       90.000       63.668        7.838       29.143       22.130       20.328      849.323      489.734      413.246        0.698        0.088      110.243       15.409        0.020      340.526       14.608      853.583
06/24/2013  03:27:00      117.361       62.030        9.192       29.869       32.962       26.566      892.164     1086.474      705.729        1.019        0.134      132.745       21.049        0.025      340.463       14.500      853.517
06/24/2013  03:28:00      110.070       43.696        3.849       42.356       33.060       23.919     1793.994     1092.936      572.129        0.875        0.173      118.426       16.700        0.020      340.503       14.570      853.510
06/24/2013  03:29:00       60.417       42.491        1.419       35.992       22.463       23.475     1295.442      504.587      551.094        0.390        0.118       73.862       13.184        0.032      340.456       14.488      853.534
06/24/2013  03:30:00      -14.816       12.028       -6.682       16.513       16.988       11.609      272.684      288.593      134.758        0.055        0.035       19.083       11.590        0.369      340.467       14.507      853.548
06/24/2013  03:31:00      -52.913       -2.977       -7.157       26.942       16.894       12.199      725.890      285.402      148.807        0.201        0.058       52.996       11.141        0.044      340.521       14.599      853.554
06/24/2013  03:32:00      -94.409       15.379       -9.518       32.308       27.862       16.134     1043.785      776.283      260.295        0.566        0.104       95.653        5.655        0.003      340.516       14.591      853.545
06/24/2013  03:33:00     -134.432        3.864      -20.505       24.141       29.683       15.285      582.766      881.073      233.617        1.010        0.085      134.487       13.314        0.010      340.545       14.638      853.546
06/24/2013  03:34:00     -126.139      -12.099      -11.957       42.746       40.984       22.845     1827.221     1679.706      521.889        1.011        0.201      126.718        8.828        0.005      340.602       14.737      853.567
06/24/2013  03:35:00      -52.631      -38.650       -0.580       59.488       27.436       24.715     3538.819      752.743      610.815        0.458        0.245       65.298       17.603        0.073      340.575       14.690      853.593
06/24/2013  03:36:00     -116.183      -17.838       -6.862       35.724       28.920       19.339     1276.220      836.347      374.009        0.817        0.124      117.544       15.953        0.018      340.499       14.561      853.602
06/24/2013  03:37:00      -69.417      -19.286       -0.596       31.151       22.123       21.521      970.391      489.424      463.173        0.356        0.096       72.046       18.983        0.069      340.520       14.597      853.608
06/24/2013  03:38:00      -33.187        1.490       -2.241       15.062       13.956       13.550      226.873      194.757      183.596        0.086        0.030       33.221        9.582        0.083      340.549       14.648      853.601
06/24/2013  03:39:00       11.061       14.777        5.307       16.784       13.157       15.133      281.709      173.110      229.007        0.053        0.034       18.458        5.079        0.076      340.582       14.702      853.580
06/24/2013  03:40:00       50.267       35.803       23.961       40.372       22.905       25.861     1629.915      524.656      668.787        0.360        0.141       61.714       25.834        0.175      340.632       14.787      853.564
06/24/2013  03:41:00       48.718       35.039       17.704       30.512       25.680       25.935      931.009      659.469      672.623        0.309        0.113       60.010       24.606        0.168      340.606       14.745      853.570
06/24/2013  03:42:00       35.084       31.791       10.447       25.676       14.562       14.462      659.268      212.055      209.158        0.172        0.054       47.345       11.274        0.057      340.645       14.807      853.607
06/24/2013  03:43:00       17.633       16.406        5.322       20.498       11.546       10.123      420.158      133.309      102.483        0.063        0.033       24.085        5.985        0.062      340.727       14.949      853.658
06/24/2013  03:44:00       -2.626       23.358        0.780       24.319       16.309       10.464      591.411      265.968      109.501        0.076        0.048       23.505        9.895        0.177      340.773       15.026      853.689
06/24/2013  03:45:00      -40.226       16.401       -8.208       14.234       13.034        7.326      202.613      169.881       53.668        0.119        0.021       43.441        4.396        0.010      340.724       14.943      853.687
06/24/2013  03:46:00      -44.405       27.583      -12.401       13.938       20.898        8.807      194.277      436.744       77.571        0.180        0.035       52.275        7.478        0.020      340.778       15.033      853.698
06/24/2013  03:47:00      -18.123       26.383       -6.863       17.906       16.379       12.087      320.620      268.267      146.085        0.090        0.037       32.008        4.447        0.019      340.862       15.176      853.715
06/24/2013  03:48:00      -13.048        2.416        2.672       13.343       16.061       11.241      178.040      257.955      126.350        0.037        0.028       13.270        7.048        0.282      340.829       15.118      853.741
06/24/2013  03:49:00       -5.340        0.199       -0.608       18.093       14.057       14.633      327.361      197.597      214.122        0.038        0.037        5.344       13.500        6.382      340.909       15.254      853.756
06/24/2013  03:50:00       25.897        7.202       16.443       20.841       16.507       12.179      434.338      272.476      148.322        0.092        0.043       26.879        9.573        0.127      340.894       15.230      853.728
06/24/2013  03:51:00       80.108       47.556        4.297       22.007       19.035       18.081      484.310      362.333      326.926        0.494        0.059       93.160       12.867        0.019      340.908       15.254      853.671
06/24/2013  03:52:00       68.739       47.238       28.508       28.572       24.460       26.327      816.346      598.269      693.109        0.494        0.105       83.406        7.648        0.008      340.883       15.211      853.608
06/24/2013  03:53:00       72.490       38.591       31.398       30.959       26.434       23.186      958.443      698.735      537.591        0.496        0.110       82.123       19.652        0.057      340.851       15.155      853.587
06/24/2013  03:54:00       40.667       26.285       29.653       35.640       25.147       21.272     1270.175      632.372      452.504        0.279        0.118       48.423       11.935        0.061      340.879       15.202      853.580
06/24/2013  03:55:00       67.194       47.445       12.993       21.807       25.527       17.679      475.561      651.635      312.546        0.419        0.072       82.256       14.271        0.030      340.878       15.201      853.560
06/24/2013  03:56:00       50.674       46.875        7.021       36.937       26.328       22.742     1364.379      693.162      517.198        0.369        0.129       69.029       19.006        0.076      340.864       15.180      853.531
06/24/2013  03:57:00       27.213       48.520       -0.119       33.257       31.448       20.990     1106.012      988.952      440.566        0.281        0.127       55.630       21.839        0.154      340.841       15.141      853.513
06/24/2013  03:58:00       30.161       34.793        3.104       23.957       27.200       25.431      573.946      739.828      646.713        0.204        0.098       46.046       22.276        0.234      340.865       15.181      853.523
06/24/2013  03:59:00        4.515       36.356       -8.212       23.700       23.813       14.869      561.712      567.074      221.095        0.138        0.067       36.635       16.729        0.209      340.859       15.169      853.556
06/24/2013  04:00:00      -42.518       -3.403       -3.384       39.822       25.597        7.087     1585.766      655.225       50.222        0.206        0.115       42.654        8.920        0.044      340.866       15.183      853.593
06/24/2013  04:01:00      -79.578      -45.877       -5.459       42.271       26.348       20.695     1786.869      694.202      428.301        0.569        0.145       91.855       22.792        0.062      340.905       15.249      853.625
06/24/2013  04:02:00      -12.783      -11.603       17.621       26.186       15.037       14.427      685.729      226.100      208.136        0.086        0.056       17.264       14.671        0.722      340.936       15.301      853.646
06/24/2013  04:03:00      -17.021      -35.381        3.221       15.089       18.377       14.832      227.693      337.715      219.983        0.117        0.039       39.262       10.998        0.078      341.014       15.433      853.645
06/24/2013  04:04:00      -30.266      -56.615       -6.169       15.038       19.186       11.969      226.156      368.100      143.263        0.245        0.037       64.197        6.512        0.010      341.091       15.563      853.646
06/24/2013  04:05:00      -36.465      -52.352       -0.885       30.574       28.446       18.059      934.769      809.176      326.128        0.307        0.104       63.800       17.348        0.074      341.044       15.485      853.649
06/24/2013  04:06:00      -72.667      -70.028       -0.678       48.625       38.223       25.978     2364.361     1461.016      674.877        0.734        0.225      100.918       25.607        0.064      340.937       15.300      853.631
06/24/2013  04:07:00      -84.967     -102.025       -8.259       28.268       23.716       15.824      799.104      562.430      250.405        0.965        0.081      132.772       10.469        0.006      340.883       15.211      853.614
06/24/2013  04:08:00     -106.478     -102.251       -4.256       29.334       43.852       26.330      860.486     1922.987      693.247        1.264        0.174      147.624       20.315        0.019      340.809       15.085      853.614
06/24/2013  04:09:00     -105.947      -90.652        2.706       48.569       37.008       27.424     2358.948     1369.569      752.071        1.196        0.224      139.437       29.057        0.043      340.771       15.023      853.621
06/24/2013  04:10:00     -109.820      -79.953       -8.988       41.979       43.598       28.160     1762.243     1900.820      792.973        1.149        0.223      135.841       16.159        0.014      340.758       15.000      853.622
06/24/2013  04:11:00     -102.118      -43.990       -4.744       47.555       31.611       21.655     2261.498      999.258      468.921        0.806        0.186      111.190       20.912        0.035      340.756       14.999      853.629
06/24/2013  04:12:00      -52.270      -41.413        4.712       42.216       25.361       20.448     1782.179      643.179      418.123        0.366        0.142       66.687       17.646        0.070      340.751       14.989      853.634
06/24/2013  04:13:00      -30.520      -18.518        6.813       24.010       18.875       21.145      576.483      356.264      447.101        0.135        0.069       35.699       17.728        0.247      340.797       15.066      853.635
06/24/2013  04:14:00      -14.975      -22.137       -4.612       12.227       24.221        9.998      149.511      586.666       99.967        0.079        0.042       26.726        7.785        0.085      340.829       15.118      853.627
06/24/2013  04:15:00       -7.582        3.645        8.419       10.234        6.961        6.976      104.729       48.451       48.662        0.017        0.010        8.412        3.449        0.168      340.827       15.115      853.615
06/24/2013  04:16:00       -9.572      -23.923        4.115       11.992       26.841       11.855      143.812      720.446      140.532        0.084        0.050       25.767        8.577        0.111      340.862       15.176      853.611
06/24/2013  04:17:00      -11.916      -76.554      -10.530       22.773       17.702       17.262      518.616      313.345      297.985        0.362        0.056       77.476       12.894        0.028      340.909       15.255      853.613
06/24/2013  04:18:00      -23.682      -53.900       18.702       20.908       19.669       23.665      437.134      386.862      560.037        0.260        0.069       58.873       10.698        0.033      340.887       15.216      853.601
06/24/2013  04:19:00      -50.956      -35.180        8.311       35.107       33.752       20.943     1232.483     1139.199      438.592        0.336        0.141       61.921       17.941        0.084      340.840       15.138      853.600
06/24/2013  04:20:00     -118.974      -81.055        7.376       55.397       42.603       26.314     3068.788     1815.048      692.405        1.318        0.279      143.961       20.909        0.021      340.753       14.992      853.584
06/24/2013  04:21:00     -119.886      -77.350        2.727       68.487       44.486       29.200     4690.521     1979.031      852.652        1.394        0.376      142.673       31.843        0.050      340.642       14.803      853.559
06/24/2013  04:22:00     -104.508      -40.339        2.677       64.982       46.778       24.915     4222.604     2188.217      620.760        0.979        0.352      112.023       25.227        0.051      340.628       14.782      853.548
06/24/2013  04:23:00      -22.548      -25.108        8.130       40.487       20.468       23.413     1639.185      418.953      548.189        0.191        0.130       33.747       20.581        0.372      340.672       14.854      853.544
06/24/2013  04:24:00      -46.416      -17.939        6.860       55.110       19.658       20.107     3037.119      386.446      404.302        0.317        0.191       49.762       24.834        0.249      340.703       14.906      853.523
06/24/2013  04:25:00      -84.680      -27.398       -3.753       40.128       31.241       15.474     1610.258      976.011      239.437        0.538        0.141       89.002       16.749        0.035      340.642       14.803      853.508
06/24/2013  04:26:00      -58.528      -62.113       -5.952       49.365       41.523       25.697     2436.873     1724.129      660.348        0.607        0.241       85.344       28.744        0.113      340.680       14.869      853.506
06/24/2013  04:27:00      -40.970      -42.367       10.141       58.806       43.728       26.825     3458.122     1912.148      719.589        0.483        0.304       58.936       32.089        0.296      340.633       14.790      853.539
06/24/2013  04:28:00      -54.213      -85.055       -4.141       44.550       45.608       19.770     1984.684     2080.079      390.846        0.732        0.223      100.863       17.821        0.031      340.626       14.775      853.569
06/24/2013  04:29:00      -81.124      -70.368       -1.986       45.273       29.829       25.057     2049.613      889.749      627.838        0.755        0.178      107.391       28.188        0.069      340.698       14.900      853.580
06/24/2013  04:30:00      -63.104      -55.887        4.414       57.955       33.649       26.470     3358.750     1132.243      700.682        0.616        0.260       84.294       27.274        0.105      340.720       14.936      853.578
06/24/2013  04:31:00     -124.585      -96.855       -9.570       29.368       37.613       29.331      862.452     1414.756      860.320        1.407        0.157      157.805       24.132        0.023      340.720       14.936      853.603
06/24/2013  04:32:00      -73.970      -84.199        3.544       51.163       37.395       29.748     2617.632     1398.415      884.951        0.874        0.245      112.076       28.870        0.066      340.782       15.039      853.630
06/24/2013  04:33:00     -102.054     -100.813      -14.722       26.096       30.173       16.075      681.010      910.418      258.395        1.132        0.092      143.452       12.310        0.007      340.763       15.008      853.632
06/24/2013  04:34:00      -78.846      -57.915        6.954       68.864       42.627       36.653     4742.234     1817.074     1343.428        0.876        0.395       97.831       42.666        0.190      340.746       14.978      853.624
06/24/2013  04:35:00      -52.405      -98.619       -0.930       42.655       56.069       29.214     1819.479     3143.781      853.452        0.914        0.291      111.678       27.152        0.059      340.736       14.963      853.578
06/24/2013  04:36:00      -64.736      -74.823        2.625       58.439       51.533       23.749     3415.172     2655.649      564.019        0.821        0.332       98.941       30.321        0.094      340.742       14.973      853.541
06/24/2013  04:37:00      -88.274      -72.540       -7.908       32.348       22.217       16.791     1046.425      493.601      281.945        0.747        0.091      114.256        7.381        0.004      340.732       14.956      853.541
06/24/2013  04:38:00      -45.239       -7.727        8.653       24.764       28.345       14.968      613.263      803.462      224.033        0.191        0.082       45.894       15.017        0.107      340.679       14.863      853.525
06/24/2013  04:39:00       -2.747       16.985       12.244       16.532       10.061       11.330      273.311      101.219      128.366        0.047        0.025       17.206       10.478        0.371      340.682       14.874      853.491
06/24/2013  04:40:00      -41.193        9.299       -2.876       17.247        9.799        9.645      297.453       96.030       93.020        0.114        0.024       42.230        8.776        0.043      340.697       14.895      853.488
06/24/2013  04:41:00     -109.565        7.567      -10.838       15.902       13.356       10.290      252.888      178.374      105.887        0.636        0.027      109.826       10.486        0.009      340.726       14.946      853.502
06/24/2013  04:42:00      -73.866        7.751       -6.127       33.531       12.306       10.943     1124.302      151.448      119.757        0.347        0.070       74.272       16.817        0.051      340.698       14.896      853.502
06/24/2013  04:43:00      -29.632       57.892       -3.822       22.520       19.470       15.189      507.165      379.099      230.715        0.268        0.056       65.035       10.523        0.026      340.729       14.951      853.464
06/24/2013  04:44:00       -6.721       90.243       -0.726       26.422       29.564       20.779      698.128      874.053      431.771        0.510        0.100       90.493       16.467        0.033      340.743       14.975      853.435
06/24/2013  04:45:00       64.487       53.993       -1.713       55.965       29.985       25.174     3132.048      899.102      633.747        0.587        0.233       84.106       13.812        0.027      340.671       14.853      853.430
06/24/2013  04:46:00      128.219      106.005       22.512       53.519       30.556       48.932     2864.335      933.693     2394.339        1.719        0.310      166.365       39.871        0.057      340.657       14.829      853.451
06/24/2013  04:47:00       87.105      104.887       74.142       83.482       43.584       49.790     6969.223     1899.545     2479.088        1.771        0.567      136.340       50.115        0.135      340.633       14.787      853.493
06/24/2013  04:48:00       66.663       57.474       60.235       57.363       47.210       40.694     3290.559     2228.780     1656.002        0.927        0.359       88.018       36.173        0.169      340.504       14.571      853.525
06/24/2013  04:49:00       85.075       24.474       42.082       53.838       39.071       39.377     2898.556     1526.562     1550.542        0.779        0.299       88.526       28.076        0.101      340.458       14.491      853.566
06/24/2013  04:50:00       60.473       33.818       32.822       55.065       36.325       28.356     3032.198     1319.489      804.054        0.552        0.258       69.287       21.692        0.098      340.459       14.492      853.590
06/24/2013  04:51:00       87.976       46.358       25.074       39.934       40.390       27.095     1594.724     1631.348      734.143        0.724        0.198       99.443       21.756        0.048      340.426       14.438      853.611
06/24/2013  04:52:00       -1.043       -9.087       -7.359       30.864       29.717       21.854      952.593      883.090      477.605        0.123        0.116        9.146       16.682        3.326      340.434       14.452      853.667
06/24/2013  04:53:00      -49.872       21.000       -7.753       19.305       18.887       16.435      372.664      356.703      270.108        0.199        0.050       54.113       11.656        0.046      340.512       14.585      853.725
06/24/2013  04:54:00     -109.594      -23.911      -15.535       18.755       21.891       14.371      351.739      479.197      206.531        0.693        0.052      112.172        9.455        0.007      340.510       14.578      853.769
06/24/2013  04:55:00      -54.772       15.383       -7.526       22.810       38.771       15.168      520.313     1503.218      230.071        0.277        0.113       56.891       13.774        0.059      340.511       14.582      853.776
06/24/2013  04:56:00      -13.072       80.474       -0.524       19.380       26.513       18.509      375.583      702.938      342.567        0.403        0.071       81.529       12.892        0.025      340.576       14.692      853.742
06/24/2013  04:57:00       25.279       91.444       -5.117       31.899       31.243       22.369     1017.564      976.135      500.390        0.576        0.125       94.874       19.548        0.042      340.555       14.657      853.688
06/24/2013  04:58:00       61.503       56.064        3.139       35.328       33.736       29.594     1248.093     1138.138      875.797        0.510        0.163       83.222       24.339        0.086      340.564       14.671      853.664
06/24/2013  04:59:00      119.464       64.276       -0.387       31.212       25.187       24.958      974.170      634.382      622.885        1.032        0.112      135.657       14.460        0.011      340.581       14.701      853.661
06/24/2013  05:00:00      119.774       69.226        3.592       34.075       29.680       27.450     1161.130      880.927      753.484        1.097        0.140      138.341       22.321        0.026      340.534       14.625      853.674
06/24/2013  05:01:00       57.019       40.986        2.253       41.933       30.521       13.724     1758.341      931.556      188.340        0.391        0.144       70.221        9.229        0.017      340.516       14.592      853.689
06/24/2013  05:02:00       -3.847       19.169       -4.978       11.137       17.810        8.224      124.036      317.181       67.633        0.046        0.025       19.551        7.324        0.140      340.539       14.628      853.701
06/24/2013  05:03:00      -44.791       15.776       -6.917       20.826       12.341        9.585      433.722      152.293       91.882        0.149        0.034       47.488        8.005        0.028      340.611       14.751      853.718
06/24/2013  05:04:00      -47.825       20.412       -9.718       10.444       13.648        8.291      109.074      186.255       68.740        0.158        0.018       51.999        6.876        0.017      340.613       14.754      853.719
06/24/2013  05:05:00      -50.263       64.496      -18.266       15.556       26.747       11.504      241.981      715.379      132.349        0.405        0.054       81.769       11.029        0.018      340.704       14.908      853.704
06/24/2013  05:06:00      -40.022       65.756       -8.608       25.091       36.989       18.155      629.558     1368.158      329.600        0.416        0.116       76.978       19.307        0.063      340.667       14.847      853.685
06/24/2013  05:07:00      -25.980       44.922       -1.405       26.582       22.367       15.615      706.619      500.271      243.815        0.207        0.073       51.894       12.950        0.062      340.716       14.929      853.674
06/24/2013  05:08:00      -29.849       38.831        3.426       29.247       38.806       14.548      855.406     1505.925      211.657        0.249        0.129       48.978       10.060        0.042      340.737       14.964      853.678
06/24/2013  05:09:00      -51.455       14.140       -8.409       16.421       21.435       16.657      269.652      459.466      277.469        0.196        0.050       53.362       10.216        0.037      340.753       14.992      853.689
06/24/2013  05:10:00      -60.292        2.550      -12.928       20.979       11.624       10.822      440.122      135.116      117.107        0.225        0.035       60.346       11.197        0.034      340.742       14.975      853.682
06/24/2013  05:11:00      -48.886       18.788      -10.408       10.814       16.717       13.501      116.946      279.465      182.290        0.171        0.029       52.372        7.642        0.021      340.763       15.007      853.678
06/24/2013  05:12:00      -21.663       24.124        0.422       29.476       15.999       13.105      868.842      255.972      171.745        0.117        0.065       32.423       16.853        0.270      340.776       15.030      853.664
06/24/2013  05:13:00       26.140       28.545       10.475       19.957       13.223       15.448      398.295      174.849      238.637        0.121        0.041       38.706        4.514        0.014      340.793       15.058      853.644
06/24/2013  05:14:00       55.047       39.617       10.257       26.745       19.594       23.258      715.320      383.927      540.939        0.317        0.082       67.821        7.742        0.013      340.762       15.007      853.621
06/24/2013  05:15:00       74.911       59.352       -1.058       29.428       18.763       23.706      865.992      352.047      561.972        0.546        0.089       95.573       15.777        0.027      340.826       15.115      853.617
06/24/2013  05:16:00       58.386       41.349       -4.767       14.087       18.665       15.353      198.437      348.392      235.715        0.296        0.039       71.545        5.237        0.005      340.809       15.085      853.631
06/24/2013  05:17:00       42.538       34.647        1.973       26.156       20.369       19.908      684.151      414.914      396.326        0.225        0.075       54.863       14.912        0.074      340.801       15.072      853.640
06/24/2013  05:18:00       37.841       32.800        3.809       22.441       17.020       20.678      503.587      289.686      427.576        0.187        0.061       50.078       12.985        0.067      340.784       15.043      853.643
06/24/2013  05:19:00       50.167       32.692        4.895       12.926       17.126       12.918      167.076      293.310      166.864        0.212        0.031       59.879       10.271        0.029      340.768       15.016      853.634
06/24/2013  05:20:00       73.388       40.580        6.057       29.496       19.864       17.232      870.017      394.588      296.934        0.432        0.078       83.860       14.363        0.029      340.743       14.973      853.613
06/24/2013  05:21:00      126.278       67.173        3.213       39.998       29.403       22.357     1599.856      864.536      499.822        1.172        0.148      143.032       10.581        0.005      340.672       14.855      853.592
06/24/2013  05:22:00      126.731       63.155        6.875       38.280       36.421       26.953     1465.386     1326.513      726.471        1.181        0.176      141.595       19.706        0.019      340.620       14.767      853.592
06/24/2013  05:23:00      109.002       56.537        2.054       45.065       36.515       24.665     2030.832     1333.350      608.351        0.953        0.199      122.792       19.129        0.024      340.644       14.807      853.602
06/24/2013  05:24:00      115.267       68.940       26.983       28.692       23.941       24.878      823.238      573.163      618.930        1.039        0.101      134.310       18.019        0.018      340.634       14.788      853.622
06/24/2013  05:25:00       64.311       47.398       39.035       28.470       25.215       20.379      810.554      635.821      415.302        0.488        0.093       79.890       13.093        0.027      340.638       14.796      853.647
06/24/2013  05:26:00       73.139       43.698       30.336       51.658       28.601       23.662     2668.499      818.004      559.874        0.611        0.202       85.199       19.277        0.051      340.667       14.845      853.674
06/24/2013  05:27:00       16.572        5.090       29.685       20.843       19.223       15.816      434.412      369.526      250.134        0.112        0.053       17.336       14.570        0.706      340.677       14.863      853.693
06/24/2013  05:28:00       58.875        3.557       18.557       41.762       21.470       16.019     1744.050      460.956      256.606        0.314        0.123       58.982       19.376        0.108      340.655       14.825      853.705
06/24/2013  05:29:00       15.387       -1.820        5.143       24.102       16.558       18.841      580.914      274.168      354.975        0.074        0.061       15.495       18.041        1.356      340.704       14.908      853.722
06/24/2013  05:30:00       14.229       11.180       18.904       15.600       19.406       10.667      243.347      376.579      113.782        0.071        0.037       18.095        9.195        0.258      340.667       14.845      853.737
06/24/2013  05:31:00       26.549       16.442        8.131       40.040       17.007       14.418     1603.189      289.230      207.884        0.157        0.105       31.228        8.107        0.067      340.752       14.990      853.743
06/24/2013  05:32:00       31.499       39.137       16.587       30.620       21.835       14.879      937.567      476.754      221.382        0.222        0.082       50.238        9.713        0.037      340.720       14.934      853.720
06/24/2013  05:33:00       70.064       48.215        6.736       11.142       11.879       11.643      124.148      141.103      135.549        0.384        0.020       85.051        5.016        0.003      340.697       14.896      853.703
06/24/2013  05:34:00       55.197       50.921        3.932       15.735       11.848       16.410      247.584      140.384      269.280        0.316        0.033       75.098        7.887        0.011      340.709       14.918      853.703
06/24/2013  05:35:00       44.760       59.326        4.625       19.761       15.836       20.835      390.509      250.787      434.117        0.331        0.054       74.317       10.210        0.019      340.698       14.901      853.701
06/24/2013  05:36:00       72.181       29.131        7.847       15.417       18.366       15.881      237.669      337.295      252.216        0.347        0.041       77.838        7.263        0.009      340.724       14.943      853.680
06/24/2013  05:37:00       58.768       45.421        3.162       22.483       20.358       18.934      505.494      414.454      358.489        0.340        0.064       74.275       11.800        0.025      340.730       14.951      853.666
06/24/2013  05:38:00       14.518       58.252       -5.131       25.074       30.899       17.828      628.715      954.777      317.827        0.277        0.095       60.033       20.284        0.114      340.794       15.060      853.665
06/24/2013  05:39:00        3.041       78.126      -18.305       20.211       16.089        9.230      408.482      258.859       85.190        0.360        0.038       78.185        8.126        0.011      340.784       15.042      853.674
06/24/2013  05:40:00       17.180      115.072      -20.005       23.314       22.249       12.137      543.524      494.999      147.296        0.756        0.059      116.348       12.995        0.012      340.879       15.203      853.655
06/24/2013  05:41:00       49.796      143.695      -21.670       24.237       34.701       18.993      587.426     1204.150      360.718        1.287        0.108      152.078       17.749        0.014      340.883       15.211      853.615
06/24/2013  05:42:00       43.522      126.352      -21.849       23.308       31.772       20.677      543.283     1009.436      427.545        1.016        0.099      133.638       16.670        0.016      340.842       15.142      853.580
06/24/2013  05:43:00       28.588      117.363      -19.804       30.315       31.700       18.588      919.029     1004.880      345.514        0.863        0.113      120.795       15.848        0.017      340.834       15.128      853.561
06/24/2013  05:44:00      -10.053      101.148      -18.961       35.465       33.789       17.618     1257.760     1141.700      310.402        0.670        0.135      101.646       19.212        0.036      340.915       15.265      853.576
06/24/2013  05:45:00      -56.182       77.121      -21.817       33.125       24.730       14.401     1097.290      611.578      207.378        0.575        0.096       95.415       13.488        0.020      340.978       15.371      853.606
06/24/2013  05:46:00      -48.055       17.855       -6.995       18.262       37.818       18.655      333.506     1430.184      348.010        0.239        0.106       51.265       11.250        0.048      341.138       15.644      853.649
06/24/2013  05:47:00      -48.007      -17.524       -7.987       24.921       36.449       19.344      621.052     1328.536      374.194        0.250        0.116       51.106       13.601        0.071      341.102       15.584      853.686
06/24/2013  05:48:00      -46.396       -6.118       -2.045       34.951       53.726       23.664     1221.584     2886.491      559.965        0.343        0.233       46.798       16.466        0.124      341.079       15.544      853.697
06/24/2013  05:49:00      -77.978       27.524       -6.303       40.373       41.396       24.221     1630.007     1713.605      586.658        0.540        0.197       82.693       25.585        0.096      341.212       15.768      853.688
06/24/2013  05:50:00      -74.009        2.724       -6.736       22.996       36.507       21.294      528.824     1332.746      453.455        0.392        0.116       74.059       14.332        0.037      341.295       15.908      853.690
06/24/2013  05:51:00      -63.225        2.877      -13.745       38.529       29.396       21.631     1484.509      864.130      467.922        0.351        0.141       63.290       17.748        0.079      341.401       16.088      853.687
06/24/2013  05:52:00      -15.903      -19.229        7.210       24.803       17.543       13.634      615.185      307.757      185.884        0.089        0.055       24.953       14.310        0.329      341.174       15.705      853.679
06/24/2013  05:53:00       -2.954      -18.618       -1.237       29.673       18.413       14.301      880.470      339.043      204.517        0.089        0.071       18.851        7.220        0.147      341.132       15.632      853.672
06/24/2013  05:54:00       16.338      -25.502       17.455       25.421       15.693       15.213      646.204      246.273      231.425        0.117        0.056       30.287       11.200        0.137      341.122       15.617      853.680
06/24/2013  05:55:00       11.666      -12.200       15.444       21.654       27.050       15.618      468.908      731.679      243.926        0.098        0.072       16.880       13.235        0.615      341.092       15.565      853.681
06/24/2013  05:56:00       30.134      -48.927       -7.968       29.322       31.945       21.832      859.796     1020.465      476.644        0.286        0.118       57.463       19.450        0.115      340.834       15.130      853.659
06/24/2013  05:57:00        4.733       31.616       31.680       21.283       24.233       24.281      452.950      587.222      589.591        0.183        0.081       31.968       12.140        0.144      340.915       15.267      853.636
06/24/2013  05:58:00       11.766       31.396       38.205       26.805       25.783       24.208      718.535      664.747      586.015        0.228        0.098       33.528       10.150        0.092      340.915       15.265      853.628
06/24/2013  05:59:00      -10.521      -24.048       15.546       23.457       27.814       18.864      550.223      773.632      355.842        0.130        0.084       26.249       13.220        0.254      340.930       15.292      853.638
06/24/2013  06:00:00        7.789      -10.445       12.261       11.088       14.728       10.310      122.939      216.921      106.297        0.038        0.022       13.030        7.034        0.291      340.918       15.270      853.655
06/24/2013  06:01:00       12.647       12.813       18.757       22.825       27.344       12.069      520.960      747.683      145.661        0.104        0.071       18.003       10.699        0.353      340.893       15.227      853.655
06/24/2013  06:02:00       34.725       21.533        8.414       27.348       15.125       18.875      747.892      228.776      356.252        0.154        0.067       40.860       17.078        0.175      340.896       15.234      853.652
06/24/2013  06:03:00       39.290       22.751       15.280       25.803       15.235       14.522      665.796      232.103      210.888        0.170        0.055       45.402       15.102        0.111      340.896       15.231      853.643
06/24/2013  06:04:00       38.640       19.792       23.080       16.395       13.060       13.799      268.794      170.554      190.401        0.152        0.031       43.414        6.707        0.024      340.856       15.166      853.635
06/24/2013  06:05:00       30.735       14.496       13.500       21.182       14.214       11.087      448.672      202.047      122.914        0.106        0.039       33.982        6.064        0.032      340.814       15.094      853.635
06/24/2013  06:06:00       -1.191      -46.138       -9.768       22.183       35.179       18.802      492.083     1237.546      353.516        0.215        0.104       46.153       17.761        0.148      340.712       14.921      853.650
06/24/2013  06:07:00        6.345      -51.200       -8.655       24.498       23.756       21.368      600.134      564.348      456.612        0.218        0.081       51.592       10.466        0.041      340.728       14.950      853.647
06/24/2013  06:08:00       39.365      -13.923       -4.761       28.204       44.617       23.522      795.490     1990.667      553.303        0.255        0.167       41.754       23.476        0.316      340.746       14.980      853.631
06/24/2013  06:09:00       48.874       43.347       23.721       22.193       15.187       20.863      492.514      230.638      435.260        0.299        0.058       65.327       12.038        0.034      340.839       15.135      853.616
06/24/2013  06:10:00       29.625       22.730       21.267       31.622       21.338       18.562      999.952      455.311      344.565        0.182        0.090       37.340       13.830        0.137      340.889       15.222      853.620
06/24/2013  06:11:00      -11.597       -1.355       31.363       10.798       25.088       13.458      116.600      629.415      181.116        0.102        0.046       11.676       14.616        1.567      340.931       15.292      853.634
06/24/2013  06:12:00      -20.698       -4.447        4.503       19.488       15.514       14.667      379.790      240.684      215.115        0.065        0.042       21.171        9.354        0.195      340.940       15.305      853.641
06/24/2013  06:13:00      -17.193      -10.661       -3.468       13.304       16.000       11.912      176.987      255.990      141.896        0.050        0.029       20.230        7.416        0.134      340.957       15.335      853.656
06/24/2013  06:14:00       17.774      -13.828      -11.351       17.650       16.064       16.033      311.518      258.060      257.051        0.073        0.041       22.519       12.405        0.303      341.035       15.468      853.667
06/24/2013  06:15:00       18.625       -2.070        1.842       10.639       15.556       16.176      113.194      241.979      261.663        0.049        0.031       18.740        4.131        0.049      341.159       15.679      853.675
06/24/2013  06:16:00       14.649       14.495       18.782       12.771       14.031       12.315      163.109      196.882      151.661        0.064        0.026       20.608        8.363        0.165      341.012       15.430      853.668
06/24/2013  06:17:00       -4.151      -15.720       31.750       27.864       45.321       27.547      776.377     2054.010      758.810        0.243        0.179       16.259       18.527        1.298      340.993       15.397      853.652
06/24/2013  06:18:00       29.801      -75.360       22.065       38.421       58.031       38.724     1476.184     3367.573     1499.560        0.670        0.317       81.038       32.704        0.163      340.894       15.230      853.634
06/24/2013  06:19:00       83.388     -107.813       -6.137       42.257       50.456       39.197     1785.679     2545.850     1536.379        1.224        0.293      136.298       32.754        0.058      340.701       14.905      853.606
06/24/2013  06:20:00       74.000      -77.074        0.902       62.238       59.484       50.452     3873.532     3538.353     2545.378        1.069        0.498      106.848       40.455        0.143      340.748       14.982      853.599
06/24/2013  06:21:00      111.443      -91.495       -0.538       64.314       70.105       54.363     4136.302     4914.667     2955.379        1.640        0.600      144.190       47.261        0.107      340.900       15.240      853.611
06/24/2013  06:22:00      102.665     -121.538      -20.189       59.139       67.898       39.669     3497.418     4610.145     1573.627        1.770        0.484      159.096       31.213        0.038      340.999       15.406      853.628
06/24/2013  06:23:00       89.957     -154.299      -19.655       41.980       32.842       24.445     1762.360     1078.572      597.541        1.786        0.172      178.607       22.413        0.016      341.009       15.423      853.645
06/24/2013  06:24:00       92.613     -128.705      -23.649       34.561       44.557       16.444     1194.431     1985.350      270.421        1.458        0.173      158.563       12.112        0.006      340.897       15.236      853.638
06/24/2013  06:25:00       51.541      -65.735        9.894       38.948       32.979       22.339     1516.927     1087.640      499.032        0.509        0.155       83.532       22.279        0.071      340.971       15.361      853.645
06/24/2013  06:26:00      -51.518      -18.581       11.704       29.290       15.203       17.665      857.914      231.137      312.037        0.227        0.070       54.767       16.082        0.086      341.095       15.571      853.654
06/24/2013  06:27:00      -20.131       -3.546        8.187       29.405       15.959       16.008      864.683      254.694      256.257        0.093        0.069       20.441       16.937        0.687      341.034       15.467      853.648
06/24/2013  06:28:00       44.410       31.446       17.248       24.252       15.376       17.425      588.159      236.420      303.640        0.219        0.056       54.416        3.566        0.004      340.900       15.242      853.636
06/24/2013  06:29:00       50.752       29.774       15.787       17.719       13.335       14.134      313.953      177.827      199.776        0.220        0.035       58.841        7.021        0.014      340.930       15.290      853.633
06/24/2013  06:30:00       19.602       22.488       11.954       31.766       17.564       21.600     1009.078      308.502      466.555        0.141        0.089       29.832       18.481        0.384      340.846       15.149      853.636
06/24/2013  06:31:00       -1.367       19.951       -1.597       11.791       14.882       13.378      139.030      221.467      178.981        0.047        0.027       19.997        5.979        0.089      340.845       15.145      853.649
06/24/2013  06:32:00        7.367       35.352       -6.199       16.002       18.597       13.218      256.063      345.843      174.721        0.106        0.039       36.112        5.589        0.024      340.791       15.055      853.669
06/24/2013  06:33:00        8.726        9.377       -0.880       15.709       15.891       11.402      246.762      252.529      130.012        0.040        0.031       12.809        9.471        0.547      340.852       15.159      853.694
06/24/2013  06:34:00       14.091       53.443       -2.708       17.049       26.801       10.935      290.678      718.290      119.582        0.210        0.056       55.270       12.191        0.049      340.990       15.392      853.707
06/24/2013  06:35:00        6.043       78.300      -13.776       10.172       19.935        8.005      103.466      397.403       64.085        0.346        0.028       78.533        8.494        0.012      340.932       15.296      853.696
06/24/2013  06:36:00       46.021       90.681       -8.325       24.946       36.123       27.930      622.302     1304.852      780.062        0.656        0.135      101.691       22.120        0.047      340.899       15.241      853.655
06/24/2013  06:37:00       79.891       63.106        5.321       47.978       33.032       29.518     2301.896     1091.125      871.303        0.733        0.213      101.808       12.345        0.015      340.888       15.219      853.613
06/24/2013  06:38:00      125.414       66.082       14.885       34.307       27.355       29.275     1176.975      748.301      857.023        1.155        0.139      141.759       22.421        0.025      340.886       15.215      853.613
06/24/2013  06:39:00       97.346       86.094       53.801       40.524       33.690       37.107     1642.168     1135.047     1376.954        1.197        0.208      129.955       31.183        0.058      340.878       15.202      853.619
06/24/2013  06:40:00       81.724       84.166       57.350       56.177       54.293       41.720     3155.904     2947.738     1740.524        1.245        0.392      117.314       36.582        0.097      340.783       15.042      853.602
06/24/2013  06:41:00       83.474       80.311       80.549       49.018       47.477       36.639     2402.782     2254.106     1342.394        1.295        0.300      115.836       30.786        0.071      340.840       15.137      853.593
06/24/2013  06:42:00       42.209      -13.261       30.722       43.139       42.768       31.466     1860.957     1829.073      990.110        0.379        0.234       44.244       17.622        0.159      340.878       15.201      853.585
06/24/2013  06:43:00       39.756        9.157       23.594       31.285       30.606       24.548      978.727      936.746      602.582        0.237        0.126       40.797       17.940        0.193      340.853       15.161      853.580
06/24/2013  06:44:00       11.727      -58.830        8.636       31.446       25.313       27.025      988.863      640.724      730.325        0.302        0.118       59.987       19.833        0.109      340.930       15.290      853.573
06/24/2013  06:45:00       90.478      -40.880       32.442       62.544       60.337       41.005     3911.777     3640.503     1681.421        1.007        0.462       99.285       44.642        0.202      340.874       15.195      853.584
06/24/2013  06:46:00       63.584      -34.832       23.280       27.657       51.418       31.090      764.885     2643.809      966.564        0.509        0.219       72.500       34.093        0.221      340.903       15.244      853.602
06/24/2013  06:47:00       13.415        2.118       -6.997       46.371       30.399       29.768     2150.283      924.092      886.123        0.210        0.198       13.581       28.919        4.534      340.870       15.188      853.598
06/24/2013  06:48:00       43.948       19.798       -8.810       29.745       30.549       14.904      884.769      933.245      222.123        0.222        0.102       48.202       11.420        0.056      340.804       15.077      853.585
06/24/2013  06:49:00      -35.405      -35.267      -16.150       26.523       16.105       19.959      703.489      259.360      398.366        0.206        0.068       49.973       12.488        0.062      340.889       15.223      853.581
06/24/2013  06:50:00     -100.705      -24.041      -11.795       17.316       15.485       13.392      299.851      239.775      179.357        0.579        0.036      103.535        6.411        0.004      341.004       15.417      853.580
06/24/2013  06:51:00      -83.730      -23.808      -12.654       15.350       18.106       11.094      235.614      327.828      123.080        0.421        0.034       87.049        5.722        0.004      340.989       15.392      853.569
06/24/2013  06:52:00      -44.345      -41.770       -2.609       34.857       23.909       18.130     1215.032      571.634      328.698        0.292        0.106       60.920       13.445        0.049      341.042       15.479      853.544
06/24/2013  06:53:00      -87.119      -72.790       -6.824       33.347       23.732       20.704     1112.014      563.188      428.673        0.752        0.105      113.526       19.351        0.029      340.936       15.300      853.532
06/24/2013  06:54:00      -89.463      -23.199       -8.901       15.978       16.354       12.351      255.289      267.441      152.548        0.465        0.034       92.422        8.585        0.009      340.951       15.327      853.530
06/24/2013  06:55:00      -92.215      -39.119      -10.629       10.564       11.710       12.028      111.593      137.127      144.664        0.527        0.020      100.169        7.636        0.006      340.983       15.382      853.535
06/24/2013  06:56:00     -108.264      -69.089       -9.329       18.117       29.612       13.254      328.215      876.863      175.656        0.898        0.069      128.431        9.553        0.006      340.992       15.396      853.554
06/24/2013  06:57:00     -111.989      -49.924       -7.593       23.056       25.982       18.039      531.556      675.053      325.402        0.831        0.077      122.613       15.157        0.015      341.065       15.519      853.576
06/24/2013  06:58:00     -131.420      -50.129      -10.348       25.555       22.813       14.318      653.082      520.411      204.996        1.063        0.069      140.656       12.109        0.007      341.072       15.532      853.591
06/24/2013  06:59:00      -57.121      -14.474        0.311       40.826       39.661       19.640     1666.735     1572.981      385.729        0.355        0.181       58.926       15.597        0.070      341.176       15.707      853.598
06/24/2013  07:00:00      -46.592       -1.340        9.889       48.119       21.767       23.888     2315.400      473.811      570.615        0.281        0.168       46.612       27.247        0.342      341.189       15.729      853.593
06/24/2013  07:01:00      -25.959       27.944        3.186       21.754       46.432       21.928      473.236     2155.891      480.836        0.229        0.155       38.141       25.466        0.446      341.133       15.635      853.585
06/24/2013  07:02:00      -51.654       86.148      -13.611       22.151       25.031       16.906      490.672      626.575      285.817        0.584        0.070      100.447        8.686        0.007      341.090       15.565      853.567
06/24/2013  07:03:00       -1.786       70.828      -10.563       31.805       24.263       14.607     1011.558      588.682      213.376        0.347        0.091       70.851       10.457        0.022      341.165       15.690      853.542
06/24/2013  07:04:00       39.232       50.929      -15.695       19.409       39.929       17.865      376.720     1594.310      319.141        0.333        0.115       64.287       17.060        0.070      341.089       15.560      853.505
06/24/2013  07:05:00       64.937       25.695       -2.535       32.842       19.881       21.910     1078.614      395.264      480.032        0.342        0.098       69.836       18.185        0.068      341.164       15.688      853.509
06/24/2013  07:06:00       16.168       13.745        7.530       23.201       20.670       13.159      538.290      427.235      173.161        0.082        0.057       21.221       13.080        0.380      341.155       15.673      853.530
06/24/2013  07:07:00      -14.770       -8.320       33.783       18.239       29.783       18.471      332.650      887.049      341.175        0.149        0.078       16.952       18.695        1.216      341.276       15.877      853.548
06/24/2013  07:08:00       26.985      -33.374       15.540       44.905       41.497       31.250     2016.473     1722.030      976.577        0.340        0.236       42.918       32.521        0.574      341.152       15.668      853.565
06/24/2013  07:09:00       40.373      -40.461       13.604       47.269       53.242       45.745     2234.336     2834.744     2092.615        0.531        0.358       57.159       32.059        0.315      341.040       15.477      853.570
06/24/2013  07:10:00       80.946      -75.861       15.320       52.873       61.524       47.899     2795.599     3785.149     2294.272        1.071        0.444      110.937       48.683        0.193      340.944       15.314      853.570
06/24/2013  07:11:00       23.094      -40.303       15.086       35.823       44.569       37.582     1283.257     1986.396     1412.402        0.353        0.234       46.450       29.903        0.414      340.831       15.122      853.564
06/24/2013  07:12:00       47.741       41.464       34.294       41.555       34.002       31.428     1726.793     1156.105      987.722        0.452        0.194       63.234       22.238        0.124      341.013       15.431      853.545
06/24/2013  07:13:00       52.933       27.846        7.416       31.157       29.772       26.185      970.729      886.389      685.654        0.309        0.127       59.810       13.489        0.051      341.056       15.506      853.503
06/24/2013  07:14:00       85.377       74.831       16.506       40.836       26.871       24.152     1667.560      722.077      583.315        0.807        0.149      113.529       12.703        0.013      341.007       15.422      853.458
06/24/2013  07:15:00       26.435       35.922      -13.603       25.286       26.696       14.827      639.400      712.680      219.840        0.187        0.079       44.601       11.485        0.066      341.045       15.487      853.462
06/24/2013  07:16:00       15.462        8.478      -11.199       13.325       17.838       12.292      177.550      318.187      151.093        0.054        0.032       17.633       11.454        0.422      341.040       15.481      853.498
06/24/2013  07:17:00       15.618       15.019        2.550       13.483       14.102       10.780      181.780      198.860      116.199        0.049        0.025       21.668        8.292        0.146      341.062       15.516      853.541
06/24/2013  07:18:00       28.263       30.459       -2.584       13.864       11.094       14.440      192.209      123.068      208.518        0.113        0.026       41.551        9.016        0.047      340.998       15.406      853.589
06/24/2013  07:19:00       38.100       38.652       30.140       17.369       13.949       12.258      301.690      194.587      150.260        0.225        0.032       54.274        4.903        0.008      341.025       15.451      853.624
06/24/2013  07:20:00       26.089      -40.587        9.272       44.195       64.894       32.579     1953.193     4211.228     1061.398        0.482        0.361       48.249       41.846        0.752      341.061       15.513      853.650
06/24/2013  07:21:00       80.785     -138.940      -21.751       33.647       39.812       27.959     1132.110     1585.026      781.696        1.490        0.175      160.719       20.522        0.016      341.151       15.666      853.693
06/24/2013  07:22:00       25.135      -37.852        0.532       45.004       58.153       39.022     2025.354     3381.726     1522.694        0.450        0.346       45.437       23.789        0.274      341.200       15.748      853.709
06/24/2013  07:23:00       33.649      -61.847       11.955       33.153       32.391       27.299     1099.149     1049.150      745.253        0.400        0.145       70.408       19.968        0.080      341.173       15.704      853.718
06/24/2013  07:24:00       15.200      -10.485       26.249       21.362       42.098       24.071      456.341     1772.201      579.414        0.192        0.140       18.465       23.156        1.573      341.226       15.791      853.728
06/24/2013  07:25:00       25.842       22.987       51.730       33.542       38.858       23.534     1125.078     1509.947      553.834        0.353        0.159       34.586       22.576        0.426      341.178       15.709      853.728
06/24/2013  07:26:00        3.329       74.928       96.243       38.536       40.260       31.921     1485.037     1620.868     1018.951        0.951        0.206       75.002       31.088        0.172      341.174       15.703      853.705
06/24/2013  07:27:00       20.879       42.499       27.681       35.733       25.787       27.368     1276.837      664.953      748.997        0.285        0.135       47.351       14.060        0.088      341.199       15.749      853.677
06/24/2013  07:28:00      -48.180       68.135      -14.099       28.089       31.207       19.783      789.002      973.876      391.379        0.466        0.108       83.449       14.702        0.031      341.207       15.761      853.678
06/24/2013  07:29:00      -82.460       19.058       -7.261       36.864       43.184       21.387     1358.975     1864.846      457.396        0.545        0.184       84.634       18.762        0.049      341.291       15.902      853.654
06/24/2013  07:30:00     -134.000      -27.839       -4.054       35.718       46.826       17.476     1275.745     2192.706      305.418        1.126        0.189      136.861       13.560        0.010      341.226       15.793      853.614
06/24/2013  07:31:00     -108.534       44.126      -17.807       39.376       29.001       17.794     1550.485      841.063      316.639        0.838        0.135      117.161        9.483        0.007      341.221       15.784      853.612
06/24/2013  07:32:00      -91.355        8.103      -10.004       29.528       29.017       12.499      871.893      841.996      156.235        0.519        0.094       91.713       13.201        0.021      341.239       15.812      853.629
06/24/2013  07:33:00     -102.562      -24.133       -8.733       25.483       30.994       15.818      649.387      960.615      250.201        0.652        0.093      105.363       10.892        0.011      341.260       15.848      853.658
06/24/2013  07:34:00     -114.912      -62.739       -4.897       44.986       25.884       19.303     2023.713      670.000      372.604        1.011        0.153      130.923       19.489        0.022      341.256       15.843      853.667
06/24/2013  07:35:00      -68.354      -31.643       10.536       75.433       57.369       35.219     5690.111     3291.162     1240.374        0.800        0.511       75.323       25.412        0.114      341.430       16.137      853.651
06/24/2013  07:36:00     -144.782     -101.364        1.136       77.631       97.085       45.571     6026.588     9425.471     2076.745        2.438        0.876      176.739       36.762        0.043      341.467       16.199      853.673
06/24/2013  07:37:00     -323.189     -104.777      -36.457       93.281       91.170       59.041     8701.281     8311.910     3485.819        6.862        1.025      339.749       54.551        0.026      341.517       16.280      853.677
06/24/2013  07:38:00     -209.145      -32.307      -10.345       91.840       66.482       45.221     8434.511     4419.901     2044.931        2.989        0.745      211.625       38.635        0.033      341.548       16.333      853.677
06/24/2013  07:39:00     -125.224      -32.029        6.123       94.461       46.606       35.957     8922.960     2172.091     1292.874        1.456        0.619      129.256       48.855        0.143      341.577       16.384      853.694
06/24/2013  07:40:00     -122.859      -67.254       -1.390       55.262       41.243       38.060     3053.911     1701.013     1448.560        1.291        0.310      140.063       31.995        0.052      341.580       16.391      853.700
06/24/2013  07:41:00     -122.310      -61.183       -3.044       52.444       46.299       22.144     2750.421     2143.579      490.364        1.205        0.269      136.759       26.260        0.037      341.584       16.398      853.699
06/24/2013  07:42:00      -64.601      -55.982        6.110       57.302       42.947       31.838     3283.505     1844.479     1013.654        0.674        0.307       85.482       30.448        0.127      341.666       16.539      853.700
06/24/2013  07:43:00      -85.750      -32.734        6.862       62.961       45.040       35.482     3964.121     2028.594     1258.948        0.786        0.363       91.786       33.200        0.131      341.649       16.509      853.722
06/24/2013  07:44:00        2.262      -14.188       31.676       39.930       27.484       29.952     1594.402      755.394      897.124        0.223        0.162       14.367       28.444        3.919      341.722       16.632      853.728
06/24/2013  07:45:00      -50.394      -11.195       10.153       52.422       41.994       26.065     2748.052     1763.494      679.363        0.398        0.260       51.623       27.025        0.274      341.675       16.554      853.714
06/24/2013  07:46:00      -89.299      -30.515       15.041       83.309       50.822       39.789     6940.450     2582.920     1583.149        1.012        0.555       94.369       43.264        0.210      341.621       16.459      853.717
06/24/2013  07:47:00      -51.235      -36.329       17.897       67.646       47.198       30.175     4575.940     2227.619      910.553        0.599        0.386       62.808       22.803        0.132      341.669       16.542      853.712
06/24/2013  07:48:00      -93.698      -73.935       -1.324       57.164       52.289       24.742     3267.700     2734.158      612.173        1.043        0.331      119.355       23.889        0.040      341.654       16.519      853.724
06/24/2013  07:49:00     -166.200      -80.036        7.329       95.669       55.772       46.154     9152.567     3110.520     2130.193        2.423        0.720      184.467       48.894        0.070      341.654       16.512      853.747
06/24/2013  07:50:00     -106.762     -139.399       -5.291       61.610       44.004       31.158     3795.826     1936.367      970.810        1.878        0.335      175.586       28.875        0.027      341.683       16.564      853.754
06/24/2013  07:51:00     -135.171      -87.024       -0.267       91.684       67.940       40.405     8405.895     4615.837     1632.525        2.025        0.733      160.762       42.953        0.071      341.706       16.603      853.769
06/24/2013  07:52:00     -123.467     -136.535       -9.504       87.559       84.647       60.160     7666.596     7165.131     3619.265        2.621        0.923      184.082       54.702        0.088      341.702       16.599      853.768
06/24/2013  07:53:00     -231.370     -144.581       -3.277      115.805       91.258       50.303    13410.737     8327.955     2530.345        4.935        1.213      272.829       42.370        0.024      341.697       16.587      853.769
06/24/2013  07:54:00     -229.553     -135.464       -2.064       89.591       78.855       46.932     8026.626     6218.043     2202.658        4.375        0.822      266.543       44.484        0.028      341.711       16.611      853.799
06/24/2013  07:55:00     -214.903     -175.663       -0.651      128.990       97.512       55.793    16638.411     9508.518     3112.849        5.314        1.463      277.563       62.238        0.050      341.735       16.651      853.824
06/24/2013  07:56:00     -146.057      -83.782        0.770       87.213      116.143       44.989     7606.116    13489.109     2024.005        2.573        1.156      168.381       42.996        0.065      341.730       16.643      853.822
06/24/2013  07:57:00     -152.991      -56.269        7.195      126.788       79.330       53.608    16075.216     6293.325     2873.776        2.593        1.262      163.011       71.679        0.193      341.771       16.714      853.787
06/24/2013  07:58:00     -142.315       -0.310        2.874       98.914       55.441       41.766     9784.038     3073.696     1744.359        1.743        0.730      142.315       52.000        0.134      341.769       16.710      853.784
06/24/2013  07:59:00     -192.947      -47.260       -6.427       81.128       86.760       42.223     6581.784     7527.254     1782.806        2.769        0.795      198.651       43.271        0.047      341.765       16.703      853.791
06/24/2013  08:00:00     -255.314      -14.256       -9.441      103.380       72.440       50.819    10687.409     5247.545     2582.567        4.199        0.926      255.712       47.423        0.034      341.760       16.693      853.797
06/24/2013  08:01:00     -140.964      -60.325        6.142      116.840       92.020       54.909    13651.510     8467.699     3015.036        2.434        1.257      153.330       53.004        0.119      341.789       16.744      853.818
06/24/2013  08:02:00     -312.137     -124.700      -11.549      141.166      105.497       56.144    19927.820    11129.679     3152.171        7.365        1.710      336.125       60.585        0.032      341.791       16.745      853.861
06/24/2013  08:03:00     -259.972     -132.662       -5.737      138.506      135.986       62.486    19183.831    18492.124     3904.502        6.339        2.079      291.864       49.668        0.029      341.853       16.851      853.923
06/24/2013  08:04:00     -313.415     -150.141       -1.095       85.512       86.127       42.782     7312.247     7417.860     1830.341        6.866        0.828      347.521       43.627        0.016      341.822       16.797      853.946
06/24/2013  08:05:00     -128.437      -59.663       -0.166      104.218       53.884       39.623    10861.432     2903.458     1570.004        1.769        0.767      141.619       52.023        0.135      341.889       16.914      853.969
06/24/2013  08:06:00     -123.858     -127.591       -0.005       67.892       76.438       44.106     4609.375     5842.811     1945.353        2.201        0.620      177.821       32.015        0.032      341.901       16.932      853.973
06/24/2013  08:07:00     -105.392      -48.045       -1.931      126.738       73.360       53.668    16062.545     5381.629     2880.290        1.887        1.216      115.827       58.646        0.256      341.944       17.007      853.962
06/24/2013  08:08:00      -83.447      -97.234       23.058      137.861      105.688       63.976    19005.557    11170.007     4092.916        2.560        1.713      128.133       62.072        0.235      341.868       16.877      853.964
06/24/2013  08:09:00     -225.820     -112.062       -8.926       98.805       65.470       44.195     9762.418     4286.304     1953.235        3.981        0.800      252.096       49.943        0.039      341.789       16.741      853.956
06/24/2013  08:10:00     -124.541      -34.470        6.313       98.495       67.306       38.987     9701.357     4530.099     1519.951        1.624        0.788      129.223       44.867        0.121      341.878       16.895      853.978
06/24/2013  08:11:00     -339.614        7.682      -23.959      122.278      104.097       55.519    14951.938    10836.143     3082.355        7.242        1.444      339.701       51.625        0.023      341.810       16.776      853.978
06/24/2013  08:12:00     -466.796      -78.121      -23.268      154.783      111.353       76.631    23957.627    12399.493     5872.280       13.338        2.111      473.288       79.938        0.029      341.695       16.583      853.998
06/24/2013  08:13:00     -414.518     -120.828      -22.343      188.233      141.369       68.932    35431.673    19985.199     4751.583       12.353        3.008      431.769       85.684        0.039      341.726       16.636      854.036
06/24/2013  08:14:00     -268.526      -69.723       -8.063      128.632      140.983       68.216    16546.288    19876.182     4653.369        5.905        2.054      277.430       67.829        0.060      341.769       16.709      854.041
06/24/2013  08:15:00     -156.913      -77.862       -2.263      151.941      100.539       69.732    23086.203    10108.070     4862.589        3.437        1.903      175.169       72.352        0.171      341.751       16.679      854.041
06/24/2013  08:16:00     -229.889      -75.860      -21.011      129.469      104.771       55.138    16762.113    10976.939     3040.177        4.491        1.539      242.082       58.343        0.058      341.763       16.698      854.074
06/24/2013  08:17:00     -426.425      -95.358       -1.669      183.151      158.771       95.337    33544.334    25208.307     9089.127       12.937        3.392      436.957       92.593        0.045      341.727       16.636      854.098
06/24/2013  08:18:00     -272.489     -147.908       -4.987      139.676      126.113       79.614    19509.375    15904.483     6338.321        6.894        2.088      310.044       75.771        0.060      341.729       16.641      854.105
06/24/2013  08:19:00     -496.641      -84.633      -34.774      176.615      195.470       93.921    31192.892    38208.396     8821.168       16.661        3.911      503.800       89.304        0.031      341.634       16.480      854.119
06/24/2013  08:20:00     -323.792      -54.396       -7.002      174.025      130.042       72.207    30284.840    16910.961     5213.825        8.012        2.620      328.329       77.131        0.055      341.689       16.573      854.095
06/24/2013  08:21:00     -547.711      -77.819      -22.245      209.314      162.537       97.444    43812.549    26418.395     9495.294       19.312        3.986      553.211      107.853        0.038      341.592       16.407      854.071
06/24/2013  08:22:00     -459.437      -98.194      -11.770      155.084      137.127       85.750    24051.169    18803.864     7353.050       13.553        2.510      469.813       77.448        0.027      341.561       16.355      854.045
06/24/2013  08:23:00     -327.941      -39.783       -4.294      155.436      130.694       77.986    24160.419    17080.882     6081.781        7.823        2.366      330.345       87.547        0.070      341.614       16.447      854.058
06/24/2013  08:24:00     -222.703     -141.208        7.399      149.052      129.752       72.490    22216.566    16835.462     5254.728        5.694        2.215      263.697       82.267        0.097      341.514       16.277      854.043
06/24/2013  08:25:00     -281.578      -43.155      -29.772      123.958       97.336       52.294    15365.672     9474.291     2734.712        5.480        1.379      284.866       66.194        0.054      341.431       16.136      854.022
06/24/2013  08:26:00     -131.538      -48.663      -10.182       99.487       61.028       49.306     9897.605     3724.429     2431.040        1.791        0.803      140.251       57.043        0.165      341.464       16.193      853.970
06/24/2013  08:27:00     -266.970      -28.372       -8.010      136.527      108.832       54.009    18639.628    11844.450     2916.927        5.277        1.670      268.474       50.070        0.035      341.560       16.353      854.003
06/24/2013  08:28:00     -313.207     -248.724       -6.140      250.900      203.183      116.402    62950.786    41283.195    13549.457       13.887        5.889      399.953      131.500        0.108      341.574       16.377      854.006
06/24/2013  08:29:00     -267.039     -107.820       18.960      223.302      153.073      100.299    49863.642    23431.399    10059.837        8.331        4.168      287.984      111.614        0.150      341.591       16.406      854.087
06/24/2013  08:30:00     -299.243      -94.835        2.944      209.568      154.753       94.361    43918.888    23948.607     8903.930        8.765        3.839      313.911      107.238        0.117      341.553       16.343      854.168
06/24/2013  08:31:00     -293.578     -169.260       -8.584      207.002      140.279       82.551    42849.699    19678.327     6814.711        9.211        3.467      338.876       84.477        0.062      341.449       16.165      854.222
06/24/2013  08:32:00     -303.870       -0.646      -10.284      200.657      115.334       74.122    40263.100    13301.947     5494.044        7.574        2.953      303.871       80.612        0.070      341.484       16.225      854.253
06/24/2013  08:33:00     -444.650     -104.669      -23.819      162.029      163.624       81.864    26253.494    26772.931     6701.759       13.447        2.986      456.803       85.319        0.035      341.416       16.111      854.250
06/24/2013  08:34:00     -511.184     -230.118      -27.982      208.052      217.705      102.611    43285.432    47395.454    10529.082       20.811        5.060      560.592      107.016        0.036      341.346       15.992      854.265
06/24/2013  08:35:00     -368.689     -334.958      -23.538      186.031      147.473       82.257    34607.430    21748.312     6766.254       15.589        3.156      498.125       88.596        0.032      341.318       15.943      854.278
06/24/2013  08:36:00     -361.708     -233.113       -6.328      194.103      147.455       80.131    37675.797    21742.840     6421.005       12.551        3.292      430.319       76.220        0.031      341.320       15.949      854.287
06/24/2013  08:37:00     -476.344     -124.933       -9.919      191.913      142.049       86.505    36830.427    20177.983     7483.108       15.354        3.225      492.455       89.666        0.033      341.348       15.995      854.257
06/24/2013  08:38:00     -404.897     -268.831      -32.231      203.409      175.693      102.895    41375.346    30867.906    10587.305       16.002        4.142      486.016       91.118        0.035      341.332       15.968      854.202
06/24/2013  08:39:00     -363.877     -169.334       -2.247      218.318      187.471       98.170    47662.944    35145.390     9637.317       12.675        4.622      401.348       95.975        0.057      341.377       16.044      854.233
06/24/2013  08:40:00     -415.815     -164.996       -3.133      209.642      199.278       95.026    43949.609    39711.656     9029.848       14.640        4.635      447.354       98.993        0.049      341.360       16.015      854.235
06/24/2013  08:41:00     -391.915     -180.311      -20.732      288.839      189.803       86.238    83427.940    36025.288     7436.915       15.669        6.345      431.404      123.116        0.081      341.336       15.975      854.200
06/24/2013  08:42:00     -370.783     -115.842       -5.386      164.283      135.967       81.612    26988.806    18486.922     6660.494       10.152        2.607      388.458       89.540        0.053      341.367       16.027      854.128
06/24/2013  08:43:00     -320.460     -209.011        1.661      219.501      188.805       95.470    48180.776    35647.187     9114.583       11.964        4.647      382.596       95.389        0.062      341.366       16.026      854.116
06/24/2013  08:44:00     -528.029     -251.588      -31.322      185.734      147.998       76.828    34497.282    21903.534     5902.487       20.269        3.115      584.903       65.092        0.012      341.306       15.924      854.117
06/24/2013  08:45:00     -232.367      -41.325       -7.507      124.022      107.348       67.183    15381.489    11523.609     4513.611        4.358        1.571      236.013       60.638        0.066      341.436       16.145      854.142
06/24/2013  08:46:00     -130.671     -155.461       10.167      135.741      110.695       60.230    18425.585    12253.432     3627.711        3.782        1.715      203.084       66.029        0.106      341.413       16.106      854.175
06/24/2013  08:47:00     -303.855     -123.796       -5.413      193.646      138.846       80.704    37498.583    19278.294     6513.075        8.547        3.164      328.106       92.664        0.080      341.386       16.059      854.197
06/24/2013  08:48:00     -347.220     -238.761        3.373      213.286      151.232       90.593    45490.833    22871.185     8207.166       12.706        3.828      421.389      103.991        0.061      341.367       16.027      854.200
06/24/2013  08:49:00     -397.861     -122.137       -7.009      201.716      134.411       79.698    40689.158    18066.315     6351.720       11.917        3.255      416.186      102.220        0.060      341.379       16.048      854.191
06/24/2013  08:50:00     -296.912     -217.382        3.663      160.829      152.725       67.087    25865.864    23324.803     4500.624        9.455        2.685      367.983       65.923        0.032      341.411       16.101      854.180
06/24/2013  08:51:00     -207.734     -138.328        1.490      128.275      106.262       65.958    16454.348    11291.624     4350.454        4.719        1.605      249.576       63.042        0.064      341.449       16.166      854.157
06/24/2013  08:52:00     -249.332      -36.048       13.248      173.366      119.175       80.849    30055.869    14202.653     6536.485        5.721        2.540      251.925       84.319        0.112      341.573       16.375      854.125
06/24/2013  08:53:00     -279.880     -193.316        7.463      185.960      162.866       73.751    34581.191    26525.202     5439.219        9.114        3.327      340.153       92.782        0.074      341.538       16.315      854.165
06/24/2013  08:54:00     -199.534      -91.481        0.093      143.581      108.963       64.493    20615.590    11873.007     4159.323        4.241        1.832      219.506       71.232        0.105      341.523       16.291      854.155
06/24/2013  08:55:00     -264.353     -142.250        6.409      153.499      158.041       70.678    23561.990    24977.046     4995.378        7.184        2.677      300.196       83.043        0.077      341.483       16.223      854.152
06/24/2013  08:56:00     -199.492     -151.929       24.435      150.460      119.652       65.379    22638.141    14316.637     4274.391        5.234        2.061      250.758       54.559        0.047      341.510       16.269      854.144
06/24/2013  08:57:00     -320.944     -129.121       -3.066      209.309      109.409       92.713    43810.233    11970.349     8595.625        9.202        3.219      345.944      101.852        0.087      341.504       16.259      854.112
06/24/2013  08:58:00     -226.300     -146.854       -5.561      145.311      105.161       68.529    21115.218    11058.806     4696.245        5.483        1.844      269.774       70.304        0.068      341.568       16.367      854.059
06/24/2013  08:59:00     -302.343     -169.072      -12.060      168.970      115.425       65.498    28550.871    13322.911     4289.952        8.314        2.308      346.405       57.465        0.028      341.554       16.344      854.123
06/24/2013  09:00:00     -266.444     -212.217       -7.186      150.101      121.230       73.506    22530.383    14696.712     5403.062        7.935        2.132      340.630       74.143        0.047      341.526       16.295      854.155
06/24/2013  09:01:00     -180.631     -191.267        8.046      135.075      112.323       74.695    18245.269    12616.416     5579.292        5.285        1.822      263.078       70.774        0.072      341.549       16.334      854.182
06/24/2013  09:02:00     -194.227     -139.030       11.290      145.430      105.666       73.072    21149.795    11165.217     5339.577        4.741        1.883      238.859       84.995        0.127      341.482       16.220      854.182
06/24/2013  09:03:00     -164.018     -124.055        7.070      108.634      130.819       49.319    11801.447    17113.516     2432.361        3.684        1.567      205.650       46.031        0.050      341.531       16.305      854.177
06/24/2013  09:04:00     -210.413     -166.478        9.511      178.508      147.282       73.711    31865.001    21692.080     5433.267        6.552        2.950      268.307       87.631        0.107      341.533       16.308      854.183
06/24/2013  09:05:00     -234.486     -103.296        1.932      158.832      152.227       68.466    25227.673    23172.989     4687.624        5.936        2.654      256.230       89.973        0.123      341.578       16.385      854.209
06/24/2013  09:06:00     -252.720     -177.864        5.839      198.560      153.632       83.032    39426.022    23602.785     6894.327        8.272        3.496      309.036      104.600        0.115      341.540       16.320      854.202
06/24/2013  09:07:00     -322.519     -208.511      -26.498      195.736      130.358       83.259    38312.390    16993.104     6932.084       10.521        3.112      384.051       92.535        0.058      341.547       16.332      854.207
06/24/2013  09:08:00     -240.930     -108.489       -2.429      204.281      132.119       75.838    41730.780    17455.465     5751.351        6.737        3.247      264.229       94.266        0.127      341.540       16.320      854.226
06/24/2013  09:09:00     -261.629     -210.795      -19.501      151.118      116.676       76.437    22836.651    13613.196     5842.688        7.777        2.115      335.982       73.981        0.048      341.527       16.297      854.246
06/24/2013  09:10:00     -296.697     -140.755       -4.121      152.662       98.255       64.255    23305.712     9654.076     4128.703        7.247        1.854      328.391       62.188        0.036      341.554       16.343      854.259
06/24/2013  09:11:00     -249.127     -220.104      -12.359      108.381      100.748       63.008    11746.338    10150.259     3969.959        6.826        1.293      332.430       58.767        0.031      341.560       16.355      854.261
06/24/2013  09:12:00     -216.498      -34.876        4.381      154.900      139.174       66.770    23994.026    19369.284     4458.182        4.796        2.391      219.290       58.673        0.072      341.669       16.539      854.280
06/24/2013  09:13:00     -222.700     -121.951       -6.389      133.285      113.514       54.634    17764.834    12885.422     2984.873        4.907        1.682      253.904       68.897        0.074      341.590       16.406      854.286
06/24/2013  09:14:00     -177.206      -71.781       -2.711      101.987      101.082       49.793    10401.319    10217.514     2479.356        2.983        1.155      191.193       52.673        0.076      341.606       16.433      854.288
06/24/2013  09:15:00     -156.912     -100.215        0.976      115.756       90.379       53.506    13399.344     8168.353     2862.917        2.954        1.222      186.184       56.163        0.091      341.626       16.466      854.301
06/24/2013  09:16:00      -15.693      -55.689       19.319       46.138       55.829       30.665     2128.719     3116.835      940.340        0.495        0.309       57.858       27.775        0.230      341.709       16.610      854.321
06/24/2013  09:17:00     -137.343       -7.575       -9.430       81.528       61.487       44.852     6646.871     3780.685     2011.720        1.572        0.622      137.552       27.866        0.041      341.661       16.530      854.343
06/24/2013  09:18:00     -191.911      -96.462       -0.786      147.234       83.000       42.196    21677.947     6888.972     1780.464        3.824        1.517      214.790       47.016        0.048      341.656       16.518      854.334
06/24/2013  09:19:00     -172.251      -94.036       26.142      156.097      123.411       82.431    24366.385    15230.331     6794.904        4.279        2.320      196.248       82.341        0.176      341.609       16.439      854.319
06/24/2013  09:20:00     -182.096      -95.711        4.441      112.545       78.485       48.960    12666.382     6159.948     2397.097        3.178        1.061      205.717       52.147        0.064      341.616       16.451      854.329
06/24/2013  09:21:00     -137.349      -83.537       -4.453       54.852       56.943       35.158     3008.748     3242.552     1236.053        1.667        0.374      160.758       31.753        0.039      341.614       16.449      854.329
06/24/2013  09:22:00     -185.103      -65.202      -16.481       86.919       77.221       38.686     7554.974     5963.130     1496.623        2.690        0.751      196.251       33.585        0.029      341.692       16.578      854.330
06/24/2013  09:23:00     -249.274     -129.438      -13.144      140.702      109.530       49.478    19797.025    11996.912     2448.034        5.665        1.712      280.877       57.991        0.043      341.690       16.575      854.317
06/24/2013  09:24:00     -225.673     -148.066        3.098      159.424      110.335       68.774    25416.092    12173.829     4729.828        5.758        2.116      269.911       80.303        0.089      341.599       16.421      854.328
06/24/2013  09:25:00     -223.458     -178.117       -4.187      166.501      135.420       67.254    27722.523    18338.643     4523.125        6.612        2.529      285.761       76.144        0.071      341.581       16.391      854.329
06/24/2013  09:26:00     -305.997      -30.127      -17.442      131.431      116.694       51.857    17274.218    13617.503     2689.112        6.421        1.679      307.477       48.265        0.025      341.575       16.380      854.343
06/24/2013  09:27:00     -344.942      -91.035       -9.170      169.616      117.808       66.711    28769.484    13878.749     4450.411        8.722        2.355      356.753       73.977        0.043      341.600       16.422      854.340
06/24/2013  09:28:00     -340.194      -46.212      -21.728      151.797      100.161       56.795    23042.402    10032.232     3225.662        7.731        1.815      343.318       54.284        0.025      341.555       16.346      854.349
06/24/2013  09:29:00     -269.300      -77.894      -14.230      128.089       92.689       62.614    16406.743     8591.213     3920.525        5.385        1.446      280.339       70.210        0.063      341.575       16.379      854.340
06/24/2013  09:30:00     -141.889     -106.591       -3.274      137.877      101.819       61.307    19010.159    10367.038     3758.595        3.231        1.657      177.466       45.696        0.066      341.606       16.432      854.298
06/24/2013  09:31:00     -163.175       -7.605      -14.208      143.265      103.810       55.362    20524.748    10776.561     3064.903        3.062        1.718      163.352       61.655        0.142      341.635       16.482      854.289
06/24/2013  09:32:00     -166.672      -75.082       -1.577      173.196      120.078       62.925    29996.982    14418.615     3959.583        4.089        2.419      182.803       67.333        0.136      341.745       16.670      854.298
06/24/2013  09:33:00     -274.734     -180.492        7.713      152.290      121.583       78.293    23192.389    14782.460     6129.816        7.610        2.205      328.719       88.873        0.073      341.712       16.611      854.323
06/24/2013  09:34:00     -134.146     -109.710        5.083      100.108       89.611       52.185    10021.513     8030.218     2723.223        2.541        1.039      173.295       51.665        0.089      341.679       16.558      854.309
06/24/2013  09:35:00     -106.849      -57.040       11.238       76.974       86.431       48.633     5924.934     7470.265     2365.209        1.528        0.788      121.121       46.880        0.150      341.717       16.623      854.312
06/24/2013  09:36:00     -294.788     -104.014       -9.066      113.949       79.102       57.563    12984.350     6257.176     3313.443        6.017        1.128      312.600       51.597        0.027      341.662       16.528      854.335
06/24/2013  09:37:00     -179.843     -178.483        9.675      129.873       99.352       65.628    16867.059     9870.854     4307.040        4.766        1.552      253.376       62.204        0.060      341.707       16.603      854.351
06/24/2013  09:38:00     -119.243      -74.662       12.989      105.015      104.999       56.966    11028.114    11024.733     3245.085        2.263        1.265      140.689       65.137        0.214      341.720       16.626      854.372
06/24/2013  09:39:00     -131.477      -91.159       -5.134       97.236       88.580       52.170     9454.816     7846.362     2721.664        2.282        1.001      159.988       55.299        0.119      341.703       16.598      854.398
06/24/2013  09:40:00     -174.065      -66.009       -1.204      131.410      123.913       51.913    17268.551    15354.437     2694.952        3.498        1.766      186.160       57.455        0.095      341.665       16.532      854.424
06/24/2013  09:41:00      -69.468       14.349       -8.036      164.204       81.247       40.360    26962.989     6601.152     1628.954        2.014        1.760       70.934       46.001        0.421      341.617       16.453      854.415
06/24/2013  09:42:00     -162.527      -48.867       10.668      128.691       98.061       60.158    16561.292     9615.973     3618.982        2.935        1.490      169.714       56.961        0.113      341.662       16.527      854.398
06/24/2013  09:43:00     -186.167      -36.868        1.642      116.989      124.850       57.458    13686.486    15587.437     3301.479        3.429        1.629      189.783       55.735        0.086      341.696       16.586      854.394
06/24/2013  09:44:00     -163.236     -148.125       -3.001      165.639       90.670       76.078    27436.139     8221.002     5787.835        4.501        2.072      220.425       73.916        0.112      341.683       16.565      854.386
06/24/2013  09:45:00     -220.497      -85.879       -3.177      108.535      104.616       53.992    11779.856    10944.598     2915.139        4.082        1.282      236.631       47.465        0.040      341.639       16.488      854.373
06/24/2013  09:46:00     -286.097      -29.575        8.187      180.561      140.591       78.893    32602.167    19765.939     6224.029        7.068        2.930      287.621       73.191        0.065      341.643       16.495      854.364
06/24/2013  09:47:00     -271.540      -94.124      -12.864      226.687      115.283       68.954    51387.059    13290.075     4754.663        7.608        3.472      287.391       82.941        0.083      341.685       16.568      854.377
06/24/2013  09:48:00     -380.660     -162.337       -9.452      147.177      128.733       62.766    21661.090    16572.193     3939.560       10.675        2.109      413.830       63.988        0.024      341.574       16.377      854.369
06/24/2013  09:49:00     -241.199      -41.311       10.487      164.461      112.232       74.528    27047.473    12595.928     5554.411        5.259        2.260      244.712       78.872        0.104      341.653       16.512      854.378
06/24/2013  09:50:00     -282.690      -89.247      -16.121      180.841      125.182       65.705    32703.360    15670.629     4317.097        7.040        2.635      296.443       67.782        0.052      341.639       16.488      854.386
06/24/2013  09:51:00     -422.953     -159.541      -19.168      160.610      169.229       84.270    25795.451    28638.345     7101.497       13.311        3.077      452.042       71.475        0.025      341.579       16.385      854.385
06/24/2013  09:52:00     -510.759      -59.028      -22.486      213.026      164.572       91.073    45380.156    27083.843     8294.314       17.280        4.038      514.159       97.312        0.036      341.536       16.312      854.358
06/24/2013  09:53:00     -166.034     -108.674       10.798      115.602       76.565       56.949    13363.770     5862.132     3243.182        3.098        1.123      198.437       59.966        0.091      341.601       16.425      854.398
06/24/2013  09:54:00     -191.683      -92.638       -7.292      135.808      109.743       53.832    18443.857    12043.468     2897.893        3.937        1.669      212.895       50.154        0.055      341.599       16.422      854.389
06/24/2013  09:55:00     -312.474     -237.616      -14.156      205.062      169.691       82.328    42050.447    28795.072     6777.935       11.595        3.881      392.557       96.546        0.060      341.562       16.357      854.386
06/24/2013  09:56:00     -380.612     -162.444      -18.832      204.414      119.676       82.726    41784.971    14322.302     6843.600       11.727        3.148      413.828       91.715        0.049      341.522       16.290      854.387
06/24/2013  09:57:00     -249.937     -208.258      -12.855      164.303      156.420       83.064    26995.567    24467.067     6899.628        8.217        2.918      325.331       90.147        0.077      341.543       16.324      854.371
06/24/2013  09:58:00     -413.216     -190.078      -20.115      210.153      132.801       83.192    44164.170    17636.226     6920.979       13.799        3.436      454.837       84.378        0.034      341.505       16.261      854.388
06/24/2013  09:59:00     -391.470     -148.464      -25.952      160.256      144.668       62.007    25681.897    20928.964     3844.855       11.320        2.523      418.677       55.913        0.018      341.456       16.177      854.416
06/24/2013  10:00:00     -153.642       -8.575       -6.926       79.297       81.167       39.038     6287.988     6588.011     1523.963        1.906        0.720      153.882       39.547        0.066      341.532       16.309      854.411
06/24/2013  10:01:00     -196.723     -151.814       -3.126      154.344       99.396       51.342    23822.197     9879.478     2636.047        4.904        1.817      248.490       51.051        0.042      341.542       16.323      854.416
06/24/2013  10:02:00     -520.439     -178.941      -12.484      216.408      156.540       86.355    46832.361    24504.796     7457.194       19.090        3.940      550.342      107.620        0.038      341.444       16.157      854.413
06/24/2013  10:03:00     -221.621      -67.098        6.200      128.128      119.829       62.004    16416.912    14359.098     3844.557        4.413        1.731      231.555       68.225        0.087      341.525       16.295      854.440
06/24/2013  10:04:00     -247.237      -43.665       -9.729      133.905       92.717       52.828    17930.480     8596.468     2790.785        4.622        1.466      251.063       58.433        0.054      341.578       16.385      854.457
06/24/2013  10:05:00     -257.280      -64.317       17.326      235.739      128.271       71.219    55572.892    16453.412     5072.123        7.385        3.855      265.198      101.221        0.146      341.525       16.296      854.446
06/24/2013  10:06:00     -326.237     -180.616        6.486      287.668      191.448      102.884    82752.592    36652.449    10585.100       13.452        6.500      372.898      136.905        0.135      341.487       16.230      854.406
06/24/2013  10:07:00     -468.433      -94.032      -14.605      227.475      158.464       85.050    51744.944    25110.905     7233.467       15.627        4.204      477.778       91.054        0.036      341.418       16.114      854.435
06/24/2013  10:08:00     -413.403     -212.925       -5.897      164.744      129.594       84.884    27140.607    16794.560     7205.273       13.370        2.557      465.015       81.149        0.030      341.387       16.060      854.442
06/24/2013  10:09:00     -334.395     -220.298      -24.465      131.523      145.008       80.614    17298.243    21027.222     6498.624       10.288        2.241      400.438       80.426        0.040      341.389       16.065      854.449
06/24/2013  10:10:00     -116.481      -90.165        2.637      115.773       96.397       66.790    13403.370     9292.443     4460.883        2.443        1.358      147.302       65.273        0.196      341.500       16.254      854.429
06/24/2013  10:11:00     -180.375     -128.253       23.996      207.938      177.037      101.138    43238.029    31342.219    10228.942        6.717        4.240      221.323      116.998        0.279      341.517       16.281      854.405
06/24/2013  10:12:00      -88.466      -65.250       12.610       98.795       65.062       58.485     9760.406     4233.056     3420.547        1.483        0.871      109.927       54.144        0.243      341.608       16.438      854.406
06/24/2013  10:13:00     -134.215      -60.875       -6.866       90.075      108.734       57.301     8113.577    11823.031     3283.348        2.249        1.161      147.375       64.636        0.192      341.614       16.447      854.420
06/24/2013  10:14:00     -242.545     -108.562       -3.121      160.084      100.530       61.341    25626.971    10106.295     3762.708        5.505        1.975      265.733       68.151        0.066      341.546       16.330      854.404
06/24/2013  10:15:00     -283.043     -178.907      -10.332      192.713      143.481       72.183    37138.247    20586.657     5210.328        8.757        3.147      334.845       67.489        0.041      341.482       16.222      854.377
06/24/2013  10:16:00     -371.630     -113.586      -16.841      169.496      179.905       87.106    28728.744    32365.872     7587.384       10.997        3.434      388.600       86.287        0.049      341.465       16.191      854.385
06/24/2013  10:17:00     -419.309     -160.601      -13.197      261.753      125.569       87.206    68514.633    15767.489     7604.903       14.682        4.594      449.013       98.347        0.048      341.365       16.024      854.334
06/24/2013  10:18:00     -339.525     -174.288        3.524      194.580      166.288       86.974    37861.520    27651.820     7564.522       10.936        3.654      381.646      103.832        0.074      341.429       16.133      854.373
06/24/2013  10:19:00     -419.812     -156.922      -15.955      236.185      117.589       93.781    55783.226    13827.287     8794.935       13.975        3.920      448.181      113.018        0.064      341.327       15.959      854.388
06/24/2013  10:20:00     -171.357     -123.226        7.681      130.265      116.073       62.425    16968.939    13472.962     3896.924        3.947        1.717      211.064       75.262        0.127      341.509       16.269      854.388
06/24/2013  10:21:00     -178.344      -96.742        9.655      185.446      122.926       83.449    34390.094    15110.734     6963.806        4.885        2.823      202.893      101.582        0.251      341.467       16.197      854.403
06/24/2013  10:22:00     -468.506     -202.312      -28.067      263.518      187.882      100.051    69441.490    35299.485    10010.202       18.796        5.738      510.322      126.127        0.061      341.294       15.904      854.402
06/24/2013  10:23:00     -275.229      -24.419       -7.464      218.216      126.970       75.702    47618.311    16121.492     5730.823        7.292        3.474      276.310       70.993        0.066      341.435       16.142      854.443
06/24/2013  10:24:00     -450.166      -46.897      -26.836      185.594      158.177       82.208    34445.250    25019.820     6758.080       13.588        3.311      452.602       90.627        0.040      341.423       16.121      854.419
06/24/2013  10:25:00     -390.798      -85.842        8.554      197.093      140.447       97.124    38845.776    19725.260     9433.016       11.407        3.400      400.115      113.855        0.081      341.376       16.041      854.443
06/24/2013  10:26:00      -75.795     -102.301       34.979      180.461      150.820       81.160    32566.241    22746.722     6586.929        3.965        3.095      127.320      100.770        0.626      341.553       16.343      854.416
06/24/2013  10:27:00     -257.976     -151.713       -4.856      141.821      163.118       86.703    20113.255    26607.495     7517.386        7.190        2.712      299.280       68.666        0.053      341.535       16.312      854.448
06/24/2013  10:28:00     -363.243     -127.270      -17.973      189.187      146.769       71.212    35791.853    21541.220     5071.179       10.542        3.120      384.893       90.046        0.055      341.509       16.268      854.482
06/24/2013  10:29:00     -303.118     -124.823       11.382      250.094      147.909       95.721    62547.092    21876.965     9162.603       10.057        4.679      327.813      133.802        0.167      341.440       16.151      854.491
06/24/2013  10:30:00     -154.179      -77.184       23.451      150.488      131.164       80.882    22646.564    17203.899     6541.832        3.833        2.320      172.419       83.778        0.236      341.513       16.275      854.526
06/24/2013  10:31:00     -207.333      -40.801        4.193      134.841      136.139       71.074    18182.028    18533.846     5051.467        4.321        2.088      211.309       66.856        0.100      341.532       16.307      854.557
06/24/2013  10:32:00     -245.486      -14.144       -2.288      141.438      156.225       71.895    20004.587    24406.375     5168.852        5.501        2.479      245.893       57.958        0.056      341.586       16.398      854.600
06/24/2013  10:33:00     -367.942      -33.079      -25.070      157.149      195.879       68.750    24695.948    38368.761     4726.517       10.243        3.390      369.426       68.472        0.034      341.394       16.073      854.615
06/24/2013  10:34:00     -221.632      -52.964      -10.481      198.601      120.216       70.425    39442.279    14451.918     4959.738        5.543        2.943      227.873       56.772        0.062      341.518       16.283      854.613
06/24/2013  10:35:00     -299.871     -147.847        8.429      195.132      179.527      107.365    38076.615    32230.122    11527.302        9.683        4.092      334.337      105.830        0.100      341.415       16.108      854.645
06/24/2013  10:36:00     -524.242     -174.065      -22.970      225.058      212.339       88.601    50651.111    45087.834     7850.093       20.460        5.179      552.384      106.175        0.037      341.340       15.980      854.670
06/24/2013  10:37:00      -36.159      -32.880       15.881       86.188       68.790       43.394     7428.319     4732.069     1883.043        0.834        0.702       48.873       20.790        0.181      341.387       16.064      854.690
06/24/2013  10:38:00     -312.871      -98.213      -17.941      180.129      104.762       69.639    32446.382    10975.178     4849.525        7.805        2.414      327.924       87.625        0.071      341.344       15.988      854.652
06/24/2013  10:39:00     -319.252     -208.369       -0.043      259.269      178.991      117.673    67220.220    32037.635    13846.826       12.920        5.655      381.234      128.213        0.113      341.375       16.040      854.584
06/24/2013  10:40:00     -385.100     -136.178      -35.737      225.792      113.907       67.457    50981.986    12974.731     4550.418       11.830        3.425      408.468       69.308        0.029      341.424       16.123      854.655
06/24/2013  10:41:00     -355.531     -130.346      -22.936      167.063      177.409       71.318    27909.998    31473.959     5086.213       10.418        3.224      378.672       59.578        0.025      341.289       15.897      854.616
06/24/2013  10:42:00     -147.829       -7.281        7.533      142.287      117.226       71.958    20245.652    13741.888     5177.915        3.056        1.958      148.008       63.880        0.186      341.534       16.311      854.590
06/24/2013  10:43:00     -424.405     -173.862      -18.792      191.177      140.618       68.335    36548.526    19773.494     4669.651       13.583        3.050      458.637       73.435        0.026      341.377       16.043      854.591
06/24/2013  10:44:00     -378.358       21.314      -13.648      189.731      149.280       83.961    35997.981    22284.385     7049.436       10.455        3.267      378.958       88.896        0.055      341.476       16.213      854.623
06/24/2013  10:45:00     -248.312      -59.564        1.392      190.161      116.279       69.621    36161.265    13520.752     4847.143        5.986        2.726      255.356       81.655        0.102      341.480       16.220      854.617
06/24/2013  10:46:00     -399.326     -115.541        4.121      269.975      154.511       93.848    72886.337    23873.710     8807.501       13.918        5.278      415.705      105.903        0.065      341.446       16.161      854.565
06/24/2013  10:47:00     -397.079      -82.848       -0.615      238.718      188.771       99.077    56986.299    35634.342     9816.234       13.347        5.122      405.630      116.650        0.083      341.522       16.291      854.543
06/24/2013  10:48:00     -329.695     -158.019        5.470      231.553      194.408      108.447    53616.879    37794.614    11760.656       11.842        5.159      365.608      120.497        0.109      341.478       16.215      854.525
06/24/2013  10:49:00     -334.042      -80.142      -23.128      230.259       94.579       52.903    53019.126     8945.159     2798.691        9.164        3.238      343.522       52.789        0.024      341.392       16.070      854.563
06/24/2013  10:50:00     -395.405     -105.123      -23.698      204.657      157.303       81.783    41884.664    24744.176     6688.507       12.062        3.666      409.140       99.560        0.059      341.380       16.049      854.559
06/24/2013  10:51:00     -466.140      -67.084      -11.933      176.048      148.896       73.820    30992.918    22170.149     5449.420       14.026        2.931      470.943       72.765        0.024      341.430       16.134      854.571
06/24/2013  10:52:00     -394.177      -82.323      -17.016      199.227      119.247       71.145    39691.431    14219.856     5061.566       11.070        2.949      402.682       87.609        0.047      341.501       16.256      854.588
06/24/2013  10:53:00     -352.989     -140.409       -2.342      209.093      163.577       86.286    43720.084    26757.355     7445.222       11.111        3.896      379.889      108.382        0.081      341.377       16.045      854.581
06/24/2013  10:54:00     -279.603     -139.965      -10.316      181.785      123.409       69.281    33045.833    15229.707     4799.923        7.546        2.654      312.679       91.492        0.086      341.428       16.131      854.595
06/24/2013  10:55:00     -198.149      -90.406      -17.675       66.850       74.942       38.297     4468.922     5616.352     1466.651        2.965        0.578      217.799       28.974        0.018      341.507       16.263      854.559
06/24/2013  10:56:00     -200.653     -143.763       -0.701      148.284       98.292       53.238    21988.288     9661.247     2834.241        4.770        1.724      246.839       47.989        0.038      341.653       16.513      854.579
06/24/2013  10:57:00     -167.684      -93.951        8.842      137.453       99.090       69.988    18893.422     9818.754     4898.270        3.531        1.681      192.210       71.615        0.139      341.643       16.496      854.569
06/24/2013  10:58:00     -321.326      -33.741      -13.566      161.079      108.304       62.894    25946.342    11729.808     3955.647        7.309        2.082      323.093       63.502        0.039      341.701       16.592      854.590
06/24/2013  10:59:00     -387.428      -68.388      -23.235      134.126      102.891       62.960    17989.669    10586.564     3963.930        9.392        1.627      393.418       57.512        0.021      341.431       16.135      854.598
06/24/2013  11:00:00     -140.521     -167.531       18.095      148.544      128.098       57.270    22065.224    16409.047     3279.850        4.494        2.088      218.662       70.112        0.103      341.631       16.474      854.610
06/24/2013  11:01:00     -342.651     -302.009        6.194      222.961      162.133      112.723    49711.804    26287.198    12706.421       14.866        4.435      456.748      125.060        0.075      341.599       16.421      854.625
06/24/2013  11:02:00     -280.635     -175.136       -2.694      202.672      125.008       82.966    41076.004    15626.890     6883.374        8.650        3.179      330.800       95.296        0.083      341.704       16.599      854.679
06/24/2013  11:03:00     -358.434      -75.963      -26.394      217.810      149.907       68.437    47441.401    22472.107     4683.622       10.476        3.730      366.395       81.508        0.049      341.773       16.716      854.701
06/24/2013  11:04:00     -234.616     -107.268       -4.950      129.568      121.891       63.893    16787.742    14857.336     4082.373        5.114        1.786      257.975       67.829        0.069      341.818       16.792      854.710
06/24/2013  11:05:00     -206.316     -177.636      -14.010      105.982      108.662       52.350    11232.141    11807.473     2740.521        5.004        1.289      272.251       45.279        0.028      341.579       16.386      854.707
06/24/2013  11:06:00     -117.930     -110.350       14.217      118.667      104.419       65.770    14081.817    10903.269     4325.700        2.779        1.466      161.507       81.109        0.252      341.733       16.648      854.660
06/24/2013  11:07:00     -265.060     -146.849      -12.699      107.880      129.403       59.200    11637.998    16745.049     3504.677        6.193        1.594      303.020       59.543        0.039      341.633       16.478      854.634
06/24/2013  11:08:00     -256.915     -196.065      -17.097      119.319      112.246       63.535    14236.907    12599.155     4036.741        6.780        1.544      323.183       51.401        0.025      341.676       16.551      854.616
06/24/2013  11:09:00     -275.521      -84.183       -3.731      124.967      144.607       69.728    15616.685    20911.079     4861.990        6.219        2.069      288.095       69.566        0.058      341.805       16.770      854.627
06/24/2013  11:10:00     -166.703     -105.046       20.518      128.706      126.084       62.591    16565.157    15897.277     3917.611        3.781        1.819      197.039       67.700        0.118      341.902       16.935      854.645
06/24/2013  11:11:00     -227.569     -153.304       -6.670       99.107      103.361       48.816     9822.149    10683.511     2383.041        4.911        1.144      274.390       50.758        0.034      341.710       16.606      854.642
06/24/2013  11:12:00     -223.780     -151.146       -7.392       67.003       75.153       47.607     4489.440     5648.025     2266.461        4.269        0.620      270.042       38.793        0.021      341.679       16.555      854.647
06/24/2013  11:13:00      -51.872     -152.213       -0.261       35.336       44.157       25.087     1248.602     1949.851      629.352        1.484        0.191      160.809       14.239        0.008      341.682       16.565      854.654
06/24/2013  11:14:00      -85.007        3.097      -13.823       65.054       59.670       28.832     4232.058     3560.461      831.306        0.802        0.431       85.063       25.843        0.092      341.652       16.514      854.631
06/24/2013  11:15:00     -188.315       -9.498      -10.895       67.410       49.547       34.078     4544.066     2454.926     1161.334        2.191        0.408      188.555       27.264        0.021      341.773       16.717      854.675
06/24/2013  11:16:00     -242.803      -53.563       -4.302      101.108       81.983       59.603    10222.785     6721.278     3552.467        4.116        1.025      248.641       49.958        0.040      341.775       16.718      854.707
06/24/2013  11:17:00     -194.277      -63.263       -4.147       97.346       72.442       38.928     9476.232     5247.860     1515.409        2.900        0.812      204.318       45.188        0.049      341.840       16.829      854.722
06/24/2013  11:18:00     -190.463       33.479       -5.661       95.238       90.651       45.741     9070.209     8217.580     2092.235        2.840        0.969      193.383       43.071        0.050      341.955       17.025      854.743
06/24/2013  11:19:00     -351.771      -18.095      -15.112      211.633      147.653       77.984    44788.387    21801.316     6081.578        9.847        3.634      352.236       92.873        0.070      341.862       16.868      854.723
06/24/2013  11:20:00     -354.581      -84.217       -0.393      206.958      137.534       75.303    42831.721    18915.642     5670.558       10.011        3.371      364.445       83.982        0.053      341.807       16.773      854.727
06/24/2013  11:21:00     -373.574     -141.719       -3.934      175.355      161.903       77.575    30749.505    26212.462     6017.898       11.131        3.149      399.552       89.258        0.050      341.778       16.723      854.701
06/24/2013  11:22:00     -282.132     -114.380      -15.404      179.768      130.864       76.062    32316.443    17125.431     5785.359        7.406        2.761      304.436       81.919        0.072      341.810       16.778      854.686
06/24/2013  11:23:00     -284.343      -75.062      -15.867      120.547       91.264       62.388    14531.672     8329.065     3892.257        5.674        1.338      294.084       50.550        0.030      341.924       16.971      854.687
06/24/2013  11:24:00     -346.699      -73.257        9.926      242.355      116.252       88.375    58735.704    13514.541     7810.218       10.285        4.003      354.354      120.709        0.116      342.019       17.133      854.661
06/24/2013  11:25:00     -310.543      -17.222      -10.459      188.856      115.030       80.659    35666.504    13231.799     6505.948        7.611        2.770      311.020       96.578        0.096      341.986       17.077      854.686
06/24/2013  11:26:00     -125.578       -1.138       21.070      160.455       94.585       70.021    25745.760     8946.310     4903.003        2.790        1.980      125.583       67.942        0.293      342.289       17.594      854.695
06/24/2013  11:27:00     -102.011      -59.588       11.606      151.640       75.311       61.899    22994.699     5671.682     3831.522        2.329        1.625      118.139       65.090        0.304      342.368       17.727      854.718
06/24/2013  11:28:00     -267.281      -48.609        4.309      225.801      153.623       82.864    50985.974    23600.158     6866.401        7.762        4.073      271.665      103.322        0.145      342.164       17.380      854.743
06/24/2013  11:29:00     -555.911      -36.300      -56.044      133.381      128.390       72.979    17790.521    16484.050     5325.946       17.654        1.980      557.095       71.725        0.017      341.773       16.714      854.746
06/24/2013  11:30:00     -418.212       73.827      -32.443      249.414      143.308       86.947    62207.205    20537.083     7559.713       13.584        4.515      424.679       98.954        0.054      341.845       16.839      854.784
06/24/2013  11:31:00     -188.412      -52.272        5.191      157.358      133.357       66.521    24761.397    17783.959     4425.097        4.261        2.349      195.528       76.734        0.154      341.962       17.037      854.787
06/24/2013  11:32:00     -384.234      -73.864       -3.269      184.041      128.704       81.740    33871.195    16564.676     6681.390       10.510        2.856      391.269       85.883        0.048      341.886       16.907      854.807
06/24/2013  11:33:00     -408.611      -68.604      -30.285      153.513      187.853       82.310    23566.196    35288.615     6774.882       11.910        3.281      414.331       79.451        0.037      341.753       16.681      854.848
06/24/2013  11:34:00     -332.487      -50.825      -24.470      124.505      140.947       68.438    15501.522    19866.016     4683.729        7.688        2.003      336.350       54.088        0.026      341.688       16.570      854.859
06/24/2013  11:35:00     -258.748      -41.224      -13.147       99.229       73.179       49.003     9846.459     5355.125     2401.314        4.321        0.880      262.012       48.122        0.034      341.696       16.584      854.857
06/24/2013  11:36:00     -154.381      -71.714       -6.610      106.530       65.774       50.849    11348.601     4326.272     2585.615        2.364        0.913      170.224       42.643        0.063      341.835       16.821      854.839
06/24/2013  11:37:00     -227.822       42.542      -12.821      188.796       81.315       51.348    35643.777     6612.144     2636.584        4.938        2.245      231.760       71.900        0.096      341.936       16.992      854.848
06/24/2013  11:38:00     -340.396      -82.212      -27.894      166.825      153.950       80.535    27830.646    23700.499     6485.888        9.070        2.901      350.183       75.187        0.046      341.818       16.791      854.819
06/24/2013  11:39:00     -439.623      -85.108      -31.230      140.475      103.244       67.175    19733.252    10659.348     4512.436       11.819        1.745      447.786       64.851        0.021      341.822       16.798      854.817
06/24/2013  11:40:00     -360.274     -167.871        2.638      192.192      175.936       92.198    36937.942    30953.476     8500.387       11.717        3.820      397.464       99.927        0.063      341.789       16.744      854.822
06/24/2013  11:41:00     -140.461      -84.910       14.622      146.158      153.005       80.755    21362.022    23410.454     6521.329        3.921        2.565      164.131       71.622        0.190      341.907       16.944      854.811
06/24/2013  11:42:00      -89.492       -4.598       35.214      180.390      108.428       75.158    32540.486    11756.674     5648.650        2.960        2.497       89.610       79.003        0.777      342.149       17.356      854.768
06/24/2013  11:43:00     -469.663     -124.699      -16.127      250.069      161.548       86.918    62534.640    26097.917     7554.724       16.627        4.809      485.935       94.460        0.038      341.894       16.922      854.698
06/24/2013  11:44:00     -469.014     -108.662      -13.419      210.232      196.017       89.149    44197.654    38422.523     7947.518       16.125        4.528      481.437       99.091        0.042      341.861       16.864      854.734
06/24/2013  11:45:00     -493.073      -16.143      -19.927      190.713      143.861       91.286    36371.274    20695.936     8333.052       15.458        3.270      493.337       87.973        0.032      341.877       16.891      854.804
06/24/2013  11:46:00     -275.363     -167.207      -10.923      188.988       98.421       70.078    35716.570     9686.623     4910.982        7.710        2.516      322.154       70.582        0.048      341.683       16.561      854.865
06/24/2013  11:47:00     -195.453      -44.867       -3.119      154.944      101.510       60.368    24007.495    10304.309     3644.248        3.908        1.898      200.537       71.794        0.128      341.943       17.004      854.863
06/24/2013  11:48:00     -180.464      -96.970        4.761      168.419      105.916       78.141    28364.961    11218.238     6105.962        4.383        2.284      204.867       85.349        0.174      341.891       16.917      854.856
06/24/2013  11:49:00     -281.898     -131.467       -1.854      158.631      122.879       72.635    25163.679    15099.292     5275.787        7.114        2.277      311.047       64.725        0.043      341.923       16.970      854.850
06/24/2013  11:50:00      -73.025     -106.534       34.370      129.168      123.832       82.619    16684.332    15334.454     6825.840        2.835        1.942      129.159       84.440        0.427      342.102       17.276      854.843
06/24/2013  11:51:00     -435.033     -222.855      -12.267      228.155      147.759       85.124    52054.666    21832.720     7246.091       16.009        4.057      488.793      107.233        0.048      341.814       16.785      854.852
06/24/2013  11:52:00     -309.950     -255.602        1.067      160.249      129.611       82.863    25679.811    16798.987     6866.216       10.536        2.467      401.748       84.066        0.044      341.766       16.704      854.912
06/24/2013  11:53:00     -290.875     -217.362       -3.439      169.349      136.031       84.632    28678.971    18504.431     7162.643        9.310        2.717      363.118       99.500        0.075      341.766       16.704      854.935
06/24/2013  11:54:00     -254.511     -201.759       15.297      273.813      180.172      105.340    74973.604    32462.013    11096.450       11.210        5.927      324.781      140.103        0.186      341.846       16.840      854.966
06/24/2013  11:55:00      -97.193      -32.680       15.800      118.712      103.096       51.770    14092.437    10628.777     2680.119        1.908        1.370      102.540       43.794        0.182      341.964       17.042      854.986
06/24/2013  11:56:00     -243.490     -176.956       -8.908      174.099      117.137       73.488    30310.411    13721.191     5400.417        7.005        2.472      300.999       87.461        0.084      341.831       16.814      854.936
06/24/2013  11:57:00     -332.678      -62.945       -5.772      183.393      135.042       71.841    33633.161    18236.436     5161.171        8.584        2.852      338.581       85.630        0.064      341.976       17.059      854.947
06/24/2013  11:58:00     -362.581     -209.526      -10.555      178.931      147.337       80.563    32016.275    21708.260     6490.429       11.783        3.011      418.767       77.774        0.034      341.909       16.946      855.008
06/24/2013  11:59:00     -298.588     -217.806        4.054      190.455      146.538      101.703    36273.295    21473.436    10343.424       10.234        3.405      369.587      111.248        0.091      341.835       16.820      855.033
06/24/2013  12:00:00     -333.595     -147.853       -6.626      137.222       94.997       63.738    18829.952     9024.407     4062.572        8.255        1.596      364.892       70.126        0.037      341.844       16.836      855.046
06/24/2013  12:01:00      -87.202     -115.865        4.707      125.952      108.387       52.390    15863.865    11747.636     2744.735        2.570        1.518      145.013       63.381        0.191      341.942       17.003      855.045
06/24/2013  12:02:00     -164.204     -111.411       30.622      124.702      105.497       63.577    15550.569    11129.583     4042.059        3.551        1.536      198.433       70.851        0.127      341.938       16.995      855.033
06/24/2013  12:03:00     -148.090      -79.418        1.044      138.899       79.717       55.883    19293.062     6354.764     3122.891        2.850        1.439      168.042       62.232        0.137      342.007       17.113      855.024
06/24/2013  12:04:00     -145.622     -103.998       -0.113      109.059       82.559       41.642    11893.843     6815.911     1734.091        2.623        1.022      178.945       41.484        0.054      342.015       17.128      855.059
06/24/2013  12:05:00     -213.330      -45.710       -3.662      119.963       91.466       61.764    14391.097     8365.995     3814.819        3.709        1.329      218.173       60.217        0.076      342.032       17.156      855.068
06/24/2013  12:06:00     -263.457     -163.346      -27.392      104.487      127.305       50.983    10917.584    16206.556     2599.233        6.328        1.486      309.987       47.127        0.023      341.977       17.060      855.046
06/24/2013  12:07:00     -354.028      -45.431      -20.212      148.653      107.275       64.366    22097.570    11508.002     4142.929        8.277        1.887      356.931       60.056        0.028      342.003       17.105      855.082
06/24/2013  12:08:00     -338.832     -206.766        1.454      218.903      122.201       83.623    47918.645    14933.028     6992.848       11.369        3.492      396.938       99.203        0.062      342.024       17.140      855.072
06/24/2013  12:09:00     -276.873       -2.658      -15.588      124.938       97.982       56.074    15609.392     9600.390     3144.343        5.263        1.418      276.886       43.555        0.025      342.019       17.132      855.081
06/24/2013  12:10:00     -318.052     -184.336      -20.086      201.073      140.698       67.725    40430.470    19795.959     4586.647       10.016        3.241      367.610       73.235        0.040      342.000       17.102      855.073
06/24/2013  12:11:00     -290.491     -167.132        0.649      189.375      155.998       91.062    35862.993    24335.342     8292.277        9.039        3.425      335.139      103.640        0.096      342.050       17.185      855.010
06/24/2013  12:12:00     -308.195      -76.615        1.007      203.024      153.520       74.193    41218.753    23568.380     5504.561        8.556        3.515      317.575       88.997        0.079      342.091       17.255      855.026
06/24/2013  12:13:00     -470.620       -9.733      -19.661      197.075      148.656       94.570    38838.742    22098.658     8943.424       14.591        3.494      470.721       97.384        0.043      342.056       17.194      855.040
06/24/2013  12:14:00     -262.620     -150.915       14.630      189.963      177.795      106.138    36085.998    31611.039    11265.367        8.545        3.948      302.894      118.496        0.153      342.092       17.257      855.072
06/24/2013  12:15:00     -315.347     -220.107        3.075      223.470      186.805       93.776    49938.987    34896.206     8793.988       12.075        4.681      384.565      110.633        0.083      341.992       17.086      855.037
06/24/2013  12:16:00     -283.544     -184.114       14.953      207.995      206.614      109.305    43261.725    42689.460    11947.615       10.619        4.895      338.076      118.426        0.123      342.050       17.186      855.023
06/24/2013  12:17:00     -223.641     -111.091       15.957      179.798      142.682       82.711    32327.428    20358.275     6841.044        6.106        2.976      249.713       88.827        0.127      342.101       17.272      855.051
06/24/2013  12:18:00      -96.475     -135.645       36.635      175.067      138.959       95.142    30648.320    19309.512     9052.076        4.402        2.950      166.454      100.225        0.363      342.138       17.334      855.074
06/24/2013  12:19:00     -380.749     -264.249       -4.606      234.022      181.925       82.234    54766.066    33096.771     6762.511       15.470        4.731      463.462       96.097        0.043      341.906       16.941      854.989
06/24/2013  12:20:00     -221.794     -174.433       -3.938      160.741      119.906       80.715    25837.534    14377.331     6514.917        6.317        2.336      282.170       84.429        0.090      342.054       17.192      855.011
06/24/2013  12:21:00     -332.376     -202.760       -6.881      208.332      163.059      105.382    43402.051    26588.091    11105.376       11.635        4.055      389.340      100.630        0.067      342.021       17.134      855.039
06/24/2013  12:22:00     -384.721     -168.471       -8.980      193.822      178.438       91.356    37566.958    31840.232     8345.977       12.710        3.888      419.991       97.368        0.054      342.013       17.122      855.049
06/24/2013  12:23:00     -442.751     -184.979      -13.342      226.339      190.292      111.156    51229.422    36211.152    12355.767       16.509        4.990      479.840      112.619        0.055      341.987       17.078      855.029
06/24/2013  12:24:00     -330.018     -232.988      -15.536      203.357      163.642       95.917    41354.148    26778.598     9199.992       12.037        3.867      403.974      105.417        0.068      341.998       17.097      855.069
06/24/2013  12:25:00     -381.485      -86.210        5.884      208.867      184.108       82.198    43625.555    33895.881     6756.564       11.862        4.214      391.104       98.423        0.063      341.966       17.043      855.050
06/24/2013  12:26:00     -394.146     -136.910        6.214      240.216      151.117       84.461    57703.537    22836.482     7133.650       13.089        4.384      417.247      106.172        0.065      341.950       17.016      855.046
06/24/2013  12:27:00     -239.045     -173.693       -2.347      163.064      148.112       75.475    26589.757    21937.151     5696.530        7.076        2.711      295.486       84.641        0.082      341.931       16.983      855.018
06/24/2013  12:28:00     -296.786     -155.162       13.820      285.624      182.170      102.922    81581.193    33185.800    10593.016       11.883        6.268      334.899      119.306        0.127      342.010       17.117      855.037
06/24/2013  12:29:00     -334.011     -235.411      -19.581      268.857      208.089      119.196    72283.869    43301.197    14207.591       14.855        6.490      408.634      139.895        0.117      341.964       17.039      855.029
06/24/2013  12:30:00     -495.768     -266.761        5.109      297.839      226.860      138.306    88708.272    51465.598    19128.478       23.811        7.965      562.981      153.743        0.075      341.804       16.767      855.063
06/24/2013  12:31:00     -430.030     -178.489      -22.058      229.089      158.039       93.914    52481.987    24976.275     8819.925       15.176        4.314      465.600      111.015        0.057      341.828       16.809      855.118
06/24/2013  12:32:00     -288.865     -139.210      -10.986      226.488      110.913       78.494    51296.709    12301.652     6161.239        8.634        3.488      320.659       91.142        0.081      341.873       16.885      855.127
06/24/2013  12:33:00     -373.467     -202.610      -36.706      162.819      138.517       74.510    26509.986    19186.966     5551.739       11.655        2.562      424.887       62.756        0.022      341.799       16.759      855.108
06/24/2013  12:34:00     -348.395      -94.926        0.142      195.121      146.530       77.299    38072.248    21470.971     5975.087        9.794        3.276      361.095       82.532        0.052      341.825       16.802      855.110
06/24/2013  12:35:00     -451.929     -199.748      -16.849      271.560      263.727      116.973    73744.584    69552.131    13682.662       20.067        7.849      494.104      110.949        0.050      341.701       16.594      855.057
06/24/2013  12:36:00     -552.216     -212.645      -31.882      274.059      237.225      120.497    75108.319    56275.920    14519.425       24.851        7.295      591.744      147.407        0.062      341.659       16.521      855.125
06/24/2013  12:37:00     -470.898     -166.117       -5.122      302.737      236.397      117.066    91649.427    55883.343    13704.398       20.527        8.062      499.339      146.658        0.086      341.664       16.531      855.101
06/24/2013  12:38:00     -527.290     -184.424      -16.144      231.595      217.634       94.830    53636.036    47364.734     8992.812       21.113        5.500      558.612       95.188        0.029      341.622       16.459      855.092
06/24/2013  12:39:00     -438.877     -128.158      -21.025      289.607      207.287      117.033    83872.175    42968.025    13696.668       17.498        7.027      457.206      138.546        0.092      341.581       16.389      855.105
06/24/2013  12:40:00     -448.814     -225.933      -21.857      228.805      223.275       94.585    52351.660    49851.623     8946.258       18.203        5.557      502.474      100.350        0.040      341.493       16.242      855.145
06/24/2013  12:41:00     -344.159      -80.476      -20.068      137.018      131.904       70.658    18773.992    17398.555     4992.551        8.324        2.058      353.442       72.072        0.042      341.527       16.297      855.104
06/24/2013  12:42:00     -540.263      -64.004      -27.847      224.042      185.305       89.093    50194.628    34337.863     7937.554       19.460        4.624      544.041       97.960        0.032      341.468       16.197      855.085
06/24/2013  12:43:00     -437.939      -97.959      -26.507      296.910      215.840      107.290    88155.721    46587.004    11511.181       17.414        7.313      448.761      134.090        0.089      341.481       16.218      855.073
06/24/2013  12:44:00     -385.800     -161.082      -13.118      272.838      183.806       97.309    74440.397    33784.656     9468.952       14.630        5.885      418.078      118.565        0.080      341.441       16.153      855.089
06/24/2013  12:45:00     -459.108     -119.025      -27.839      207.123      140.424      102.364    42900.103    19718.798    10478.298       14.940        3.655      474.286      108.769        0.053      341.433       16.139      855.107
06/24/2013  12:46:00     -473.004     -107.940        2.893      290.359      213.495      113.107    84308.116    45580.227    12793.256       18.901        7.134      485.163      136.003        0.079      341.366       16.025      855.135
06/24/2013  12:47:00     -330.209      -24.204       -0.999      200.505      137.922       81.127    40202.073    19022.575     6581.569        8.770        3.290      331.095       90.604        0.075      341.380       16.050      855.153
06/24/2013  12:48:00     -325.477      -58.402       -7.854      191.561      123.873       74.926    36695.744    15344.565     5613.971        8.352        2.883      330.676       81.344        0.061      341.396       16.076      855.206
06/24/2013  12:49:00     -468.138     -114.916      -15.735      207.616      181.367      100.694    43104.342    32893.946    10139.300       15.936        4.307      482.036      104.601        0.047      341.364       16.023      855.192
06/24/2013  12:50:00     -404.777      -55.604       -2.656      221.564      157.264      107.622    49090.779    24731.903    11582.533       12.616        4.270      408.579      111.797        0.075      341.348       15.995      855.207
06/24/2013  12:51:00     -250.594     -124.416       10.330      220.835      133.171       90.792    48768.203    17734.448     8243.250        7.655        3.737      279.780      104.419        0.139      341.383       16.052      855.180
06/24/2013  12:52:00      -92.443      -71.207       -9.256      167.817       91.837       72.731    28162.710     8434.098     5289.729        2.779        2.094      116.688       54.314        0.217      341.396       16.077      855.167
06/24/2013  12:53:00     -237.401     -110.979       24.172      268.777      142.358       91.947    72240.844    20265.682     8454.239        8.509        5.048      262.060      125.155        0.228      341.401       16.085      855.174
06/24/2013  12:54:00     -359.697     -129.708        4.020      243.120      212.055       93.535    59107.515    44967.511     8748.860       12.950        5.641      382.369      106.789        0.078      341.318       15.946      855.157
06/24/2013  12:55:00     -418.475      -48.174        1.801      190.858      177.268       95.685    36426.762    31424.090     9155.533       12.721        3.850      421.239       77.651        0.034      341.369       16.031      855.128
06/24/2013  12:56:00     -344.292      -95.038       -0.245      302.306      218.105      117.072    91389.202    47570.005    13705.890       14.009        7.633      357.168      136.041        0.145      341.404       16.089      855.126
06/24/2013  12:57:00     -290.881     -182.532        5.943      238.616      203.399      112.975    56937.532    41371.162    12763.456       11.450        5.554      343.409      121.062        0.124      341.354       16.006      855.144
06/24/2013  12:58:00     -290.952      -49.124      -15.397      136.182      117.102       57.405    18545.630    13712.829     3295.357        6.142        1.778      295.070       59.753        0.041      341.396       16.075      855.200
06/24/2013  12:59:00     -422.556     -126.325      -27.104      213.170      149.082       80.791    45441.537    22225.523     6527.180       13.471        3.710      441.035       93.514        0.045      341.455       16.175      855.186
06/24/2013  13:00:00     -432.867     -101.898      -23.606      196.156      133.332       84.602    38477.077    17777.553     7157.467       13.085        3.171      444.699       86.396        0.038      341.472       16.205      855.198
06/24/2013  13:01:00     -419.960     -155.679      -14.118      217.890      154.742       87.730    47476.149    23945.084     7696.485       13.994        3.956      447.887       90.475        0.041      341.517       16.281      855.206
06/24/2013  13:02:00     -276.205       21.568       -4.669      160.046      146.653       77.853    25614.757    21506.989     6061.098        6.497        2.659      277.045       74.408        0.072      341.610       16.440      855.180
06/24/2013  13:03:00     -416.068     -200.891        7.267      242.618      171.055       98.337    58863.493    29259.834     9670.149       15.564        4.890      462.028      104.724        0.051      341.584       16.395      855.188
06/24/2013  13:04:00     -508.929      -33.121      -33.305      185.981      120.339       80.149    34588.946    14481.449     6423.880       15.834        2.775      510.006       83.367        0.027      341.478       16.214      855.168
06/24/2013  13:05:00     -487.474     -150.135      -22.542      188.793      204.613       88.099    35642.833    41866.566     7761.437       17.296        4.264      510.070       70.039        0.019      341.558       16.351      855.139
06/24/2013  13:06:00     -529.181     -153.877      -16.148      242.671      208.802      108.126    58889.368    43598.299    11691.301       20.905        5.709      551.099      112.831        0.042      341.531       16.304      855.088
06/24/2013  13:07:00     -429.742     -196.202      -18.237      221.121      183.400       92.013    48894.317    33635.693     8466.432       15.723        4.550      472.412      103.921        0.048      341.614       16.446      855.122
06/24/2013  13:08:00     -269.776      -67.812        1.002      186.038      161.895       86.239    34610.035    26210.148     7437.117        7.280        3.413      278.169       91.344        0.108      341.809       16.777      855.122
06/24/2013  13:09:00     -325.081     -271.175      -18.929      235.301      190.093      106.987    55366.696    36135.378    11446.118       14.124        5.147      423.336      123.715        0.085      341.793       16.749      855.083
06/24/2013  13:10:00     -370.038     -290.690       -3.441      208.038      175.552      102.132    43279.906    30818.583    10430.899       15.297        4.226      470.562      113.766        0.058      341.909       16.945      855.066
06/24/2013  13:11:00     -255.113      -50.088        7.322      319.264      165.269       95.041   101929.296    27313.815     9032.738       10.293        6.914      259.984      116.047        0.199      342.116       17.298      855.051
06/24/2013  13:12:00     -513.430     -206.473      -20.063      261.323      208.246      101.643    68289.911    43366.565    10331.326       21.429        6.099      553.390      126.532        0.052      342.122       17.308      855.047
06/24/2013  13:13:00     -488.871     -226.091      -18.505      231.522      155.727      105.800    53602.557    24250.877    11193.550       18.973        4.452      538.620      105.435        0.038      341.958       17.027      855.133
06/24/2013  13:14:00     -384.281     -285.809        4.539      255.323      165.824       95.085    65189.661    27497.716     9041.137       16.553        5.086      478.914       89.020        0.035      342.071       17.221      855.124
06/24/2013  13:15:00     -288.247     -143.332       -8.577      112.208      120.801       72.207    12590.569    14592.952     5213.922        6.804        1.620      321.917       64.574        0.040      342.340       17.677      855.132
06/24/2013  13:16:00     -258.553      -91.183        0.171      183.095      148.969       77.592    33523.660    22191.677     6020.483        6.844        3.087      274.160       87.660        0.102      342.359       17.712      855.136
06/24/2013  13:17:00     -338.897     -167.827       -3.058      246.720      177.523      102.260    60870.913    31514.331    10457.188       12.291        5.142      378.176      130.827        0.120      342.130       17.322      855.108
06/24/2013  13:18:00     -279.568      -23.663       -6.422      179.381      103.839       78.952    32177.531    10782.463     6233.379        6.397        2.460      280.568       78.707        0.079      342.326       17.654      855.098
06/24/2013  13:19:00     -378.223       40.458       -5.930      240.261      178.300       75.890    57725.412    31790.771     5759.243       11.998        4.764      380.381       90.576        0.057      342.397       17.776      855.116
06/24/2013  13:20:00     -329.839      -32.840       -4.466      151.498      131.863       67.962    22951.683    17387.937     4618.886        7.742        2.248      331.470       78.128        0.056      342.048       17.183      855.133
06/24/2013  13:21:00     -410.564     -209.671       -1.222      180.302      166.504       86.386    32508.852    27723.480     7462.593       14.010        3.385      461.004       90.315        0.038      342.151       17.356      855.099
06/24/2013  13:22:00     -305.251     -120.422      -18.102      183.306      203.155       82.925    33601.193    41272.098     6876.610        9.486        4.087      328.146       83.907        0.065      342.314       17.634      855.062
06/24/2013  13:23:00     -431.178     -185.560      -18.551      193.043      197.397      102.946    37265.774    38965.444    10597.879       15.374        4.341      469.411      102.089        0.047      342.417       17.810      855.051
06/24/2013  13:24:00     -383.731     -213.383       -5.187      237.381      194.563       99.060    56349.627    37854.698     9812.933       14.839        5.201      439.069      113.475        0.067      342.463       17.888      855.046
06/24/2013  13:25:00     -331.695     -243.009      -10.827      252.308      182.576       94.860    63659.283    33333.901     8998.333       13.757        5.300      411.188      111.899        0.074      342.315       17.637      855.062
06/24/2013  13:26:00     -381.409     -222.022      -14.272      205.251      131.749       79.569    42127.871    17357.756     6331.282       13.038        3.291      441.324       92.416        0.044      342.239       17.506      855.088
06/24/2013  13:27:00     -315.433     -194.269      -14.510      135.967      153.084       70.557    18487.132    23434.588     4978.241        9.217        2.345      370.457       76.234        0.042      342.161       17.373      855.038
06/24/2013  13:28:00     -157.533     -114.570        9.618      131.126       92.616       66.278    17194.019     8577.694     4392.763        3.409        1.508      194.789       73.131        0.141      342.290       17.594      854.983
06/24/2013  13:29:00     -175.971     -125.566       -2.339      129.931      117.051       59.015    16882.087    13700.933     3482.761        4.040        1.703      216.177       57.116        0.070      342.562       18.055      854.923
06/24/2013  13:30:00     -210.727     -195.258        3.108      170.082      142.306       77.546    28928.004    20251.079     6013.403        6.886        2.760      287.283       87.425        0.093      342.602       18.124      854.963
06/24/2013  13:31:00     -354.288     -231.120        2.208      200.693      144.713       87.845    40277.725    20941.872     7716.781       12.393        3.447      423.009       92.373        0.048      342.531       18.003      854.967
06/24/2013  13:32:00     -405.728     -253.856       -6.649      208.874      179.069       91.210    43628.548    32065.848     8319.313       15.654        4.201      478.600       92.580        0.037      342.551       18.037      854.979
06/24/2013  13:33:00     -441.461     -158.608      -17.699      259.432      161.101       95.208    67304.934    25953.691     9064.478       16.132        5.116      469.089      109.163        0.054      342.563       18.057      854.972
06/24/2013  13:34:00     -318.644     -254.691       11.097      267.313      184.272      103.785    71456.266    33956.179    10771.338       14.133        5.809      407.923      128.989        0.100      342.704       18.298      854.956
06/24/2013  13:35:00     -332.787     -117.081       -3.761      165.159      113.881       74.935    27277.456    12968.842     5615.196        8.516        2.293      352.782       83.384        0.056      342.753       18.382      854.991
06/24/2013  13:36:00     -343.868     -273.450       -1.431      192.338      145.560       86.711    36993.906    21187.785     7518.878       12.935        3.285      439.340       97.920        0.050      342.532       18.004      854.996
06/24/2013  13:37:00     -292.145     -157.399       12.626      171.720      170.201       76.334    29487.760    28968.533     5826.917        8.727        3.214      331.848       77.866        0.055      342.698       18.287      854.978
06/24/2013  13:38:00     -311.179     -294.867        5.348      207.180      179.261      121.536    42923.515    32134.441    14770.963       13.680        4.491      428.694      128.613        0.090      342.430       17.832      854.943
06/24/2013  13:39:00     -369.158     -314.636       -9.138      212.048      220.692       95.354    44964.164    48705.136     9092.425       16.904        5.138      485.050      104.989        0.047      342.591       18.105      854.946
06/24/2013  13:40:00     -208.219      -71.074       11.727      223.853      149.562      113.075    50110.109    22368.881    12785.868        6.689        4.263      220.015      126.813        0.332      342.936       18.692      854.928
06/24/2013  13:41:00     -348.747     -302.991        5.609      286.050      206.984      127.177    81824.429    42842.189    16174.045       17.712        7.042      461.983      144.191        0.097      342.852       18.549      854.951
06/24/2013  13:42:00     -449.657     -324.239       -9.282      220.455      178.073      103.388    48600.613    31710.142    10689.027       19.919        4.550      554.367      113.566        0.042      342.616       18.147      854.997
06/24/2013  13:43:00     -363.544     -295.274       -5.825      150.199      134.128       70.185    22559.769    17990.199     4925.906       13.242        2.274      468.350       74.836        0.026      342.580       18.085      855.060
06/24/2013  13:44:00     -220.671     -182.046        0.713      112.855       95.301       56.717    12736.211     9082.230     3216.787        5.343        1.252      286.071       59.888        0.044      342.975       18.758      855.022
06/24/2013  13:45:00     -124.064     -168.931       10.611      113.870      146.248       65.885    12966.306    21388.505     4340.881        4.136        1.935      209.594       65.021        0.096      343.284       19.287      855.019
06/24/2013  13:46:00     -200.339     -231.976       15.455      155.580      145.393       85.811    24205.269    21139.003     7363.473        7.344        2.635      306.510       90.544        0.087      343.213       19.163      855.025
06/24/2013  13:47:00     -280.511     -123.301       -4.045      234.465      179.918      105.184    54973.820    32370.327    11063.746        9.614        4.920      306.415      110.976        0.131      343.244       19.215      855.023
06/24/2013  13:48:00     -415.793     -261.351      -15.794      267.909      230.997      103.236    71775.479    53359.658    10657.696       18.859        6.790      491.109      132.832        0.073      342.965       18.740      854.999
06/24/2013  13:49:00     -517.958     -295.355       -7.968      241.263      193.280       92.839    58207.987    37357.204     8619.138       22.986        5.209      596.251      100.310        0.028      342.932       18.684      855.037
06/24/2013  13:50:00     -303.372     -205.417       -0.545      193.651      121.768       81.271    37500.744    14827.453     6604.941        9.657        2.947      366.375       96.470        0.069      342.941       18.700      855.088
06/24/2013  13:51:00     -232.037      -97.929      -11.036      211.764      112.277       61.236    44843.859    12606.146     3749.791        6.236        3.060      251.855       72.651        0.083      343.203       19.147      855.071
06/24/2013  13:52:00     -306.051      -30.375      -14.757      220.331      129.224       98.233    48545.542    16698.958     9649.779        8.484        3.745      307.555      117.017        0.145      343.191       19.126      855.043
06/24/2013  13:53:00     -242.007      -91.784        6.894      145.633      167.123       84.305    21208.876    27930.021     7107.404        6.163        2.812      258.827       69.574        0.072      343.221       19.176      855.038
06/24/2013  13:54:00     -359.869      -65.883      -21.499      194.382      173.556       93.016    37784.287    30121.600     8651.901       10.542        3.828      365.851      101.358        0.077      343.087       18.950      855.007
06/24/2013  13:55:00     -326.674      -84.039       -0.005      158.002      187.476       79.683    24964.562    35147.118     6349.346        9.011        3.323      337.310       76.589        0.052      343.312       19.333      854.991
06/24/2013  13:56:00     -492.391     -231.682      -23.367      237.202      230.616      109.420    56264.943    53183.526    11972.808       20.902        6.071      544.174      123.387        0.051      343.071       18.921      854.999
06/24/2013  13:57:00     -278.753     -189.700      -10.647      199.934      129.747       71.493    39973.447    16834.381     5111.272        8.785        3.096      337.179       83.749        0.062      343.083       18.941      855.031
06/24/2013  13:58:00     -211.008     -199.184       12.880      140.624      125.317       75.313    19775.085    15704.474     5672.068        6.275        2.058      290.170       79.049        0.074      343.501       19.652      855.024
06/24/2013  13:59:00     -486.766     -229.274      -13.669      279.529      232.665      114.122    78136.496    54133.036    13023.789       21.747        7.265      538.059      139.367        0.067      343.078       18.935      855.025
06/24/2013  14:00:00     -498.576     -236.434        6.759      353.910      223.051      133.988   125252.247    49751.607    17952.743       24.870        9.648      551.796      167.222        0.092      342.856       18.556      855.004
06/24/2013  14:01:00     -376.489     -226.121        2.025      200.102      140.394       90.048    40040.850    19710.553     8108.629       13.036        3.393      439.175      104.251        0.056      342.841       18.530      855.030
06/24/2013  14:02:00     -341.273     -191.867       -1.410      221.361      145.010       78.941    49000.793    21027.992     6231.738       11.476        3.813      391.510       92.119        0.055      342.943       18.702      855.023
06/24/2013  14:03:00     -383.817     -120.519        8.694      219.257      186.373      113.731    48073.499    34734.717    12934.664       12.881        4.787      402.293      120.289        0.089      343.093       18.959      855.062
06/24/2013  14:04:00     -441.366      -62.405        1.130      217.596      165.966       90.043    47347.847    27544.753     8107.669       14.083        4.150      445.756       90.080        0.041      343.041       18.871      855.077
06/24/2013  14:05:00     -456.714      -84.457      -24.765      240.154      169.731       90.002    57674.157    28808.766     8100.422       15.544        4.729      464.457       98.029        0.045      343.016       18.826      855.095
06/24/2013  14:06:00     -521.130     -243.336       -9.345      296.220      159.323       90.787    87746.096    25383.807     8242.246       22.610        6.069      575.143      104.084        0.033      343.004       18.808      855.074
06/24/2013  14:07:00     -388.645     -308.418      -10.240      281.195      191.651      113.007    79070.462    36730.162    12770.628       18.740        6.429      496.151      135.238        0.074      342.876       18.589      855.090
06/24/2013  14:08:00     -320.245     -326.706      -16.746      226.171      188.279      113.765    51153.127    35448.802    12942.509       15.454        4.977      457.486      114.350        0.062      343.025       18.843      855.128
06/24/2013  14:09:00     -257.009     -169.692       -7.990      149.064      125.403       71.711    22220.045    15725.811     5142.423        6.899        2.154      307.976       76.442        0.062      342.980       18.768      855.195
06/24/2013  14:10:00     -231.854     -102.802       10.972      169.789      153.260       70.692    28828.372    23488.696     4997.310        6.087        2.866      253.623       75.401        0.088      343.085       18.946      855.220
06/24/2013  14:11:00     -388.876      -36.276      -24.048      237.631      128.980       82.042    56468.645    16635.821     6730.944       11.646        3.992      390.564      113.925        0.085      343.030       18.852      855.233
06/24/2013  14:12:00     -313.002     -188.657       -3.741      281.143      167.528       94.985    79041.651    28065.632     9022.182       12.483        5.806      365.460      105.864        0.084      343.041       18.872      855.244
06/24/2013  14:13:00     -276.368     -146.110        8.251      262.081      137.780       78.548    68686.329    18983.373     6169.850        9.580        4.692      312.614      102.067        0.107      342.966       18.744      855.278
06/24/2013  14:14:00     -425.294      -34.185       -5.947      209.587      148.137       82.584    43926.541    21944.621     6820.082       12.737        3.635      426.666       85.195        0.040      342.873       18.584      855.277
06/24/2013  14:15:00     -376.319      -34.603       -8.942      216.837      188.876       78.961    47018.069    35674.262     6234.817       11.589        4.446      377.906       98.512        0.068      342.982       18.769      855.258
06/24/2013  14:16:00     -367.362      -58.586       -4.162      242.295      187.860      108.391    58707.035    35291.279    11748.703       12.206        5.287      372.004      111.563        0.090      342.955       18.723      855.209
06/24/2013  14:17:00     -448.174      -11.304      -15.051      215.032      140.262       84.672    46238.726    19673.405     7169.347       13.713        3.654      448.317      100.257        0.050      342.952       18.719      855.224
06/24/2013  14:18:00     -548.171      -49.593      -32.385      240.045      184.167       95.856    57621.669    33917.307     9188.341       20.234        5.036      550.410      117.272        0.045      342.741       18.361      855.216
06/24/2013  14:19:00     -508.680     -155.449       -7.811      209.810      203.038      104.706    44020.219    41224.330    10963.259       18.958        4.810      531.902      107.474        0.041      342.646       18.198      855.237
06/24/2013  14:20:00     -529.276     -119.033      -22.632      230.401      168.659       99.684    53084.556    28445.858     9936.810       19.312        4.573      542.496      111.645        0.042      342.583       18.092      855.247
06/24/2013  14:21:00     -623.316     -154.723      -34.977      222.238      172.277      104.336    49389.565    29679.471    10886.057       25.180        4.498      642.232      110.353        0.030      342.527       17.996      855.188
06/24/2013  14:22:00     -477.992     -269.434      -17.337      274.580      217.326      106.016    75394.030    47230.723    11239.321       21.759        6.693      548.700      121.723        0.049      342.572       18.074      855.197
06/24/2013  14:23:00     -242.143     -102.203       16.197      278.767      215.993      130.974    77711.017    46653.095    17154.233       10.540        7.076      262.828      157.664        0.360      342.691       18.276      855.183
06/24/2013  14:24:00     -562.540      -94.870      -11.713      242.667      155.362      101.980    58887.307    24137.458    10400.009       20.949        4.671      570.483      106.145        0.035      342.370       17.729      855.211
06/24/2013  14:25:00     -274.313     -127.428        7.974      218.946      130.434       94.836    47937.557    17012.963     8993.904        8.273        3.697      302.466      111.366        0.136      342.607       18.133      855.240
06/24/2013  14:26:00     -299.926     -269.730        3.874      294.293      213.672      118.865    86608.595    45655.890    14128.840       15.453        7.320      403.373      149.731        0.138      342.559       18.050      855.253
06/24/2013  14:27:00     -252.303     -149.624       -3.562      226.871      146.543       74.295    51470.413    21474.862     5519.697        8.225        3.923      293.333       96.490        0.108      342.620       18.154      855.298
06/24/2013  14:28:00     -474.699     -102.213      -29.185      255.077      181.962       97.977    65064.406    33110.297     9599.501       17.219        5.389      485.579      128.396        0.070      342.564       18.059      855.338
06/24/2013  14:29:00     -417.222     -202.093      -20.510      208.156      132.051       87.584    43328.993    17437.422     7671.038       14.187        3.422      463.590       99.386        0.046      342.609       18.135      855.329
06/24/2013  14:30:00     -349.895     -191.584      -11.253      225.606      174.698      106.772    50898.032    30519.234    11400.212       12.602        4.641      398.912      111.594        0.078      342.629       18.170      855.285
06/24/2013  14:31:00     -304.532     -107.358      -10.317      236.299      169.929       91.071    55837.019    28875.940     8293.921        9.867        4.650      322.902      102.621        0.101      342.620       18.153      855.293
06/24/2013  14:32:00     -319.135     -227.825        7.753      261.336      227.141       98.516    68296.312    51593.105     9705.331       14.168        6.480      392.112      113.831        0.084      342.563       18.057      855.290
06/24/2013  14:33:00     -462.953     -198.037      -12.182      315.345      186.139      113.217    99442.644    34647.684    12818.182       20.027        7.345      503.531      130.476        0.067      342.532       18.004      855.280
06/24/2013  14:34:00     -546.952      -91.831       -5.457      249.825      187.561      108.841    62412.396    35178.967    11846.411       20.851        5.472      554.607      121.402        0.048      342.520       17.984      855.268
06/24/2013  14:35:00     -556.945      -44.363      -27.119      230.702      218.143      109.513    53223.312    47586.173    11993.175       21.282        5.640      558.709      114.130        0.042      342.435       17.840      855.303
06/24/2013  14:36:00     -472.590      -31.896      -11.562      190.813      169.027       84.466    36409.479    28570.102     7134.554       14.829        3.606      473.665       89.491        0.036      342.504       17.958      855.303
06/24/2013  14:37:00     -271.889       26.547       13.750      213.014      162.478       94.359    45375.034    26398.976     8903.561        7.773        4.034      273.181      115.288        0.178      342.622       18.158      855.306
06/24/2013  14:38:00     -421.238      -64.945        0.727      242.794      186.351       94.054    58949.048    34726.707     8846.243       14.207        5.126      426.215      109.081        0.065      342.503       17.956      855.336
06/24/2013  14:39:00     -383.998     -140.319        9.368      241.260      176.474       94.758    58206.278    31143.043     8979.079       13.276        4.916      408.832      109.588        0.072      342.534       18.008      855.385
06/24/2013  14:40:00     -308.824      -71.504       12.865      276.192      197.621       93.953    76282.128    39053.952     8827.084       11.238        6.208      316.994      114.138        0.130      342.563       18.056      855.433
06/24/2013  14:41:00     -419.305     -132.896      -13.231      263.780      194.953       98.930    69579.631    38006.500     9787.179       15.549        5.869      439.861      112.567        0.065      342.403       17.784      855.452
06/24/2013  14:42:00     -637.353     -242.543      -47.981      264.774      192.571      100.732    70105.374    37083.522    10146.863       29.232        5.867      681.943      128.047        0.035      342.291       17.595      855.488
06/24/2013  14:43:00     -575.093      -79.441       -9.481      259.730      186.020      114.239    67459.739    34603.325    13050.503       22.610        5.756      580.554      129.124        0.049      342.243       17.512      855.501
06/24/2013  14:44:00     -525.214      -74.238      -23.424      210.185      215.642       90.195    44177.887    46501.407     8135.186       19.034        4.941      530.435      104.771        0.039      342.275       17.568      855.516
06/24/2013  14:45:00     -311.556     -164.909      -12.257      188.788      159.292       73.940    35640.736    25373.973     5467.175        9.543        3.324      352.508       90.909        0.067      342.405       17.789      855.543
06/24/2013  14:46:00     -465.879     -230.127       -4.843      266.255      247.983      117.618    70891.864    61495.570    13833.878       20.809        7.311      519.617      136.108        0.069      342.343       17.683      855.587
06/24/2013  14:47:00     -330.704     -204.750       -1.181      186.738      173.514       96.688    34870.905    30106.981     9348.651       11.279        3.716      388.957      104.945        0.073      342.378       17.742      855.632
06/24/2013  14:48:00     -358.738     -247.677       -3.612      216.621      212.883      113.757    46924.738    45319.259    12940.607       14.760        5.259      435.932      111.983        0.066      342.335       17.670      855.667
06/24/2013  14:49:00     -222.229     -199.249       10.028      176.209      141.555       89.672    31049.660    20037.829     8041.153        7.415        2.956      298.473       95.722        0.103      342.417       17.809      855.656
06/24/2013  14:50:00     -441.895     -105.890      -20.126      191.926      206.537       90.899    36835.521    42657.622     8262.655       14.731        4.388      454.405      100.510        0.049      342.359       17.710      855.712
06/24/2013  14:51:00     -441.119      -99.155       -3.158      186.677      135.895       86.034    34848.351    18467.422     7401.867       13.256        3.036      452.126       89.194        0.039      342.219       17.473      855.743
06/24/2013  14:52:00     -563.764      -97.372      -23.710      332.826      159.749      101.851   110772.826    25519.607    10373.653       23.724        7.333      572.111      135.570        0.056      342.195       17.430      855.754
06/24/2013  14:53:00     -732.193     -137.893      -40.935      348.782      230.353      134.553   121649.015    53062.546    18104.443       37.477        9.641      745.065      165.145        0.049      342.018       17.131      855.743
06/24/2013  14:54:00     -541.753      -34.766      -23.642      241.213      153.436      102.720    58183.510    23542.645    10551.315       19.375        4.614      542.867      120.050        0.049      342.069       17.218      855.784
06/24/2013  14:55:00     -453.809      -83.818      -12.200      216.810      153.857       92.457    47006.708    23671.825     8548.291       14.616        3.961      461.485      106.704        0.053      342.159       17.371      855.830
06/24/2013  14:56:00     -408.117      -71.971      -16.115      234.322      201.502       74.130    54906.677    40603.121     5495.198       13.648        5.050      414.414       82.031        0.039      342.177       17.400      855.854
06/24/2013  14:57:00     -529.913     -277.465      -13.331      281.567      196.183      119.539    79279.695    38487.882    14289.471       24.499        6.603      598.159      144.717        0.059      342.024       17.141      855.812
06/24/2013  14:58:00     -636.333     -262.211       -8.134      298.004      234.083      124.161    88806.594    54794.949    15415.882       31.635        7.951      688.240      134.302        0.038      341.967       17.043      855.816
06/24/2013  14:59:00     -360.803     -144.199       -5.977      249.324      184.082      101.367    62162.577    33886.108    10275.342       12.865        5.316      388.551      115.117        0.088      342.100       17.270      855.888
06/24/2013  15:00:00     -288.004     -148.687        4.109      260.760      171.894       88.232    67996.032    29547.497     7784.827       10.518        5.266      324.121      122.131        0.142      342.029       17.150      855.882
06/24/2013  15:01:00     -240.863      -72.302        4.504      219.303      139.721       82.911    48093.949    19521.824     6874.227        6.886        3.724      251.480       75.090        0.089      342.152       17.359      855.869
06/24/2013  15:02:00     -451.864      -93.726      -14.833      274.975      187.394       97.834    75611.096    35116.443     9571.497       16.672        6.015      461.482      124.365        0.073      342.027       17.145      855.841
06/24/2013  15:03:00     -617.432     -160.947      -17.590      302.948      209.563      123.452    91777.705    43916.598    15240.313       27.916        7.547      638.065      159.426        0.062      341.917       16.960      855.907
06/24/2013  15:04:00     -464.412      -67.856      -11.140      301.238      197.942      105.325    90744.117    39180.875    11093.311       18.068        7.051      469.343      144.482        0.095      341.817       16.790      855.904
06/24/2013  15:05:00     -377.133      -54.082        8.280      198.793      161.672       91.456    39518.501    26137.855     8364.261       10.961        3.701      380.991       95.416        0.063      341.936       16.991      855.896
06/24/2013  15:06:00     -367.059      -76.026       -6.555      188.208      159.356       80.339    35422.185    25394.180     6454.371       10.390        3.364      374.850       83.340        0.049      341.966       17.042      855.921
06/24/2013  15:07:00     -385.477      -98.920       -1.070      285.813      171.822       89.651    81689.205    29522.681     8037.301       13.879        5.962      397.967      120.982        0.092      341.914       16.954      855.901
06/24/2013  15:08:00     -433.212     -170.121      -19.680      233.835      175.307      116.771    54678.793    30732.474    13635.531       15.800        4.952      465.417      124.039        0.071      341.837       16.823      855.865
06/24/2013  15:09:00     -407.490     -171.106      -38.292      283.748      134.254       91.066    80513.007    18024.163     8292.996       15.179        5.342      441.956       99.282        0.050      341.917       16.959      855.859
06/24/2013  15:10:00     -442.200     -137.819      -11.077      174.801      131.104       84.453    30555.313    17188.326     7132.356       13.476        2.744      463.179       92.851        0.040      341.719       16.622      855.816
06/24/2013  15:11:00     -364.251      -52.250      -13.821      191.627      144.814       75.510    36720.942    20971.227     5701.793        9.948        3.170      367.980       80.669        0.048      341.705       16.602      855.769
06/24/2013  15:12:00     -246.552       19.571       -1.882      141.091      151.687       71.420    19906.631    23009.046     5100.787        5.459        2.401      247.328       65.909        0.071      341.829       16.810      855.749
06/24/2013  15:13:00     -447.133     -115.655      -21.990      221.175      187.989       83.929    48918.345    35340.045     7044.132       15.253        4.565      461.849      112.752        0.060      341.759       16.692      855.715
06/24/2013  15:14:00     -277.210      -24.974        5.541      158.376      114.864       81.236    25083.049    13193.702     6599.304        6.118        2.244      278.333       81.146        0.085      341.840       16.829      855.715
06/24/2013  15:15:00     -356.390       26.703       -8.507      157.932      146.976       70.914    24942.414    21601.958     5028.769        8.968        2.579      357.389       52.197        0.021      341.786       16.736      855.712
06/24/2013  15:16:00     -399.538     -128.720      -14.155      148.191      113.496       71.039    21960.666    12881.372     5046.541       10.814        1.994      419.761       77.035        0.034      341.802       16.763      855.742
06/24/2013  15:17:00     -338.892      -76.754      -19.538      138.753      116.327       63.561    19252.273    13532.000     4040.008        7.897        1.841      347.475       75.169        0.047      341.858       16.858      855.805
06/24/2013  15:18:00     -444.224      -83.425        4.834      262.247      152.750       73.754    68773.525    23332.713     5439.629       15.091        4.877      451.990       76.402        0.029      341.807       16.774      855.821
06/24/2013  15:19:00     -388.916     -138.755       -4.351      219.027      188.176       93.288    47973.039    35410.104     8702.656       13.129        4.604      412.926      102.605        0.062      341.717       16.619      855.801
06/24/2013  15:20:00     -282.944        0.456      -12.402      125.381      139.339       69.576    15720.499    19415.359     4840.760        6.009        1.999      282.945       68.213        0.058      341.772       16.713      855.776
06/24/2013  15:21:00     -392.890      -96.608      -25.353      144.112      138.119       67.355    20768.267    19076.894     4536.705       10.435        2.219      404.594       63.152        0.024      341.682       16.561      855.714
06/24/2013  15:22:00     -382.913        7.806      -22.919      199.555      123.833       65.868    39822.171    15334.513     4338.595       10.334        2.975      382.993       58.872        0.024      341.743       16.665      855.725
06/24/2013  15:23:00     -393.183     -129.759      -10.943      211.705      175.957       98.300    44819.000    30960.885     9662.959       12.848        4.272      414.041      102.149        0.061      341.625       16.465      855.714
06/24/2013  15:24:00     -290.040      -91.237       10.213      228.505      146.723       77.940    52214.689    21527.626     6074.652        8.617        3.991      304.051       90.899        0.089      341.658       16.521      855.719
06/24/2013  15:25:00     -343.140       26.735      -23.951      216.652      115.690       71.345    46938.285    13384.077     5090.174        9.221        3.271      344.180       91.253        0.070      341.650       16.507      855.673
06/24/2013  15:26:00     -441.873       13.311      -20.512      199.656      132.866       88.774    39862.434    17653.449     7880.902       13.061        3.270      442.073       92.430        0.044      341.564       16.361      855.640
06/24/2013  15:27:00     -450.723       -1.295      -46.998      178.977      136.585       82.367    32032.883    18655.577     6784.309       13.141        2.874      450.724       93.014        0.043      341.471       16.204      855.608
06/24/2013  15:28:00     -368.614     -176.460       -9.516      242.373      142.301       94.223    58744.771    20249.508     8877.986       12.747        4.394      408.674       93.160        0.052      341.612       16.443      855.586
06/24/2013  15:29:00     -325.242      -85.327       -5.733      162.913       92.940       60.059    26540.535     8637.839     3607.055        7.593        1.939      336.248       52.772        0.025      341.617       16.452      855.663
06/24/2013  15:30:00     -287.369     -133.874       -2.257      124.580       94.400       61.851    15520.236     8911.341     3825.565        6.438        1.413      317.022       66.017        0.043      341.641       16.492      855.698
06/24/2013  15:31:00     -417.627     -122.554      -13.043      190.728      155.027       83.070    36377.341    24033.384     6900.614       12.844        3.366      435.238       99.835        0.053      341.743       16.665      855.675
06/24/2013  15:32:00     -375.538      -43.647      -11.487      236.406      168.439       82.055    55887.688    28371.707     6733.090       11.701        4.550      378.066       97.205        0.066      341.787       16.736      855.654
06/24/2013  15:33:00     -533.341      -10.465      -46.376      172.473      134.607       66.489    29746.836    18118.925     4420.750       16.949        2.614      533.444       70.910        0.018      341.734       16.648      855.666
06/24/2013  15:34:00     -451.826      -13.762      -40.747      130.629      145.551       75.931    17063.861    21185.067     5765.476       12.500        2.201      452.036       72.336        0.026      341.725       16.634      855.652
06/24/2013  15:35:00     -238.831      -26.036        4.400      151.637       99.932       64.026    22993.729     9986.437     4099.303        4.740        1.854      240.246       78.809        0.108      341.932       16.985      855.639
06/24/2013  15:36:00     -190.615      -64.612        4.580      139.341       93.660       69.314    19416.018     8772.280     4804.375        3.675        1.650      201.268       51.627        0.066      341.913       16.954      855.643
06/24/2013  15:37:00     -245.600      -61.809        1.649      135.454       88.923       49.293    18347.866     7907.300     2429.823        4.641        1.434      253.258       54.549        0.046      341.841       16.831      855.672
06/24/2013  15:38:00     -177.247     -140.224       -7.586      120.832      144.573       69.055    14600.361    20901.383     4768.554        4.570        2.014      226.008       76.539        0.115      341.968       17.045      855.706
06/24/2013  15:39:00     -276.394     -117.247      -19.843      141.494      145.514       69.657    20020.541    21174.450     4852.098        6.828        2.302      300.234       71.710        0.057      342.065       17.209      855.769
06/24/2013  15:40:00     -399.668      -57.226      -28.925      157.157      104.408       62.608    24698.391    10901.001     3919.772       10.167        1.976      403.744       72.627        0.032      342.000       17.099      855.809
06/24/2013  15:41:00     -273.386      -72.354       -6.192      180.231      145.240       73.410    32483.188    21094.728     5388.993        6.948        2.948      282.798       85.890        0.092      342.077       17.232      855.781
06/24/2013  15:42:00     -163.985      -93.054        4.160      115.615      113.270       55.426    13366.925    12830.111     3072.059        3.241        1.463      188.547       54.911        0.085      342.191       17.424      855.710
06/24/2013  15:43:00      -89.477       -8.672       10.062      121.298       65.098       47.877    14713.301     4237.696     2292.166        1.471        1.062       89.896       59.960        0.445      342.291       17.597      855.662
06/24/2013  15:44:00     -271.036     -102.437      -21.560      147.788      116.140       59.548    21841.373    13488.501     3545.930        6.164        1.944      289.747       61.601        0.045      342.250       17.525      855.620
06/24/2013  15:45:00     -323.770     -115.712      -14.602      159.835      124.407       69.769    25547.139    15477.137     4867.680        8.215        2.295      343.826       78.886        0.053      342.145       17.346      855.573
06/24/2013  15:46:00     -343.278      -60.978       -6.600      181.122      143.499       84.560    32805.103    20591.847     7150.328        9.106        3.027      348.652       87.684        0.063      342.088       17.250      855.518
06/24/2013  15:47:00     -284.732      -69.992        2.591      192.160      109.978       68.256    36925.417    12095.233     4658.821        6.982        2.684      293.209       73.401        0.063      342.018       17.131      855.537
06/24/2013  15:48:00     -291.471      -50.658      -24.328      143.648       93.016       56.277    20634.891     8652.055     3167.097        6.028        1.623      295.840       49.366        0.028      342.033       17.155      855.548
06/24/2013  15:49:00     -235.702      -50.273       -3.080      134.142       79.000       46.315    17994.194     6241.047     2145.046        4.223        1.319      241.004       54.719        0.052      342.039       17.167      855.540
06/24/2013  15:50:00     -160.894       -3.503        5.523      109.539       83.075       55.176    11998.821     6901.374     3044.444        2.393        1.097      160.933       45.790        0.081      342.109       17.286      855.520
06/24/2013  15:51:00     -292.735     -150.729      -22.917      152.135      123.611       67.596    23145.037    15279.620     4569.248        7.596        2.150      329.261       64.723        0.039      342.132       17.326      855.496
06/24/2013  15:52:00     -352.678     -270.949      -21.775      169.039      110.932       80.470    28574.163    12305.811     6475.355       12.280        2.368      444.741       93.206        0.044      342.086       17.246      855.487
06/24/2013  15:53:00     -210.983     -133.906      -14.738      118.438       85.164       49.481    14027.522     7252.928     2448.337        4.319        1.186      249.889       54.824        0.048      342.139       17.338      855.453
06/24/2013  15:54:00     -188.342     -131.863       -9.570      135.615       94.116       47.830    18391.474     8857.909     2287.739        4.124        1.477      229.914       62.244        0.073      342.143       17.342      855.413
06/24/2013  15:55:00     -163.559      -87.807      -11.441       75.480       77.961       39.223     5697.173     6077.908     1538.480        2.395        0.666      185.639       44.528        0.058      342.283       17.583      855.425
06/24/2013  15:56:00     -359.300      -54.354      -18.038      135.634      112.119       59.823    18396.682    12570.616     3578.793        8.345        1.727      363.388       60.657        0.028      342.328       17.657      855.435
06/24/2013  15:57:00     -352.391        8.143      -12.283      176.256      129.408       71.597    31066.060    16746.378     5126.066        8.866        2.647      352.485       83.078        0.056      342.439       17.847      855.432
06/24/2013  15:58:00     -339.984      -62.189      -12.312      106.401      108.665       63.188    11321.104    11808.072     3992.732        7.336        1.356      345.625       53.906        0.024      342.365       17.720      855.451
06/24/2013  15:59:00     -318.336      -69.766      -14.450      158.103      109.196       66.788    24996.424    11923.676     4460.655        7.389        2.069      325.891       81.024        0.062      342.163       17.378      855.477
06/24/2013  16:00:00     -295.124     -132.589      -26.984      125.392       73.445       54.304    15723.053     5394.106     2948.971        6.473        1.203      323.540       32.368        0.010      342.060       17.200      855.507
06/24/2013  16:01:00     -240.651      -53.525      -22.772      104.655      104.656       44.838    10952.656    10952.912     2010.462        4.260        1.196      246.532       44.005        0.032      342.109       17.285      855.548
06/24/2013  16:02:00     -232.138        3.144      -33.761       75.473       67.657       39.375     5696.212     4577.425     1550.387        3.343        0.591      232.159       31.278        0.018      342.145       17.346      855.538
06/24/2013  16:03:00     -157.224       38.328      -19.377       73.993       99.167       39.842     5474.941     9834.034     1587.419        2.173        0.845      161.829       25.989        0.026      342.181       17.410      855.526
06/24/2013  16:04:00     -367.730      -33.272      -28.955      139.401       90.427       51.413    19432.533     8177.003     2643.269        8.371        1.513      369.232       51.985        0.020      342.106       17.282      855.542
06/24/2013  16:05:00     -330.567     -102.312      -14.992      109.725       82.584       43.844    12039.582     6820.145     1922.297        7.037        1.039      346.038       36.185        0.011      342.177       17.401      855.618
06/24/2013  16:06:00     -255.723      -27.280      -10.725       97.049      102.242       54.629     9418.476    10453.441     2984.293        4.455        1.143      257.174       50.805        0.039      342.191       17.425      855.656
06/24/2013  16:07:00     -212.395      -77.277       -2.721      130.659       92.822       57.109    17071.818     8616.008     3261.462        4.001        1.447      226.016       60.719        0.072      342.300       17.610      855.652
06/24/2013  16:08:00     -328.300     -103.408      -10.663      149.816      130.962       69.284    22444.980    17150.967     4800.213        8.148        2.220      344.201       65.600        0.036      342.055       17.194      855.631
06/24/2013  16:09:00     -184.148      -16.907       -2.735      156.457       91.178       53.587    24478.879     8313.423     2871.523        3.493        1.783      184.922       60.626        0.107      342.100       17.270      855.611
06/24/2013  16:10:00     -149.141       89.520       -0.792      147.576       83.496       75.522    21778.623     6971.663     5703.577        3.235        1.723      173.945       84.366        0.235      342.259       17.540      855.587
06/24/2013  16:11:00     -181.250       -2.325      -24.698       77.801       85.891       42.143     6052.927     7377.189     1776.061        2.433        0.760      181.265       23.680        0.017      342.341       17.680      855.621
06/24/2013  16:12:00     -143.170       18.971      -25.031       84.380       59.161       42.359     7120.038     3500.008     1794.311        1.695        0.621      144.421       42.581        0.087      342.097       17.268      855.665
06/24/2013  16:13:00      -35.749      103.664       -5.063       82.848       83.103       44.070     6863.776     6906.109     1942.208        1.388        0.786      109.655       43.555        0.158      342.240       17.510      855.673
06/24/2013  16:14:00     -223.594      -28.737      -31.690       93.354       42.789       32.547     8714.977     1830.882     1059.325        3.171        0.580      225.433       39.410        0.031      342.178       17.402      855.708
06/24/2013  16:15:00     -172.045      -67.305       -8.662       82.766       78.049       40.828     6850.141     6091.684     1666.916        2.440        0.730      184.742       35.755        0.037      342.361       17.715      855.741
06/24/2013  16:16:00     -100.403      -38.555       -1.140       65.343       64.696       31.384     4269.700     4185.517      984.958        1.050        0.472      107.551       28.621        0.071      342.326       17.659      855.774
06/24/2013  16:17:00      -12.584       26.274       14.340       50.644       35.017       35.672     2564.809     1226.157     1272.482        0.306        0.253       29.132       35.422        1.478      342.549       18.037      855.804
06/24/2013  16:18:00       -9.835       40.113        6.323       56.446       47.034       22.160     3186.104     2212.176      491.050        0.382        0.294       41.301       22.407        0.294      342.578       18.085      855.835
06/24/2013  16:19:00      -54.964        9.242       -1.522       36.358       20.906       16.252     1321.918      437.073      264.117        0.257        0.101       55.736       14.266        0.066      342.599       18.120      855.884
06/24/2013  16:20:00     -161.566      -55.219      -17.176      115.558       43.437       25.437    13353.766     1886.770      647.041        2.266        0.794      170.742       30.026        0.031      342.625       18.164      855.942
06/24/2013  16:21:00     -181.991      -17.140      -21.781       63.213       88.710       36.019     3995.881     7869.548     1297.391        2.352        0.658      182.796       40.237        0.048      342.407       17.795      855.985
06/24/2013  16:22:00      -42.122      -70.781        5.378       52.370       45.845       28.733     2742.600     2101.783      825.592        0.624        0.283       82.367       34.301        0.173      342.426       17.828      856.028
06/24/2013  16:23:00       -2.505      -14.037       -8.269       37.410       20.991       20.334     1399.488      440.618      413.469        0.126        0.113       14.259        9.400        0.435      342.505       17.963      856.046
06/24/2013  16:24:00       10.245       14.447       24.936       27.168       31.578       19.542      738.076      997.169      381.885        0.153        0.106       17.711       16.663        0.885      342.598       18.120      856.059
06/24/2013  16:25:00      -82.405      -12.084       -6.858       68.566       87.980       26.428     4701.335     7740.477      698.464        1.006        0.657       83.287       23.143        0.077      342.650       18.207      856.087
06/24/2013  16:26:00     -164.382      -59.662        5.219       81.952      107.879       44.771     6716.078    11637.886     2004.407        2.548        1.018      174.874       37.985        0.047      342.717       18.320      856.122
06/24/2013  16:27:00     -244.064      -70.593      -21.446      122.209       93.716       49.131    14935.100     8782.736     2413.815        4.557        1.307      254.068       37.108        0.021      342.657       18.218      856.160
06/24/2013  16:28:00     -171.842     -112.003       33.323      163.661      142.087       78.638    26784.872    20188.595     6183.912        4.816        2.658      205.120       94.463        0.212      342.498       17.947      856.197
06/24/2013  16:29:00     -316.973        5.378      -16.207      134.665       99.433       52.804    18134.690     9886.852     2788.258        6.578        1.540      317.018       55.548        0.031      342.398       17.777      856.233
06/24/2013  16:30:00     -251.647      -69.955       -3.255      177.234      128.041       74.900    31411.998    16394.442     5610.081        6.081        2.671      261.189       84.390        0.104      342.398       17.775      856.235
06/24/2013  16:31:00     -262.878        1.791       -5.073      190.030      100.641       69.522    36111.501    10128.553     4833.373        6.009        2.554      262.884       92.885        0.125      342.412       17.801      856.245
06/24/2013  16:32:00     -218.957      -63.424       -7.389       70.191       93.398       41.920     4926.708     8723.171     1757.255        3.371        0.770      227.958       28.915        0.016      342.487       17.928      856.262
06/24/2013  16:33:00     -264.541      -51.231      -15.970      240.148      110.995       59.456    57671.239    12319.884     3535.058        7.318        3.676      269.456       79.542        0.087      342.437       17.842      856.259
06/24/2013  16:34:00     -544.442     -128.406       -8.277      220.018      171.335       84.588    48407.761    29355.523     7155.145       19.893        4.246      559.379       98.538        0.031      342.325       17.651      856.222
06/24/2013  16:35:00     -555.405     -169.618      -25.165      178.492      197.287       95.336    31859.554    38922.047     9088.862       20.886        3.994      580.728       85.411        0.022      342.301       17.612      856.249
06/24/2013  16:36:00     -220.364     -100.869       10.007      176.946      111.835       81.388    31309.847    12507.135     6623.935        5.463        2.522      242.353       96.200        0.158      342.296       17.603      856.299
06/24/2013  16:37:00     -110.975      -25.252        1.870      158.631       96.481       73.531    25163.698     9308.635     5406.829        2.641        1.994      113.812       76.598        0.453      342.272       17.564      856.251
06/24/2013  16:38:00     -187.751     -113.318      -14.112      141.098      135.402       70.049    19908.699    18333.607     4906.832        4.571        2.157      219.297       56.596        0.067      342.350       17.696      856.274
06/24/2013  16:39:00     -543.753     -208.701      -17.340      323.096      191.677      104.504   104391.318    36740.263    10920.982       24.576        7.603      582.429      134.641        0.053      342.277       17.571      856.238
06/24/2013  16:40:00     -483.245     -184.651       -6.111      240.989      180.890      103.572    58075.853    32721.259    10727.226       18.457        5.076      517.322      121.555        0.055      342.225       17.483      856.308
06/24/2013  16:41:00     -404.961      -31.262      -28.835      159.754      152.903       68.763    25521.281    23379.196     4728.393       10.971        2.681      406.166       50.757        0.016      342.209       17.456      856.326
06/24/2013  16:42:00     -387.705      -84.132      -38.185      143.153      156.065       68.526    20492.819    24356.132     4695.786       10.419        2.477      396.729       56.451        0.020      342.174       17.395      856.294
06/24/2013  16:43:00     -330.779      -90.349      -20.087      174.117      169.794       82.412    30316.857    28830.131     6791.690        9.195        3.297      342.896       86.557        0.064      342.173       17.394      856.261
06/24/2013  16:44:00     -506.158       -7.500      -28.372      248.975      135.016       82.478    61988.410    18229.449     6802.646       17.202        4.351      506.213      106.011        0.044      342.152       17.359      856.226
06/24/2013  16:45:00     -375.581      -59.145      -15.903      195.009      171.590       83.489    38028.685    29443.251     6970.345       10.961        3.722      380.209       90.371        0.056      342.108       17.283      856.178
06/24/2013  16:46:00     -154.315      -32.952       -3.011      153.296       88.744       62.308    23499.771     7875.454     3882.244        3.008        1.763      157.794       73.136        0.215      342.214       17.466      856.082
06/24/2013  16:47:00     -262.547      -53.562      -24.279      171.378      104.981       62.587    29370.476    11020.954     3917.078        5.834        2.215      267.955       63.893        0.057      342.221       17.477      856.057
06/24/2013  16:48:00     -322.406     -138.093       15.024      242.824      152.035      103.222    58963.515    23114.783    10654.765       10.797        4.637      350.736      124.651        0.126      342.234       17.498      856.078
06/24/2013  16:49:00     -180.833      -46.707       -2.812      107.735      132.976       63.089    11606.784    17682.624     3980.215        3.407        1.663      186.768       46.125        0.061      342.255       17.533      856.122
06/24/2013  16:50:00      -68.852      -91.781        7.197      107.837       60.630       42.856    11628.801     3675.960     1836.662        1.518        0.857      114.736       38.890        0.115      342.234       17.501      856.116
06/24/2013  16:51:00     -105.656      -36.749        7.055      163.130       88.755       50.297    26611.551     7877.451     2529.771        2.478        1.851      111.864       65.222        0.340      342.325       17.654      856.135
06/24/2013  16:52:00     -395.126     -104.586      -49.487      277.475      181.479       84.884    76992.240    32934.718     7205.331       14.330        5.857      408.733      110.981        0.074      342.191       17.425      856.127
06/24/2013  16:53:00     -625.434     -198.122      -17.511      291.152      165.366       85.808    84769.252    27345.833     7363.025       27.508        5.974      656.064       99.717        0.023      342.149       17.354      856.042
06/24/2013  16:54:00     -631.416      -52.691      -28.018      237.470      195.743       99.111    56392.067    38315.301     9822.994       25.337        5.227      633.611      115.108        0.033      342.233       17.496      856.087
06/24/2013  16:55:00     -336.960      -97.862       -4.357      142.158      119.089       70.117    20208.990    14182.164     4916.377        8.122        1.965      350.883       70.471        0.040      342.301       17.613      856.099
06/24/2013  16:56:00     -181.574     -108.079        2.161      104.866      106.680       56.469    10996.886    11380.729     3188.798        3.511        1.278      211.306       46.120        0.048      342.388       17.759      856.075
06/24/2013  16:57:00     -258.476      -66.726        4.099      182.123      112.025       62.907    33168.871    12549.683     3957.286        6.047        2.484      266.950       66.797        0.063      342.437       17.843      856.048
06/24/2013  16:58:00     -452.830     -259.290      -17.996      205.227      163.215       82.082    42118.285    26639.003     6737.425       17.404        3.775      521.810       97.268        0.035      342.352       17.699      856.068
06/24/2013  16:59:00     -298.846     -211.258      -23.323      164.180      141.125       82.069    26955.050    19916.352     6735.250        9.403        2.680      365.977       80.036        0.048      342.364       17.718      856.070
06/24/2013  17:00:00     -196.078      -98.407        7.161      123.908      112.203       65.893    15353.288    12589.405     4341.915        4.023        1.614      219.387       64.243        0.086      342.411       17.799      856.083
06/24/2013  17:01:00     -240.502       -6.919       -3.920      139.210      119.440       65.531    19379.380    14266.020     4294.375        4.791        1.897      240.602       68.981        0.082      342.404       17.787      856.098
06/24/2013  17:02:00     -219.930     -120.025       22.104      219.894      134.420       82.391    48353.292    18068.669     6788.249        6.822        3.661      250.549      105.608        0.178      342.453       17.870      856.076
06/24/2013  17:03:00     -217.858       35.369       -2.847      153.803      120.815       59.104    23655.334    14596.360     3493.269        4.522        2.087      220.710       66.031        0.090      342.478       17.913      856.063
06/24/2013  17:04:00     -223.231      -17.175       -6.646      139.970      110.122       61.802    19591.504    12126.961     3819.445        4.285        1.777      223.891       66.108        0.087      342.479       17.916      856.042
06/24/2013  17:05:00     -137.559      -36.963        7.181      149.790       88.101       64.984    22436.978     7761.757     4222.972        2.737        1.721      142.438       78.226        0.302      342.481       17.919      856.046
06/24/2013  17:06:00     -297.506      -44.183       -3.392      264.228      124.687       68.613    69816.387    15546.760     4707.812        9.025        4.504      300.769      105.169        0.122      342.421       17.815      856.023
06/24/2013  17:07:00     -314.896      -36.580        2.098      184.814      136.159       73.428    34156.338    18539.231     5391.598        7.928        2.904      317.013       76.610        0.058      342.357       17.707      856.034
06/24/2013  17:08:00     -232.526      -64.838       -4.859      165.729       81.166       56.669    27466.025     6587.993     3211.407        4.777        1.863      241.397       74.901        0.096      342.414       17.803      856.042
06/24/2013  17:09:00     -215.635      -52.739       -6.560      115.505       95.851       54.660    13341.435     9187.509     2987.739        3.741        1.276      221.991       60.803        0.075      342.430       17.831      856.062
06/24/2013  17:10:00     -289.009     -160.726        7.262      185.418      129.152       83.023    34379.748    16680.149     6892.788        8.367        2.898      330.694       83.974        0.064      342.365       17.718      856.055
06/24/2013  17:11:00     -242.180      -56.923        2.362      121.242      124.414       65.551    14699.580    15478.942     4296.932        4.818        1.724      248.780       64.609        0.067      342.374       17.736      856.056
06/24/2013  17:12:00     -318.829     -106.674       22.349      208.696      157.261       92.170    43554.135    24730.866     8495.302        9.514        3.839      336.201       93.565        0.077      342.350       17.695      856.076
06/24/2013  17:13:00     -457.614     -185.276      -54.054      159.335      148.296       80.412    25387.494    21991.660     6466.063       15.024        2.692      493.698       62.172        0.016      342.251       17.527      856.148
06/24/2013  17:14:00     -251.857     -195.318       -9.739      138.311      127.951       63.407    19129.976    16371.420     4020.470        7.059        1.976      318.718       60.871        0.036      342.311       17.629      856.176
06/24/2013  17:15:00     -213.677     -216.794       13.191      155.557      137.566       81.070    24198.046    18924.271     6572.269        7.125        2.485      304.396       88.605        0.085      342.341       17.681      856.178
06/24/2013  17:16:00     -315.211     -260.161        3.129      136.690      105.160       72.651    18684.270    11058.592     5278.129       10.103        1.751      408.707       76.067        0.035      342.309       17.626      856.162
06/24/2013  17:17:00     -220.895     -158.480        1.507      122.438      111.168       68.387    14991.149    12358.265     4676.797        5.296        1.601      271.865       62.551        0.053      342.346       17.687      856.119
06/24/2013  17:18:00     -215.776     -215.971       19.522      175.862      151.829       91.618    30927.344    23051.946     8393.844        7.797        3.119      305.291       89.918        0.087      342.396       17.773      856.113
06/24/2013  17:19:00     -373.470     -254.549       -8.020      175.553      186.286       87.379    30818.775    34702.488     7635.015       13.873        3.658      451.968       97.541        0.047      342.352       17.698      856.112
06/24/2013  17:20:00     -401.434      -99.112      -17.937      143.613      106.042       72.174    20624.836    11244.905     5209.151       10.418        1.854      413.488       67.688        0.027      342.356       17.703      856.121
06/24/2013  17:21:00     -225.699      -96.739       -9.431      144.297       91.052       48.337    20821.618     8290.376     2336.473        4.591        1.572      245.557       63.701        0.067      342.434       17.838      856.129
06/24/2013  17:22:00     -255.393     -118.277       10.787      137.007       92.205       58.972    18770.795     8501.690     3477.713        5.503        1.538      281.451       59.479        0.045      342.460       17.882      856.153
06/24/2013  17:23:00     -261.569      -91.838        2.602      146.940       96.449       69.396    21591.306     9302.473     4815.791        5.628        1.785      277.223       63.103        0.052      342.488       17.928      856.180
06/24/2013  17:24:00     -184.689     -141.932       -3.057      132.241      115.936       70.687    17487.557    13441.151     4996.712        4.509        1.796      232.926       74.386        0.102      342.432       17.835      856.162
06/24/2013  17:25:00     -301.202      -44.405       -1.279      164.219      136.352       87.473    26968.005    18591.940     7651.498        7.294        2.661      304.457       91.393        0.090      342.414       17.804      856.129
06/24/2013  17:26:00     -335.502      -82.928        2.651      254.210      146.432       86.294    64622.570    21442.374     7446.641       10.646        4.676      345.599      113.095        0.107      342.359       17.711      856.162
06/24/2013  17:27:00     -147.246      -14.414       17.799      148.696      103.035       73.531    22110.581    10616.285     5406.791        3.016        1.907      147.950       77.415        0.274      342.319       17.644      856.149
06/24/2013  17:28:00     -332.434      -29.937      -10.079      148.342      128.419       59.304    22005.386    16491.385     3516.962        7.675        2.101      333.780       67.412        0.041      342.244       17.515      856.112
06/24/2013  17:29:00     -204.885     -148.749        4.940      146.989      115.367       54.113    21605.759    13309.529     2928.239        5.098        1.892      253.188       67.135        0.070      342.319       17.642      856.092
06/24/2013  17:30:00     -246.507     -204.422       -5.888      189.080      125.489       66.154    35751.404    15747.603     4376.340        7.922        2.794      320.241       66.903        0.044      342.284       17.582      856.071
06/24/2013  17:31:00     -298.848     -131.664      -13.042      130.822      100.162       65.816    17114.380    10032.385     4331.681        6.914        1.574      326.567       73.999        0.051      342.293       17.599      856.042
06/24/2013  17:32:00     -158.109     -112.338       12.922      130.718      101.902       62.413    17087.191    10384.051     3895.363        3.457        1.568      193.955       63.989        0.109      342.361       17.714      856.006
06/24/2013  17:33:00     -160.553     -126.586       26.467      195.572      160.181       91.289    38248.244    25658.093     8333.681        5.736        3.612      204.453      104.730        0.262      342.355       17.705      855.959
06/24/2013  17:34:00     -379.118     -210.440       -2.689      160.515      179.646       95.581    25765.194    32272.611     9135.679       12.758        3.359      433.607       97.784        0.051      342.290       17.592      855.921
06/24/2013  17:35:00     -394.434     -211.229      -22.748      172.413      124.673       84.003    29726.147    15543.437     7056.458       12.651        2.616      447.432       72.107        0.026      342.265       17.549      855.934
06/24/2013  17:36:00     -326.388      -62.585      -12.747      137.140       97.978       64.364    18807.474     9599.627     4142.698        7.157        1.627      332.334       62.956        0.036      342.269       17.557      855.939
06/24/2013  17:37:00     -190.474     -104.229        9.070      131.796      108.709       64.654    17370.115    11817.654     4180.120        4.029        1.668      217.127       72.018        0.110      342.297       17.606      855.947
06/24/2013  17:38:00     -228.394     -166.338       -1.332      120.523      102.103       59.891    14525.911    10425.000     3586.921        5.418        1.427      282.546       60.594        0.046      342.233       17.498      855.941
06/24/2013  17:39:00     -196.161     -102.825       -9.388      105.951       82.737       53.060    11225.664     6845.331     2815.414        3.501        1.044      221.477       53.408        0.058      342.277       17.572      855.909
06/24/2013  17:40:00     -190.278      -77.764        1.958      123.261       86.786       52.257    15193.289     7531.798     2730.758        3.385        1.273      205.556       55.538        0.073      342.378       17.743      855.883
06/24/2013  17:41:00     -191.613      -46.721        0.630      104.586       82.020       45.678    10938.198     6727.327     2086.447        2.932        0.988      197.227       46.241        0.055      342.343       17.683      855.860
06/24/2013  17:42:00     -147.037     -118.058        4.194       92.073      117.438       46.687     8477.387    13791.595     2179.718        3.001        1.222      188.567       47.969        0.065      342.376       17.742      855.846
06/24/2013  17:43:00     -234.257     -122.788        4.528      107.346       78.243       47.534    11523.190     6122.012     2259.443        4.494        0.995      264.487       48.114        0.033      342.331       17.662      855.851
06/24/2013  17:44:00     -175.860     -135.129       15.623      127.390      109.156       66.426    16228.181    11915.067     4412.440        4.099        1.628      221.781       59.723        0.073      342.383       17.751      855.878
06/24/2013  17:45:00     -182.936     -114.882       12.359      147.892      118.738       59.710    21872.178    14098.630     3565.295        4.317        1.977      216.017       65.647        0.092      342.393       17.770      855.902
06/24/2013  17:46:00     -202.840      -73.758       16.606      112.169       93.556       55.064    12581.942     8752.664     3032.050        3.561        1.218      215.834       65.382        0.092      342.405       17.790      855.932
06/24/2013  17:47:00     -175.466      -87.562       -4.086      118.585       70.452       39.318    14062.393     4963.457     1545.872        2.952        1.029      196.100       50.463        0.066      342.402       17.785      855.950
06/24/2013  17:48:00      -77.384      -67.573        6.706      102.723       58.208       42.151    10551.992     3388.141     1776.714        1.316        0.786      102.735       53.702        0.273      342.418       17.815      855.975
06/24/2013  17:49:00     -170.648     -128.599        8.091      105.167      102.860       50.169    11060.049    10580.270     2516.942        3.494        1.208      213.679       56.330        0.069      342.344       17.686      855.985
06/24/2013  17:50:00     -123.396      -49.750        0.215      115.500       93.382       50.159    13340.299     8720.283     2515.953        2.113        1.229      133.048       44.916        0.114      342.392       17.767      855.990
06/24/2013  17:51:00     -367.653       -3.542      -12.795      148.418      109.574       64.115    22027.849    12006.456     4110.739        8.674        1.907      367.670       63.336        0.030      342.272       17.563      855.987
06/24/2013  17:52:00     -289.085      -41.713        1.167      157.962      117.553       71.789    24952.044    13818.639     5153.691        6.461        2.196      292.079       80.970        0.077      342.305       17.619      855.980
06/24/2013  17:53:00     -324.453     -114.802      -16.448      158.147      115.276       57.796    25010.515    13288.466     3340.333        8.017        2.082      344.165       62.100        0.033      342.336       17.672      855.986
06/24/2013  17:54:00     -253.898     -134.125      -12.037      124.014      100.751       48.983    15379.548    10150.680     2399.299        5.526        1.396      287.148       36.954        0.017      342.370       17.728      855.986
06/24/2013  17:55:00     -296.130     -160.909       -1.869      132.988      102.203       59.933    17685.844    10445.396     3591.923        7.265        1.586      337.024       51.946        0.024      342.340       17.679      855.991
06/24/2013  17:56:00     -261.765      -64.815       -9.722      122.697      106.401       55.698    15054.447    11321.074     3102.283        5.114        1.474      269.670       58.646        0.047      342.298       17.607      856.023
06/24/2013  17:57:00     -402.884      -87.311      -12.852      125.017      101.076       61.563    15629.327    10216.307     3790.058        9.986        1.482      412.236       65.085        0.025      342.177       17.399      856.039
06/24/2013  17:58:00     -270.919     -131.939      -23.159      107.282      106.601       54.671    11509.485    11363.709     2988.932        5.860        1.293      301.339       44.548        0.022      342.270       17.559      856.046
06/24/2013  17:59:00     -363.872      -69.628      -15.843      105.278      109.637       58.213    11083.445    12020.251     3388.719        8.199        1.325      370.474       51.498        0.019      342.247       17.521      856.045
06/24/2013  18:00:00     -394.283       -9.707       -8.706      132.290      145.554       57.359    17500.679    21185.919     3290.006        9.879        2.099      394.403       52.596        0.018      342.179       17.404      856.041
06/24/2013  18:01:00     -227.231     -182.928       -9.738      121.212       97.164       53.854    14692.329     9440.779     2900.222        5.611        1.352      291.713       59.466        0.042      342.270       17.559      856.059
06/24/2013  18:02:00     -454.099     -176.280      -34.231      144.188      126.928       65.712    20790.283    16110.797     4318.045       13.983        2.061      487.114       61.132        0.016      342.282       17.579      856.078
06/24/2013  18:03:00     -323.360      -72.017       -6.716      139.567      105.296       56.467    19478.983    11087.201     3188.501        7.177        1.688      331.282       59.136        0.032      342.278       17.572      856.150
06/24/2013  18:04:00     -218.575      -61.963      -11.250      136.406       93.595       57.656    18606.515     8759.984     3324.196        4.121        1.535      227.188       50.489        0.049      342.277       17.572      856.180
06/24/2013  18:05:00     -292.900     -110.899       -9.780      111.975      112.816       60.375    12538.472    12727.351     3645.189        6.354        1.446      313.192       52.215        0.028      342.277       17.570      856.191
06/24/2013  18:06:00     -222.084       -8.834       -5.058      128.846       91.076       55.352    16601.342     8294.749     3063.807        3.869        1.398      222.259       68.674        0.095      342.334       17.669      856.199
06/24/2013  18:07:00     -262.775      -35.510       -6.076       95.726       91.407       57.229     9163.542     8355.222     3275.163        4.557        1.040      265.164       54.430        0.042      342.239       17.505      856.225
06/24/2013  18:08:00     -201.594        4.541       -7.788       77.586       70.401       41.793     6019.635     4956.306     1746.637        2.672        0.636      201.645       38.716        0.037      342.311       17.630      856.229
06/24/2013  18:09:00     -306.894       21.728      -25.640       80.853       75.623       38.655     6537.130     5718.885     1494.199        5.453        0.688      307.662       40.910        0.018      342.259       17.541      856.250
06/24/2013  18:10:00     -367.954      -73.380      -17.596      126.157       64.231       59.020    15915.526     4125.612     3483.382        8.230        1.176      375.200       71.792        0.037      342.290       17.594      856.276
06/24/2013  18:11:00     -261.265      -87.190      -18.171       98.657       49.468       41.602     9733.217     2447.050     1730.697        4.505        0.696      275.429       38.360        0.019      342.309       17.626      856.305
06/24/2013  18:12:00      -69.838      -69.547        3.750       52.820       55.346       31.838     2789.992     3063.183     1013.655        0.830        0.343       98.560       31.351        0.101      342.411       17.801      856.321
06/24/2013  18:13:00     -127.029      -52.046        1.323       76.742       85.343       35.621     5889.311     7283.490     1268.827        1.664        0.722      137.278       35.651        0.067      342.370       17.732      856.362
06/24/2013  18:14:00     -215.604      -61.121       -5.192       83.167       53.874       35.604     6916.689     2902.410     1267.662        3.067        0.554      224.100       36.087        0.026      342.289       17.593      856.405
06/24/2013  18:15:00     -192.043       15.207      -11.363       77.184       43.516       34.514     5957.349     1893.627     1191.201        2.314        0.452      192.644       37.716        0.038      342.301       17.612      856.450
06/24/2013  18:16:00      -69.881      -64.234        4.926       81.181       57.523       30.965     6590.402     3308.925      958.834        0.994        0.543       94.918       32.717        0.119      342.359       17.713      856.474
06/24/2013  18:17:00      -90.542      -36.810        8.337       80.958       71.903       34.763     6554.222     5169.987     1208.471        1.128        0.647       97.739       35.782        0.134      342.402       17.785      856.489
06/24/2013  18:18:00     -191.892     -118.587      -13.407      114.169       93.590       47.315    13034.599     8759.026     2238.716        3.754        1.202      225.578       51.824        0.053      342.347       17.691      856.491
06/24/2013  18:19:00     -152.753      -99.281        1.893       66.967       58.154       33.801     4484.550     3381.860     1142.531        2.110        0.450      182.181       36.318        0.040      342.357       17.708      856.516
06/24/2013  18:20:00     -119.309      -87.924       -3.701       93.896       76.361       39.040     8816.417     5831.053     1524.148        1.907        0.809      148.207       35.997        0.059      342.388       17.759      856.530
06/24/2013  18:21:00      -83.015      -70.846        1.327       49.440       42.189       32.345     2444.300     1779.896     1046.168        0.859        0.264      109.136       26.067        0.057      342.411       17.800      856.540
06/24/2013  18:22:00      -88.500      -34.709      -11.704       39.550       34.711       30.152     1564.187     1204.884      909.140        0.643        0.184       95.063       25.084        0.070      342.374       17.738      856.531
06/24/2013  18:23:00      -21.546       -7.989        2.091       39.987       48.920       24.206     1598.937     2393.141      585.915        0.255        0.229       22.979       23.774        1.070      342.360       17.714      856.514
06/24/2013  18:24:00      -65.283      -64.769       10.437       53.149       48.587       38.675     2824.825     2360.672     1495.778        0.762        0.334       91.962       26.671        0.084      342.388       17.763      856.510
06/24/2013  18:25:00     -148.892       -4.248       -7.514       95.628       43.033       34.463     9144.651     1851.815     1187.720        1.721        0.609      148.953       36.543        0.060      342.354       17.703      856.509
06/24/2013  18:26:00      -92.163      -78.646        4.274       77.346       89.858       31.632     5982.424     8074.414     1000.606        1.487        0.753      121.157       41.528        0.117      342.373       17.736      856.530
06/24/2013  18:27:00      -93.120      -82.795       10.081       62.129       73.420       37.225     3860.042     5390.490     1385.725        1.313        0.532      124.605       38.212        0.094      342.447       17.862      856.550
06/24/2013  18:28:00     -109.883     -184.625        0.580      105.166       59.385       45.079    11059.848     3526.524     2032.102        3.139        0.831      214.850       58.173        0.073      342.307       17.622      856.573
06/24/2013  18:29:00      -31.894     -123.959       23.667       51.937       71.114       33.961     2697.454     5057.237     1153.343        1.292        0.445      127.996       26.426        0.043      342.379       17.747      856.573
06/24/2013  18:30:00     -114.080      -23.938       -2.612       57.047       47.184       30.736     3254.405     2226.334      944.720        1.001        0.321      116.564       30.280        0.067      342.413       17.804      856.585
06/24/2013  18:31:00     -102.852       -3.070       15.121       96.737       62.714       39.857     9358.123     3933.095     1588.586        1.285        0.744      102.898       52.347        0.259      342.413       17.804      856.598
06/24/2013  18:32:00     -158.620        4.835      -18.617      100.555       56.248       42.195    10111.252     3163.804     1780.392        2.029        0.753      158.694       30.418        0.037      342.342       17.683      856.586
06/24/2013  18:33:00     -117.818     -148.730        3.090      100.225       81.438       65.528    10045.114     6632.127     4293.861        2.849        1.049      189.741       61.121        0.104      342.332       17.667      856.566
06/24/2013  18:34:00     -234.238     -145.405      -15.836      135.348       93.295       56.506    18318.965     8704.048     3192.882        5.323        1.511      275.699       56.639        0.042      342.333       17.667      856.558
06/24/2013  18:35:00     -153.343      -26.153       15.689      147.116       74.539       52.094    21643.122     5556.067     2713.814        2.717        1.496      155.557       66.840        0.185      342.362       17.717      856.516
06/24/2013  18:36:00     -161.185     -176.664       -8.372       75.549       67.890       39.140     5707.673     4609.062     1531.969        3.455        0.592      239.146       29.510        0.015      342.311       17.628      856.505
06/24/2013  18:37:00     -128.971     -117.634        6.507       98.346       87.782       38.381     9671.968     7705.757     1473.094        2.468        0.943      174.560       37.079        0.045      342.345       17.688      856.479
06/24/2013  18:38:00     -170.766     -172.678       11.360      122.132      113.283       58.522    14916.161    12832.989     3424.836        4.513        1.559      242.855       62.706        0.067      342.314       17.634      856.459
06/24/2013  18:39:00     -191.984      -77.498       12.955      104.584       81.304       54.146    10937.856     6610.386     2931.842        3.175        1.024      207.035       55.413        0.072      342.346       17.689      856.464
06/24/2013  18:40:00     -215.342      -31.639       -6.910      129.738       74.369       45.408    16831.915     5530.821     2061.889        3.592        1.221      217.654       56.427        0.067      342.295       17.602      856.477
06/24/2013  18:41:00     -342.461      -78.265      -16.589      138.132      114.655       50.257    19080.550    13145.725     2525.815        7.921        1.738      351.290       47.135        0.018      342.304       17.617      856.492
06/24/2013  18:42:00     -188.137      -60.787        1.465       99.749       93.151       50.133     9949.809     8677.168     2513.342        3.011        1.057      197.713       53.971        0.075      342.381       17.747      856.513
06/24/2013  18:43:00     -268.262      -35.126       -8.926      108.405       72.788       48.973    11751.652     5298.135     2398.395        4.636        0.972      270.552       50.674        0.035      342.366       17.721      856.527
06/24/2013  18:44:00     -233.806     -105.064       -7.751      111.386       95.043       54.957    12406.925     9033.241     3020.303        4.511        1.223      256.328       58.593        0.052      342.313       17.634      856.516
06/24/2013  18:45:00      -95.283      -41.364       -0.974       58.076       79.146       40.786     3372.872     6264.026     1663.483        1.104        0.565      103.874       35.513        0.117      342.365       17.723      856.520
06/24/2013  18:46:00     -100.231      -71.577       -9.104       69.495       95.974       40.479     4829.594     9210.972     1638.563        1.546        0.784      123.165       30.374        0.061      342.339       17.678      856.512
06/24/2013  18:47:00     -190.680      -68.145       -4.878       83.388       65.156       42.201     6953.581     4245.245     1780.904        2.700        0.649      202.491       41.080        0.041      342.322       17.649      856.514
06/24/2013  18:48:00     -356.263     -119.554      -27.673      148.825      152.519       77.529    22148.939    23262.016     6010.789        9.669        2.571      375.788       87.163        0.054      342.280       17.576      856.511
06/24/2013  18:49:00     -330.437     -156.392      -22.882      141.556      101.842       67.029    20037.998    10371.778     4492.864        8.453        1.745      365.578       50.717        0.019      342.278       17.571      856.498
06/24/2013  18:50:00     -387.266      -27.151      -23.503      159.561      142.419       64.522    25459.706    20283.129     4163.050       10.058        2.495      388.217       63.540        0.027      342.295       17.602      856.493
06/24/2013  18:51:00     -290.120     -110.193        4.760      169.905      119.410       78.891    28867.629    14258.836     6223.725        7.283        2.468      310.342       82.242        0.070      342.318       17.642      856.509
06/24/2013  18:52:00     -265.126     -124.697       18.452      184.564      100.037       76.108    34063.993    10007.450     5792.369        6.801        2.493      292.987      100.232        0.117      342.313       17.633      856.508
06/24/2013  18:53:00     -246.055      -59.436       -4.725      137.706      110.340       69.345    18963.073    12175.017     4808.673        5.002        1.797      253.131       72.435        0.082      342.321       17.648      856.503
06/24/2013  18:54:00     -388.766      -57.945      -11.944      206.714      109.071       69.113    42730.827    11896.561     4776.540       10.701        2.970      393.061       72.765        0.034      342.309       17.626      856.499
06/24/2013  18:55:00     -321.474      -85.561        2.856      188.637      128.214       69.562    35583.762    16438.727     4838.846        8.376        2.843      332.665       87.855        0.070      342.277       17.570      856.492
06/24/2013  18:56:00     -270.667     -101.068       -0.960      172.871      118.016       74.418    29884.402    13927.764     5537.986        6.640        2.468      288.921       81.967        0.080      342.302       17.614      856.506
06/24/2013  18:57:00     -274.409      -88.946        3.606      130.971      123.761       74.625    17153.285    15316.713     5568.943        6.062        1.902      288.465       74.932        0.067      342.299       17.609      856.503
06/24/2013  18:58:00     -214.684      -41.063       -3.193      140.417      108.146       66.945    19716.836    11695.513     4481.578        4.183        1.795      218.576       62.084        0.081      342.326       17.654      856.524
06/24/2013  18:59:00      -89.658      -51.793       12.865      109.962       87.078       58.398    12091.600     7582.515     3410.330        1.698        1.154      103.543       63.559        0.377      342.349       17.695      856.543
06/24/2013  19:00:00     -311.107     -124.706        4.147      174.572      137.205       67.573    30475.219    18825.159     4566.089        8.310        2.693      335.170       76.948        0.053      342.279       17.574      856.551
06/24/2013  19:01:00     -343.085      -98.383       -8.199      241.214      181.517       82.069    58184.009    32948.527     6735.320       11.264        4.893      356.913       88.199        0.061      342.284       17.584      856.539
06/24/2013  19:02:00     -291.069     -108.504       -3.259      175.568      152.584       83.071    30824.140    23281.924     6900.732        7.874        3.050      310.636       92.645        0.089      342.264       17.550      856.529
06/24/2013  19:03:00     -425.021      -27.506      -27.736      160.719       92.532       64.478    25830.495     8562.129     4157.434       11.035        1.928      425.910       73.487        0.030      342.236       17.502      856.543
06/24/2013  19:04:00     -293.934     -116.046       -9.093      204.023      160.554       80.371    41625.240    25777.607     6459.519        8.689        3.693      316.012      107.517        0.116      342.258       17.538      856.535
06/24/2013  19:05:00     -168.184     -108.279        8.032      196.628      174.434       91.620    38662.509    30427.224     8394.240        5.876        3.874      200.026      105.524        0.278      342.286       17.588      856.517
06/24/2013  19:06:00     -349.760     -201.049      -14.979      230.718      167.749       92.756    53230.823    28139.612     8603.668       12.646        4.499      403.426      109.409        0.074      342.225       17.483      856.498
06/24/2013  19:07:00     -383.099      -75.079      -21.401      158.871      104.561       60.591    25240.072    10933.030     3671.290        9.634        1.992      390.387       45.254        0.013      342.242       17.512      856.526
06/24/2013  19:08:00     -374.981      -84.404       -6.423      185.846      146.656       75.273    34538.753    21508.117     5666.068       10.473        3.086      384.363       88.751        0.053      342.187       17.417      856.509
06/24/2013  19:09:00     -292.349      -47.202      -20.009      101.497       80.229       56.315    10301.609     6436.667     3171.343        5.400        0.995      296.135       50.294        0.029      342.232       17.493      856.530
06/24/2013  19:10:00     -371.624       -2.229      -21.383      142.138      124.332       72.015    20203.160    15458.552     5186.153        8.970        2.042      371.630       76.088        0.042      342.201       17.443      856.533
06/24/2013  19:11:00     -309.548        9.939       -7.147      167.450      134.605       83.741    28039.347    18118.487     7012.478        7.456        2.659      309.707       87.714        0.080      342.177       17.403      856.553
06/24/2013  19:12:00     -454.813     -177.363      -16.039      172.871      129.682       70.679    29884.352    16817.413     4995.581       14.512        2.585      488.173       78.215        0.026      342.135       17.329      856.542
06/24/2013  19:13:00     -280.754     -139.012       -9.827      198.517      120.949       82.440    39409.145    14628.581     6796.417        7.953        3.042      313.285       87.780        0.079      342.135       17.330      856.568
06/24/2013  19:14:00     -215.464     -143.718       13.607      196.137      168.579       96.657    38469.633    28418.847     9342.524        7.173        3.812      258.997      113.216        0.191      342.150       17.356      856.574
06/24/2013  19:15:00     -276.750      -62.261       -8.863      135.198      131.621       72.738    18278.388    17324.016     5290.771        6.071        2.045      283.667       70.289        0.061      342.143       17.344      856.548
06/24/2013  19:16:00     -186.290     -118.174       -7.145      120.563      127.348       69.262    14535.419    16217.447     4797.275        4.213        1.778      220.611       57.841        0.069      342.187       17.417      856.563
06/24/2013  19:17:00     -404.313     -100.182      -12.415      187.058      158.319       83.440    34990.788    25064.899     6962.287       12.033        3.351      416.540       62.950        0.023      342.111       17.289      856.521
06/24/2013  19:18:00     -343.693     -107.015       -1.011      188.379      124.086       76.623    35486.533    15397.433     5871.084        9.316        2.838      359.968       82.296        0.052      342.097       17.265      856.533
06/24/2013  19:19:00     -289.916     -210.044        5.904      183.821      141.048       86.221    33790.212    19894.408     7434.130        9.465        3.056      358.008       96.781        0.073      342.080       17.235      856.562
06/24/2013  19:20:00     -260.131     -171.286       -2.514      193.591      150.949       87.410    37477.321    22785.711     7640.520        8.245        3.395      311.459       99.166        0.101      342.080       17.236      856.584
06/24/2013  19:21:00     -219.138      -91.797       -0.758      159.672      122.458       55.813    25495.257    14995.943     3115.073        5.002        2.180      237.588       75.777        0.102      342.091       17.253      856.626
06/24/2013  19:22:00     -297.634      -76.404       -7.731       93.803      134.750       52.801     8798.943    18157.439     2787.956        6.211        1.487      307.285       43.756        0.020      342.089       17.251      856.631
06/24/2013  19:23:00     -255.657     -118.166      -25.878      139.190      135.699       67.231    19373.871    18414.217     4519.991        6.114        2.115      281.645       51.624        0.034      342.077       17.232      856.636
06/24/2013  19:24:00     -268.454     -117.926      -21.205      211.868      136.574       69.798    44888.052    18652.363     4871.719        7.740        3.421      293.214       87.749        0.090      342.037       17.161      856.647
06/24/2013  19:25:00     -410.970     -134.924      -18.393      201.910      146.849       86.738    40767.719    21564.630     7523.505       12.863        3.493      432.551       99.608        0.053      341.999       17.098      856.651
06/24/2013  19:26:00     -226.545      -55.734        8.649      159.387      118.755       78.463    25404.125    14102.868     6156.433        5.007        2.283      233.300       91.537        0.154      342.018       17.132      856.680
06/24/2013  19:27:00     -140.612      -97.886       11.297      120.259       78.807       60.299    14462.158     6210.476     3636.009        2.689        1.215      171.329       62.717        0.134      342.066       17.214      856.707
06/24/2013  19:28:00     -188.321      -80.300        8.865      203.971      122.000       79.342    41604.055    14884.090     6295.090        5.238        3.139      204.726       96.087        0.220      342.034       17.159      856.694
06/24/2013  19:29:00      -63.656      -28.114       17.511      115.147       94.614       59.881    13258.884     8951.747     3585.720        1.547        1.290       69.588       64.943        0.871      342.057       17.199      856.714
06/24/2013  19:30:00     -309.218      -57.225      -12.290      113.179       88.615       58.884    12809.470     7852.611     3467.379        6.158        1.206      314.469       60.780        0.037      342.015       17.125      856.758
06/24/2013  19:31:00     -175.799      -38.328        6.895      114.772       78.656       52.439    13172.614     6186.694     2749.898        2.726        1.105      179.929       61.944        0.119      342.032       17.155      856.782
06/24/2013  19:32:00     -114.409     -114.343       15.842      119.677      100.512       59.321    14322.471    10102.564     3519.035        2.717        1.397      161.752       70.146        0.188      342.034       17.161      856.818
06/24/2013  19:33:00     -222.956     -206.160      -21.077      111.976      108.079       47.370    12538.726    11681.024     2243.960        5.955        1.323      303.663       49.958        0.027      341.990       17.083      856.821
06/24/2013  19:34:00     -140.553     -105.711       -5.613       90.998       50.950       38.267     8280.672     2595.875     1464.369        2.165        0.617      175.870       33.074        0.035      342.007       17.114      856.845
06/24/2013  19:35:00      -38.762      -91.724       12.377       64.765       60.672       36.633     4194.553     3681.079     1341.991        0.964        0.461       99.578       28.994        0.085      342.044       17.179      856.859
06/24/2013  19:36:00      -76.404     -190.169       -2.215       73.882       83.994       33.862     5458.620     7055.002     1146.651        2.783        0.683      204.944       36.894        0.032      342.033       17.158      856.867
06/24/2013  19:37:00      -94.445     -210.599       11.280       85.048      110.845       55.960     7233.202    12286.509     3131.541        3.802        1.133      230.807       38.832        0.028      342.029       17.149      856.871
06/24/2013  19:38:00      -55.347     -101.570        7.055       74.323       62.861       45.582     5523.862     3951.502     2077.728        1.249        0.578      115.670       44.471        0.148      342.058       17.201      856.880
06/24/2013  19:39:00      -93.272      -51.855        8.080       74.067       37.570       34.699     5485.919     1411.511     1203.991        0.978        0.405      106.718       35.766        0.112      342.061       17.206      856.879
06/24/2013  19:40:00     -181.522      -69.265        5.818      102.512       67.446       50.577    10508.788     4548.977     2557.985        2.770        0.881      194.289       60.211        0.096      342.024       17.142      856.868
06/24/2013  19:41:00     -167.595      -59.480        7.603       78.110       76.783       47.701     6101.132     5895.682     2275.414        2.298        0.714      177.837       49.225        0.077      342.049       17.185      856.881
06/24/2013  19:42:00     -190.075      -39.424        8.293      103.132       63.558       46.434    10636.301     4039.640     2156.096        2.729        0.842      194.120       45.224        0.054      342.092       17.256      856.880
06/24/2013  19:43:00     -138.525      -28.030       -1.343       80.465       63.415       43.522     6474.675     4021.432     1894.163        1.618        0.620      141.332       47.252        0.112      342.119       17.304      856.872
06/24/2013  19:44:00     -153.443     -121.784       16.726      116.352       80.565       51.299    13537.890     6490.783     2631.551        3.065        1.133      195.899       62.574        0.102      342.124       17.312      856.865
06/24/2013  19:45:00     -182.249      -32.178        6.162      118.245       67.329       43.221    13981.795     4533.260     1868.056        2.733        1.019      185.068       34.150        0.034      342.095       17.265      856.886
06/24/2013  19:46:00     -430.632     -125.283      -13.843      156.925      142.465       80.615    24625.572    20296.403     6498.785       12.637        2.571      448.486       87.462        0.038      341.948       17.011      856.888
06/24/2013  19:47:00     -322.971     -128.429        0.178      131.754      112.251       53.386    17359.213    12600.326     2850.039        7.680        1.640      347.569       40.822        0.014      341.894       16.919      856.880
06/24/2013  19:48:00     -254.601     -118.004       -4.505      102.449      117.131       59.240    10495.831    13719.681     3509.396        5.324        1.386      280.618       43.412        0.024      341.900       16.929      856.878
06/24/2013  19:49:00     -207.528      -78.473        1.469      132.483       58.274       39.298    17551.765     3395.899     1544.326        3.586        1.125      221.869       54.424        0.060      341.861       16.864      856.856
06/24/2013  19:50:00      -74.015     -160.358       -8.141       79.426       89.811       35.661     6308.549     8065.926     1271.726        2.345        0.782      176.615       41.435        0.055      341.882       16.901      856.886
06/24/2013  19:51:00      -21.370     -144.135      -12.269       82.388       70.034       57.277     6787.818     4904.801     3280.669        1.817        0.749      145.710       37.222        0.065      341.911       16.951      856.867
06/24/2013  19:52:00     -127.112      -76.195       10.151      126.467       84.208       47.986    15993.993     7091.009     2302.622        2.372        1.269      148.199       55.726        0.141      341.847       16.843      856.876
06/24/2013  19:53:00     -406.276     -108.789      -14.357      151.819      154.723       64.625    23048.907    23939.145     4176.330       11.412        2.558      420.589       69.216        0.027      341.741       16.661      856.871
06/24/2013  19:54:00     -220.553     -134.486       -4.172      114.303      126.962       53.174    13065.132    16119.427     2827.490        4.937        1.601      258.322       46.019        0.032      341.659       16.522      856.892
06/24/2013  19:55:00     -198.634     -160.971       -0.852       83.775       65.217       46.462     7018.319     4253.263     2158.731        3.940        0.672      255.670       38.410        0.023      341.679       16.556      856.908
06/24/2013  19:56:00     -312.317     -118.302      -15.910      139.458      113.514       53.202    19448.552    12885.509     2830.426        7.347        1.758      333.972       59.726        0.032      341.637       16.485      856.918
06/24/2013  19:57:00     -234.869      -72.998       -5.110      152.717       83.287       70.447    23322.501     6936.710     4962.732        4.786        1.761      245.952       77.137        0.098      341.583       16.394      856.919
06/24/2013  19:58:00     -136.491     -141.335        3.094       90.183       80.378       56.263     8132.901     6460.603     3165.532        2.818        0.888      196.482       44.971        0.052      341.599       16.422      856.957
06/24/2013  19:59:00     -236.427     -154.525       -8.122      103.390       90.652       49.515    10689.528     8217.853     2451.740        5.060        1.068      282.446       53.595        0.036      341.552       16.339      856.957
06/24/2013  20:00:00     -179.522      -55.604       13.899      101.222       87.145       53.007    10245.817     7594.239     2809.791        2.808        1.032      187.936       52.809        0.079      341.502       16.256      856.978
06/24/2013  20:01:00     -342.940     -171.389       -8.420      110.193      105.265       61.350    12142.527    11080.807     3763.850        8.701        1.349      383.382       57.771        0.023      341.500       16.251      856.974
06/24/2013  20:02:00     -288.634     -114.059       -4.254      127.021      102.257       50.311    16134.454    10456.582     2531.175        6.272        1.456      310.353       53.320        0.030      341.473       16.206      856.967
06/24/2013  20:03:00     -165.435     -203.697        0.598      106.365       99.911       60.718    11313.594     9982.299     3686.672        4.692        1.249      262.415       53.336        0.041      341.476       16.213      856.991
06/24/2013  20:04:00     -141.213     -167.302       -2.845      100.592       80.666       60.958    10118.691     6506.961     3715.880        3.414        1.017      218.932       38.992        0.032      341.478       16.216      856.984
06/24/2013  20:05:00     -113.409     -167.161        0.996       70.924       87.711       47.020     5030.262     7693.176     2210.922        2.787        0.747      202.001       39.270        0.038      341.479       16.216      856.969
06/24/2013  20:06:00      -93.133      -96.045        6.557       87.441       57.576       44.857     7645.894     3315.027     2012.190        1.545        0.649      133.785       42.554        0.101      341.472       16.207      856.942
06/24/2013  20:07:00      -99.846      -90.409       14.208       66.063       76.896       37.845     4364.271     5912.948     1432.276        1.502        0.585      134.696       38.346        0.081      341.464       16.194      856.930
06/24/2013  20:08:00     -163.137     -106.621       13.906      145.689       92.699       46.841    21225.266     8593.166     2194.095        3.509        1.601      194.889       49.417        0.064      341.451       16.171      856.936
06/24/2013  20:09:00     -305.013      -89.474       -2.479      162.810      105.725       65.682    26507.103    11177.748     4314.163        7.151        2.100      317.866       67.711        0.045      341.397       16.077      856.949
06/24/2013  20:10:00     -247.198      -93.400       -5.725      114.270       84.710       59.673    13057.633     7175.780     3560.900        4.682        1.190      264.255       66.166        0.063      341.404       16.090      856.967
06/24/2013  20:11:00     -177.330     -112.861        7.505      110.290       75.023       50.602    12163.904     5628.420     2560.576        3.229        1.018      210.199       58.270        0.077      341.397       16.080      856.963
06/24/2013  20:12:00     -183.320      -92.657       -8.943      124.277       67.836       52.098    15444.750     4601.751     2714.171        3.251        1.138      205.406       61.652        0.090      341.401       16.084      856.977
06/24/2013  20:13:00     -183.032      -70.764        7.993      106.535       65.186       43.728    11349.761     4249.253     1912.160        2.804        0.876      196.235       44.644        0.052      341.347       15.994      856.962
06/24/2013  20:14:00     -147.576      -47.875        2.894      100.618       81.592       42.731    10123.931     6657.201     1825.897        2.134        0.930      155.147       47.355        0.093      341.363       16.022      856.950
06/24/2013  20:15:00     -337.621      -83.642       -1.939      119.458       99.307       61.770    14270.151     9861.805     3815.496        7.446        1.397      347.827       58.457        0.028      341.360       16.016      856.947
06/24/2013  20:16:00     -143.760      -84.950       24.010      108.634       77.931       50.886    11801.276     6073.253     2589.403        2.446        1.023      166.983       59.483        0.127      341.370       16.034      856.952
06/24/2013  20:17:00     -227.326      -91.058        3.457      145.103       73.944       44.239    21054.997     5467.683     1957.062        4.422        1.424      244.885       33.867        0.019      341.380       16.049      856.947
06/24/2013  20:18:00     -240.077     -156.980        2.686      135.370      105.699       54.121    18325.119    11172.318     2929.090        5.735        1.621      286.844       66.744        0.054      341.361       16.018      856.938
06/24/2013  20:19:00     -245.289     -100.210      -18.941      129.666       83.759       48.209    16813.155     7015.586     2324.098        4.836        1.308      264.969       51.120        0.037      341.357       16.013      856.897
06/24/2013  20:20:00     -115.326      -93.778       -6.544       64.157       85.270       39.967     4116.074     7270.939     1597.389        1.756        0.649      148.642       38.635        0.068      341.386       16.061      856.843
06/24/2013  20:21:00      -71.931      -27.774       22.084       91.254       70.662       40.918     8327.227     4993.115     1674.245        1.071        0.750       77.107       36.473        0.224      341.394       16.075      856.819
06/24/2013  20:22:00     -349.352     -147.676      -20.320       98.116       86.973       58.796     9626.661     7564.288     3457.013        8.245        1.032      379.282       50.751        0.018      341.370       16.032      856.824
06/24/2013  20:23:00     -259.302     -128.225        9.686      168.456      101.419       70.725    28377.417    10285.743     5002.061        6.371        2.183      289.273       92.025        0.101      341.396       16.076      856.837
06/24/2013  20:24:00     -221.161      -91.961       -4.202      135.588       88.083       53.096    18384.016     7758.627     2819.149        4.317        1.448      239.518       62.339        0.068      341.394       16.073      856.869
06/24/2013  20:25:00     -263.610     -121.396       -1.450      129.164       93.755       51.282    16683.427     8789.995     2629.830        5.616        1.405      290.219       55.367        0.036      341.409       16.098      856.873
06/24/2013  20:26:00     -204.805     -181.254       -6.236      105.443       87.570       62.593    11118.311     7668.570     3917.883        4.877        1.135      273.493       62.846        0.053      341.385       16.057      856.874
06/24/2013  20:27:00     -313.748      -91.558       -8.733      151.409      112.500       61.048    22924.708    12656.318     3726.817        7.309        1.965      326.834       60.380        0.034      341.363       16.019      856.866
06/24/2013  20:28:00     -261.136      -82.165       -9.101      134.883       89.774       56.549    18193.389     8059.398     3197.808        5.223        1.473      273.758       63.779        0.054      341.341       15.985      856.841
06/24/2013  20:29:00     -135.173     -121.186      -11.986       50.566       67.425       34.818     2556.936     4546.159     1212.309        2.071        0.416      181.543       24.537        0.018      341.369       16.032      856.824
06/24/2013  20:30:00     -185.025     -115.282      -18.898      103.303      143.395       45.667    10671.426    20562.095     2085.460        4.059        1.666      218.001       40.561        0.035      341.351       15.999      856.794
06/24/2013  20:31:00     -190.306     -100.562       -0.908      145.146       88.537       62.293    21067.488     7838.872     3880.360        3.955        1.639      215.241       71.520        0.110      341.336       15.975      856.801
06/24/2013  20:32:00     -183.320     -155.356       -5.960      107.902      117.398       64.714    11642.820    13782.323     4187.840        4.369        1.481      240.295       55.256        0.053      341.325       15.958      856.803
06/24/2013  20:33:00     -222.629      -83.364       -7.900      105.773      100.444       49.678    11188.018    10088.906     2467.896        4.016        1.187      237.725       45.917        0.037      341.321       15.950      856.823
06/24/2013  20:34:00     -164.277      -20.904       -0.617      108.385       80.389       46.619    11747.260     6462.442     2173.360        2.390        1.019      165.602       38.222        0.053      341.341       15.984      856.862
06/24/2013  20:35:00     -169.923      -22.457        2.732      117.242       98.723       56.165    13745.770     9746.309     3154.455        2.801        1.332      171.401       50.972        0.088      341.320       15.949      856.881
06/24/2013  20:36:00     -173.012      -31.097        2.458      106.220       85.588       52.881    11282.659     7325.244     2796.435        2.615        1.070      175.784       48.828        0.077      341.323       15.955      856.879
06/24/2013  20:37:00     -233.477     -133.835        0.376      169.041      113.574       66.273    28575.015    12899.132     4392.085        5.914        2.293      269.116       78.698        0.086      341.329       15.965      856.883
06/24/2013  20:38:00     -265.596      -98.380        0.462      142.485       96.587       54.851    20301.997     9329.011     3008.618        5.642        1.632      283.231       64.423        0.052      341.334       15.971      856.909
06/24/2013  20:39:00     -199.978     -135.217       -5.109      147.592       96.552       56.836    21783.342     9322.199     3230.331        4.631        1.717      241.402       62.789        0.068      341.330       15.966      856.931
06/24/2013  20:40:00     -209.212     -116.091       -5.563      157.124       92.449       59.365    24688.045     8546.746     3524.216        4.701        1.838      239.263       73.060        0.093      341.336       15.976      856.924
06/24/2013  20:41:00     -309.644      -97.280      -17.375      142.524       81.748       48.253    20313.181     6682.751     2328.364        6.748        1.466      324.565       48.353        0.022      341.312       15.934      856.923
06/24/2013  20:42:00     -125.136      -47.610       13.119       70.665       72.756       44.012     4993.479     5293.434     1937.077        1.516        0.611      133.887       35.585        0.071      341.295       15.907      856.923
06/24/2013  20:43:00     -206.500      -96.382       -9.046      105.291       87.397       44.116    11086.221     7638.156     1946.258        3.634        1.034      227.886       45.658        0.040      341.340       15.983      856.937
06/24/2013  20:44:00     -193.540      -72.920       -3.976      139.686       98.881       61.440    19512.116     9777.420     3774.930        3.792        1.653      206.821       77.282        0.140      341.336       15.974      856.966
06/24/2013  20:45:00     -201.546     -102.600       -3.346      105.095       75.190       57.136    11045.005     5653.478     3264.579        3.556        0.998      226.158       49.140        0.047      341.339       15.980      856.988
06/24/2013  20:46:00     -275.628     -190.413       -7.208      100.349      119.143       64.583    10069.953    14195.015     4170.910        7.035        1.422      335.005       62.865        0.035      341.338       15.978      857.011
06/24/2013  20:47:00     -214.091      -78.305      -20.963       99.164       75.862       56.809     9833.504     5755.007     3227.274        3.561        0.941      227.962       47.631        0.044      341.359       16.014      857.015
06/24/2013  20:48:00     -117.706      -52.924        5.951      122.510      110.976       69.020    15008.716    12315.762     4763.806        2.438        1.604      129.057       69.743        0.292      341.359       16.016      857.011
06/24/2013  20:49:00     -317.433      -94.253      -10.423      135.100      106.522       62.612    18252.039    11346.945     3920.208        7.163        1.676      331.130       61.184        0.034      341.318       15.945      857.008
06/24/2013  20:50:00     -412.924     -125.734       -4.344      162.807      148.886       84.291    26506.133    22166.940     7104.911       12.105        2.789      431.643       86.664        0.040      341.278       15.877      856.971
06/24/2013  20:51:00     -434.388     -128.366      -19.685      171.237      125.986       71.577    29322.214    15872.407     5123.327       12.793        2.516      452.958       67.883        0.022      341.267       15.858      856.948
06/24/2013  20:52:00     -205.803     -107.386       -5.062      159.350      110.350       71.075    25392.354    12177.036     5051.692        4.826        2.131      232.135       78.626        0.115      341.304       15.921      856.934
06/24/2013  20:53:00     -295.075      -49.100      -11.885      128.407      111.123       56.040    16488.424    12348.356     3140.437        6.079        1.599      299.132       56.813        0.036      341.289       15.896      856.934
06/24/2013  20:54:00     -257.209      -49.308        1.465      123.573      118.907       69.765    15270.231    14138.785     4867.224        5.143        1.714      261.893       71.240        0.074      341.307       15.925      856.936
06/24/2013  20:55:00     -237.527      -38.440      -30.510      120.093       76.007       47.427    14422.265     5777.026     2249.360        4.063        1.122      240.618       44.396        0.034      341.331       15.968      856.941
06/24/2013  20:56:00     -150.153      -16.420       13.276      112.823       82.926       52.953    12729.040     6876.726     2803.974        2.270        1.120      151.048       55.133        0.133      341.342       15.986      856.963
06/24/2013  20:57:00     -364.275      -61.444      -31.421      139.357       90.861       65.142    19420.391     8255.807     4243.497        8.468        1.596      369.421       65.652        0.032      341.357       16.011      856.969
06/24/2013  20:58:00     -335.267       32.329      -22.628      183.421      108.584       69.259    33643.155    11790.385     4796.838        8.209        2.512      336.822       77.458        0.053      341.347       15.993      856.982
06/24/2013  20:59:00     -189.969      -26.897       -0.064      149.300       95.710       59.899    22290.474     9160.479     3587.945        3.592        1.752      191.863       74.373        0.150      341.357       16.011      857.008
06/24/2013  21:00:00     -242.401       21.341      -14.176      118.760       90.915       54.187    14103.928     8265.580     2936.259        4.236        1.265      243.339       52.693        0.047      341.339       15.980      857.036
06/24/2013  21:01:00     -279.786        5.847      -11.211      115.306      120.112       63.206    13295.461    14426.849     3995.060        5.507        1.586      279.847       52.526        0.035      341.341       15.984      857.064
06/24/2013  21:02:00     -154.007      -38.040        1.513      144.624       70.892       54.870    20916.074     5025.697     3010.676        2.705        1.448      158.636       66.069        0.173      341.356       16.010      857.079
06/24/2013  21:03:00     -231.153       -8.508      -11.625      170.327       81.242       51.041    29011.311     6600.307     2605.222        4.592        1.911      231.309       68.081        0.087      341.350       16.000      857.111
06/24/2013  21:04:00     -219.703       30.482       11.605      169.036       88.951       62.195    28573.293     7912.248     3868.230        4.484        2.018      221.807       83.908        0.143      341.369       16.031      857.131
06/24/2013  21:05:00     -424.694      -81.448      -29.286      143.244      112.881       71.244    20518.819    12742.109     5075.724       11.309        1.917      432.434       66.851        0.024      341.324       15.956      857.159
06/24/2013  21:06:00     -339.901      -57.951      -15.504       98.316       69.453       54.509     9666.003     4823.759     2971.261        6.829        0.873      344.806       51.883        0.023      341.326       15.958      857.167
06/24/2013  21:07:00     -188.866      -30.450       -6.738      108.099       73.996       47.684    11685.289     5475.402     2273.753        2.803        0.972      191.305       43.562        0.052      341.334       15.973      857.169
06/24/2013  21:08:00      -73.048       34.430      -11.816       66.032       89.556       36.327     4360.260     8020.280     1319.640        1.018        0.685       80.755       37.269        0.213      341.339       15.984      857.177
06/24/2013  21:09:00      -53.390      -16.313        3.605       51.319       33.055       21.348     2633.653     1092.656      455.751        0.366        0.209       55.827       24.344        0.190      341.340       15.985      857.171
06/24/2013  21:10:00      -83.769      -22.570       15.823       69.741       43.861       42.610     4863.766     1923.754     1815.595        0.819        0.430       86.756       36.341        0.175      341.414       16.110      857.193
06/24/2013  21:11:00      -71.536      -14.524       12.394       79.363       64.847       47.749     6298.500     4205.182     2279.920        0.913        0.639       72.995       39.719        0.296      341.362       16.021      857.213
06/24/2013  21:12:00      -82.349      -56.449        9.386       81.021       55.937       35.657     6564.425     3128.926     1271.395        1.051        0.548       99.839       42.948        0.185      341.355       16.009      857.205
06/24/2013  21:13:00     -258.090      -36.855      -19.111       94.129       76.306       48.802     8860.332     5822.627     2381.674        4.270        0.853      260.708       44.684        0.029      341.305       15.921      857.201
06/24/2013  21:14:00     -154.241      -34.657       -5.488       92.456       45.352       33.632     8548.159     2056.828     1131.095        1.838        0.587      158.087       45.723        0.084      341.287       15.893      857.186
06/24/2013  21:15:00      -74.455      -62.459       -3.460       40.004       49.997       25.385     1600.301     2499.699      644.390        0.710        0.237       97.184       25.149        0.067      341.321       15.953      857.206
06/24/2013  21:16:00     -125.699      -83.211        7.945       92.746       68.764       42.104     8601.798     4728.541     1772.712        1.894        0.755      150.746       49.534        0.108      341.321       15.952      857.221
06/24/2013  21:17:00     -133.399      -72.545        0.284       80.682       55.423       30.604     6509.514     3071.675      936.584        1.679        0.526      151.849       26.109        0.030      341.282       15.887      857.220
06/24/2013  21:18:00     -229.442     -122.703       -6.354       66.848       58.090       42.195     4468.694     3374.473     1780.395        3.868        0.481      260.192       39.723        0.023      341.273       15.867      857.214
06/24/2013  21:19:00     -180.501      -53.863      -12.080       65.475       63.034       34.063     4286.937     3973.286     1160.281        2.252        0.471      188.366       22.221        0.014      341.291       15.899      857.225
06/24/2013  21:20:00     -206.597     -153.344       -6.110      118.745      101.850       61.530    14100.409    10373.444     3785.932        4.724        1.413      257.287       64.495        0.063      341.271       15.865      857.258
06/24/2013  21:21:00     -142.849      -80.694        1.310      101.601       73.110       46.403    10322.791     5345.015     2153.263        2.237        0.891      164.065       53.726        0.107      341.274       15.870      857.305
06/24/2013  21:22:00     -121.814      -52.508        0.309       92.389       58.742       33.290     8535.711     3450.626     1108.194        1.534        0.655      132.649       35.065        0.070      341.277       15.877      857.344
06/24/2013  21:23:00     -168.124      -74.076       -7.147      120.901       71.088       44.978    14617.093     5053.464     2023.023        2.774        1.085      183.719       48.700        0.070      341.272       15.869      857.371
06/24/2013  21:24:00     -202.667      -70.217       -2.532      105.427       89.618       62.756    11114.753     8031.410     3938.359        3.454        1.154      214.486       56.657        0.070      341.264       15.852      857.365
06/24/2013  21:25:00     -251.325     -105.938        9.770      148.550      104.419       62.180    22066.961    10903.399     3866.406        5.565        1.842      272.740       65.532        0.058      341.241       15.812      857.355
06/24/2013  21:26:00     -308.426      -59.763      -15.244      120.274      107.222       55.186    14465.790    11496.497     3045.456        6.396        1.450      314.163       58.819        0.035      341.269       15.862      857.355
06/24/2013  21:27:00     -230.875      -85.138       -6.957      125.354      112.873       62.932    15713.542    12740.427     3960.459        4.650        1.621      246.073       59.578        0.059      341.289       15.896      857.361
06/24/2013  21:28:00     -167.391     -104.174        1.038       67.488       55.252       37.718     4554.594     3052.751     1422.654        2.395        0.451      197.160       31.968        0.026      341.283       15.886      857.360
06/24/2013  21:29:00      -86.110      -62.678        8.155       98.753       81.158       35.688     9752.080     6586.692     1273.628        1.451        0.881      106.506       43.526        0.167      341.274       15.873      857.364
06/24/2013  21:30:00     -144.789      -93.442      -14.295       81.475       73.620       32.574     6638.249     5419.880     1061.053        2.151        0.656      172.323       34.135        0.039      341.277       15.878      857.377
06/24/2013  21:31:00     -158.465     -105.343       12.474      109.420      104.735       58.362    11972.761    10969.453     3406.128        3.135        1.317      190.285       64.573        0.115      341.319       15.947      857.377
06/24/2013  21:32:00     -182.271     -114.749       -4.131       95.109       89.387       41.093     9045.703     7990.027     1688.607        3.256        0.936      215.383       34.410        0.026      341.316       15.941      857.376
06/24/2013  21:33:00     -290.727     -161.323      -15.096      129.888       91.583       50.205    16870.935     8387.482     2520.515        6.927        1.389      332.487       44.849        0.018      341.339       15.979      857.376
06/24/2013  21:34:00     -201.009     -125.039      -14.457       84.483       76.803       37.544     7137.361     5898.759     1409.522        3.534        0.722      236.726       35.980        0.023      341.335       15.975      857.379
06/24/2013  21:35:00     -193.907      -61.460        2.045      107.269       62.714       42.682    11506.657     3933.082     1821.784        2.932        0.863      203.414       42.166        0.043      341.324       15.956      857.376
06/24/2013  21:36:00      -70.180      -60.060        0.301       42.493       50.183       27.466     1805.671     2518.324      754.401        0.680        0.254       92.371       25.842        0.078      341.328       15.966      857.384
06/24/2013  21:37:00      -95.553     -115.736       -7.371       67.999       55.613       31.407     4623.878     3092.835      986.418        1.564        0.435      150.084       29.294        0.038      341.341       15.986      857.378
06/24/2013  21:38:00      -32.771      -23.947       12.951       80.916       25.469       27.616     6547.386      648.685      762.671        0.489        0.398       40.588       41.785        1.060      341.323       15.956      857.362
06/24/2013  21:39:00      -52.821      -70.473        6.667       86.083       50.834       34.558     7410.353     2584.110     1194.254        0.949        0.559       88.071       34.210        0.151      341.335       15.977      857.369
06/24/2013  21:40:00     -272.957     -154.335       -0.755      168.448       96.191       70.093    28374.865     9252.763     4912.959        7.042        2.127      313.567       84.436        0.073      341.311       15.934      857.403
06/24/2013  21:41:00     -241.398     -211.873       -1.729      157.630      108.266       67.760    24847.237    11721.615     4591.413        7.216        2.058      321.190       78.126        0.059      341.303       15.920      857.470
06/24/2013  21:42:00     -127.739      -73.950       10.062      126.976       89.616       54.896    16122.884     8030.977     3013.516        2.452        1.358      147.600       59.838        0.164      341.321       15.950      857.540
06/24/2013  21:43:00     -178.762     -105.889       -9.150       67.257       87.152       54.677     4523.449     7595.456     2989.540        2.918        0.755      207.770       40.017        0.037      341.314       15.937      857.565
06/24/2013  21:44:00      -68.665     -118.689       19.278       76.253       77.067       48.688     5814.510     5939.340     2370.562        1.665        0.706      137.120       46.287        0.114      341.315       15.942      857.562
06/24/2013  21:45:00     -192.787     -147.986      -12.339       91.741       66.392       41.822     8416.412     4407.907     1749.120        3.689        0.729      243.037       38.450        0.025      341.321       15.949      857.523
06/24/2013  21:46:00     -148.149      -90.398       13.600      101.639       81.669       50.061    10330.463     6669.855     2506.077        2.490        0.975      173.550       54.107        0.097      341.325       15.958      857.484
06/24/2013  21:47:00      -90.565      -39.787       -6.504       38.962       49.518       29.828     1518.059     2452.025      889.685        0.734        0.243       98.919       29.967        0.092      341.336       15.979      857.444
06/24/2013  21:48:00      -68.855      -43.296       -2.539       49.131       41.369       23.185     2413.834     1711.384      537.530        0.564        0.233       81.336       24.821        0.093      341.345       15.992      857.440
06/24/2013  21:49:00      -96.068      -70.350        2.554       63.237       43.183       32.277     3998.979     1864.784     1041.800        1.054        0.345      119.072       26.444        0.049      341.309       15.931      857.469
06/24/2013  21:50:00      -73.854      -84.202        8.188       62.401       67.680       35.064     3893.921     4580.597     1229.479        1.116        0.485      112.001       32.352        0.083      341.331       15.970      857.489
06/24/2013  21:51:00     -221.707     -198.471      -13.786      112.632       96.061       55.772    12686.030     9227.718     3110.523        5.687        1.251      297.564       59.982        0.041      341.342       15.985      857.511
06/24/2013  21:52:00     -207.221     -122.604       -1.258      105.957       62.797       39.175    11226.923     3943.508     1534.643        3.734        0.835      240.774       27.982        0.014      341.321       15.950      857.538
06/24/2013  21:53:00     -264.188     -167.458        2.640       94.928       85.507       57.723     9011.357     7311.504     3331.924        5.875        0.983      312.790       50.764        0.026      341.288       15.892      857.583
06/24/2013  21:54:00     -241.345     -182.185       -2.176      115.957      101.383       58.404    13445.992    10278.492     3411.051        5.928        1.357      302.389       62.055        0.042      341.318       15.945      857.602
06/24/2013  21:55:00     -192.643     -132.721       -6.230      161.593       70.649       61.401    26112.420     4991.218     3770.108        4.481        1.744      233.936       57.360        0.060      341.307       15.927      857.608
06/24/2013  21:56:00     -132.694      -95.419      -11.384      101.068       91.873       49.946    10214.819     8440.635     2494.586        2.399        1.058      163.440       46.499        0.081      341.295       15.906      857.632
06/24/2013  21:57:00     -111.113     -223.872       -3.496       69.988       71.342       45.628     4898.271     5089.654     2081.941        3.727        0.603      249.930       38.717        0.024      341.316       15.939      857.641
06/24/2013  21:58:00     -143.140     -198.024        5.669       93.288      124.301       55.689     8702.692    15450.757     3101.276        4.349        1.363      244.341       46.820        0.037      341.296       15.908      857.652
06/24/2013  21:59:00     -201.277     -152.834        5.876      112.677       73.278       59.652    12696.121     5369.613     3558.332        4.276        1.081      252.727       66.929        0.070      341.271       15.866      857.658
06/24/2013  22:00:00     -195.842     -122.170       -7.848       78.089       77.726       45.208     6097.898     6041.261     2043.804        3.376        0.709      230.824       37.749        0.027      341.258       15.843      857.684
06/24/2013  22:01:00     -103.427      -63.454        8.423       80.613       73.929       44.536     6498.494     5465.506     1983.424        1.437        0.697      121.341       54.423        0.201      341.225       15.789      857.712
06/24/2013  22:02:00     -148.628     -133.453       -8.988       91.534       55.829       34.837     8378.521     3116.839     1213.584        2.634        0.635      199.750       41.217        0.043      341.248       15.827      857.725
06/24/2013  22:03:00     -190.588     -110.291        1.909       80.652       75.474       51.456     6504.788     5696.376     2647.676        3.167        0.742      220.199       42.396        0.037      341.239       15.812      857.694
06/24/2013  22:04:00     -197.340     -119.550       -6.479       62.989       61.313       37.433     3967.631     3759.305     1401.193        3.120        0.456      230.728       32.003        0.019      341.251       15.831      857.666
06/24/2013  22:05:00     -151.687      -73.067       -7.086       39.339       43.197       29.380     1547.544     1865.978      863.167        1.634        0.214      168.368       19.415        0.013      341.236       15.808      857.635
06/24/2013  22:06:00      -77.905      -62.475       15.306       76.773       48.975       34.011     5894.159     2398.543     1156.780        0.983        0.472       99.862       28.964        0.084      341.221       15.785      857.621
06/24/2013  22:07:00      -74.997      -97.601       -7.080       60.579       57.805       25.968     3669.787     3341.368      674.358        1.144        0.384      123.087       28.427        0.053      341.220       15.781      857.619
06/24/2013  22:08:00       -7.099      -37.301       12.215       39.382       47.634       24.509     1550.910     2269.020      600.681        0.300        0.221       37.970       22.871        0.363      341.253       15.837      857.622
06/24/2013  22:09:00      -51.853      -76.991        6.018       51.848       42.745       31.269     2688.239     1827.136      977.751        0.707        0.275       92.824       26.890        0.084      341.188       15.729      857.658
06/24/2013  22:10:00     -126.099     -128.086       -7.048       87.499       57.539       33.265     7656.130     3310.719     1106.593        2.221        0.604      179.741       25.457        0.020      341.194       15.736      857.692
06/24/2013  22:11:00     -117.139     -225.342       -2.042       72.774       85.278       38.944     5296.120     7272.253     1516.610        3.929        0.704      253.969       30.694        0.015      341.186       15.720      857.711
06/24/2013  22:12:00     -147.036     -157.842        5.142       65.801       64.216       47.982     4329.726     4123.727     2302.248        2.866        0.538      215.717       42.288        0.038      341.149       15.656      857.710
06/24/2013  22:13:00     -136.621      -66.087       -0.356       73.621       45.730       28.689     5420.081     2091.227      823.051        1.568        0.417      151.766       31.108        0.042      341.129       15.626      857.697
06/24/2013  22:14:00     -171.042      -85.125      -12.078       49.715       63.592       30.210     2471.544     4043.947      912.628        2.204        0.371      191.053       12.235        0.004      341.160       15.678      857.677
06/24/2013  22:15:00     -105.296      -68.151        8.920       75.301       44.183       36.255     5670.182     1952.130     1314.408        1.237        0.447      125.426       42.361        0.114      341.136       15.638      857.649
06/24/2013  22:16:00     -109.373     -104.005      -12.644       64.555       52.149       24.572     4167.367     2719.525      603.772        1.521        0.375      150.928       20.787        0.019      341.213       15.769      857.619
06/24/2013  22:17:00      -70.496     -117.320       -2.311       54.240       65.847       33.175     2941.927     4335.784     1100.578        1.356        0.419      136.871       28.150        0.042      341.201       15.749      857.615
06/24/2013  22:18:00     -120.811     -141.930       10.346      103.945       57.112       37.905    10804.627     3261.763     1436.801        2.517        0.775      186.385       45.758        0.060      341.180       15.709      857.608
06/24/2013  22:19:00     -139.104     -216.259      -16.281       72.207       80.108       42.386     5213.788     6417.357     1796.556        3.990        0.671      257.133       30.955        0.014      341.196       15.740      857.605
06/24/2013  22:20:00     -100.442      -98.612        0.695       52.028       72.115       29.629     2706.938     5200.589      877.863        1.430        0.439      140.759       28.250        0.040      341.154       15.669      857.613
06/24/2013  22:21:00      -94.772      -80.110        0.788       61.010       55.884       28.769     3722.271     3123.071      827.670        1.153        0.384      124.094       16.969        0.019      341.116       15.605      857.598
06/24/2013  22:22:00     -126.169      -70.032       -2.680       78.693       64.453       32.801     6192.541     4154.161     1075.895        1.612        0.571      144.302       27.779        0.037      341.115       15.603      857.587
06/24/2013  22:23:00     -145.981      -87.988       -6.602       60.916       41.581       31.993     3710.762     1729.018     1023.545        1.778        0.323      170.448       28.524        0.028      341.098       15.575      857.611
06/24/2013  22:24:00      -52.646      -46.422        4.815       55.014       31.926       29.132     3026.577     1019.300      848.679        0.492        0.245       70.190       26.498        0.143      341.079       15.544      857.631
06/24/2013  22:25:00     -179.587     -131.669        1.698       86.812       64.743       44.501     7536.382     4191.717     1980.379        3.165        0.685      222.684       44.616        0.040      341.112       15.596      857.652
06/24/2013  22:26:00     -173.667     -100.104        4.602       94.237       66.102       31.898     8880.555     4369.437     1017.511        2.723        0.713      200.452       38.963        0.038      341.062       15.512      857.662
06/24/2013  22:27:00     -137.963      -88.167        9.710       96.528       53.769       41.637     9317.724     2891.144     1733.674        2.042        0.697      163.729       45.783        0.078      341.076       15.535      857.673
06/24/2013  22:28:00     -185.908     -135.341       -2.479       81.896       65.300       45.241     6707.024     4264.074     2046.719        3.295        0.651      229.954       45.311        0.039      341.090       15.557      857.683
06/24/2013  22:29:00     -239.762     -106.858       -4.672      122.275       85.474       47.565    14951.192     7305.742     2262.394        4.672        1.226      262.496       56.265        0.046      341.101       15.577      857.692
06/24/2013  22:30:00     -168.492      -75.439        6.653       89.060       72.818       48.011     7931.663     5302.465     2305.098        2.483        0.777      184.609       50.372        0.074      341.102       15.577      857.712
06/24/2013  22:31:00     -193.999     -136.272       -8.572       61.972       62.968       35.435     3840.496     3964.945     1255.646        3.267        0.453      237.077       34.088        0.021      341.120       15.609      857.711
06/24/2013  22:32:00     -109.024      -97.681        1.916       81.945       57.296       37.782     6715.053     3282.775     1427.495        1.643        0.571      146.382       41.488        0.080      341.125       15.620      857.706
06/24/2013  22:33:00     -175.014     -123.946      -11.939       70.703       49.176       28.972     4998.873     2418.303      839.391        2.719        0.413      214.458       31.215        0.021      341.123       15.613      857.704
06/24/2013  22:34:00     -203.674     -129.477        1.437       91.208       75.556       43.687     8318.960     5708.696     1908.536        3.709        0.797      241.344       47.146        0.038      341.115       15.599      857.706
06/24/2013  22:35:00      -70.853      -82.809       19.543       83.206       63.032       31.209     6923.174     3973.029      974.030        1.206        0.594      108.984       27.008        0.061      341.141       15.646      857.697
06/24/2013  22:36:00     -140.840     -131.003       -7.761       63.342       62.668       39.047     4012.155     3927.295     1524.634        2.326        0.473      192.348       26.158        0.018      341.098       15.574      857.670
06/24/2013  22:37:00     -179.775     -110.654        0.702       57.434       50.372       30.933     3298.687     2537.366      956.840        2.568        0.340      211.101       29.873        0.020      341.070       15.525      857.668
06/24/2013  22:38:00     -138.402     -117.578       -7.631       57.315       51.899       33.610     3284.974     2693.461     1129.660        2.007        0.355      181.603       21.645        0.014      341.078       15.539      857.682
06/24/2013  22:39:00     -177.772     -106.592       -5.500       53.223       62.570       33.294     2832.686     3915.047     1108.480        2.542        0.393      207.279       25.344        0.015      341.082       15.546      857.692
06/24/2013  22:40:00     -133.785      -77.031       12.189       64.892       57.569       36.541     4210.954     3314.217     1335.247        1.642        0.443      154.377       37.688        0.060      341.060       15.510      857.705
06/24/2013  22:41:00     -107.372     -135.130       -3.701       62.004       65.527       33.751     3844.473     4293.842     1139.132        1.954        0.464      172.595       32.061        0.035      341.086       15.552      857.712
06/24/2013  22:42:00      -93.422     -120.174        0.687       80.081       57.007       43.818     6413.012     3249.758     1919.999        1.737        0.579      152.215       42.398        0.078      341.082       15.546      857.717
06/24/2013  22:43:00     -185.976     -102.282      -11.045       62.932       62.242       39.358     3960.377     3874.106     1549.087        2.728        0.469      212.247       35.015        0.027      341.046       15.488      857.727
06/24/2013  22:44:00     -123.772     -101.107        9.753       82.893       75.791       51.438     6871.169     5744.351     2645.902        2.045        0.763      159.819       48.545        0.092      341.040       15.474      857.760
06/24/2013  22:45:00     -137.573     -123.384        0.805       78.364       71.352       44.582     6140.929     5091.132     1987.542        2.368        0.661      184.797       46.638        0.064      341.069       15.524      857.787
06/24/2013  22:46:00     -145.087     -114.110       -1.786       72.467       67.725       43.153     5251.504     4586.689     1862.142        2.289        0.585      184.584       41.141        0.050      341.063       15.515      857.800
06/24/2013  22:47:00     -109.101      -91.981       -1.442       66.762       55.786       34.896     4457.200     3112.034     1217.702        1.457        0.439      142.701       37.228        0.068      341.059       15.510      857.791
06/24/2013  22:48:00      -90.919      -77.026       -2.893       62.575       81.346       34.750     3915.682     6617.169     1207.565        1.297        0.587      119.161       44.278        0.138      341.062       15.514      857.774
06/24/2013  22:49:00     -174.993      -89.572       -3.893      126.620       81.756       45.433    16032.544     6684.108     2064.142        3.172        1.239      196.585       59.770        0.092      341.087       15.554      857.764
06/24/2013  22:50:00      -93.983      -43.872       -1.609       82.436       73.684       42.598     6795.640     5429.321     1814.623        1.240        0.702      103.719       34.555        0.111      341.083       15.549      857.757
06/24/2013  22:51:00     -136.312      -45.824       -8.045       96.846       61.744       38.798     9379.190     3812.350     1505.303        1.772        0.735      143.808       46.486        0.104      341.079       15.543      857.740
06/24/2013  22:52:00     -182.193      -55.517       -7.996       93.731       57.336       37.320     8785.528     3287.460     1392.801        2.490        0.673      190.464       28.540        0.022      341.088       15.554      857.734
06/24/2013  22:53:00     -178.565     -132.225       -2.732      138.775       90.495       65.444    19258.624     8189.261     4282.973        4.055        1.587      222.191       70.623        0.101      341.094       15.567      857.735
06/24/2013  22:54:00     -194.263     -120.865       -5.187      109.503       89.767       58.180    11990.885     8058.094     3384.939        3.790        1.172      228.794       58.163        0.065      341.092       15.562      857.730
06/24/2013  22:55:00      -85.178     -102.221       -2.544       62.511       36.841       28.650     3907.603     1357.223      820.798        1.190        0.304      133.058       18.495        0.019      341.109       15.594      857.728
06/24/2013  22:56:00     -129.358      -61.362        4.334       86.220       68.350       40.103     7433.825     4671.707     1608.270        1.711        0.686      143.174       55.077        0.148      341.074       15.533      857.732
06/24/2013  22:57:00     -181.446     -103.594        5.476       71.732       70.510       42.732     5145.424     4971.590     1825.988        2.781        0.597      208.937       44.504        0.045      341.043       15.477      857.739
06/24/2013  22:58:00     -156.850     -105.785       -1.699       83.127       54.113       32.534     6910.101     2928.246     1058.484        2.334        0.545      189.189       37.740        0.040      341.062       15.512      857.757
06/24/2013  22:59:00     -109.536     -123.123       -8.764      130.055       97.452       44.825    16914.239     9496.915     2009.284        2.782        1.421      164.795       53.106        0.104      341.103       15.583      857.761
06/24/2013  23:00:00     -264.087     -128.960       -6.255      100.194       65.676       47.306    10038.792     4313.363     2237.848        5.150        0.830      293.893       38.735        0.017      341.099       15.573      857.757
06/24/2013  23:01:00     -140.668      -64.696       -0.122       81.156       49.141       40.264     6586.298     2414.830     1621.196        1.730        0.531      154.832       37.790        0.060      341.086       15.555      857.748
06/24/2013  23:02:00     -161.440      -44.020        1.113       59.864       45.399       34.147     3583.733     2061.090     1166.042        1.741        0.341      167.334       34.695        0.043      341.088       15.557      857.742
06/24/2013  23:03:00     -139.811      -12.316        0.690       74.653       52.945       38.524     5573.047     2803.120     1484.071        1.478        0.493      140.353       37.967        0.073      341.056       15.504      857.747
06/24/2013  23:04:00     -125.550      -83.768       -9.425       57.308       58.632       30.205     3284.234     3437.666      912.359        1.525        0.382      150.930       32.957        0.048      341.106       15.587      857.750
06/24/2013  23:05:00      -96.357      -55.340       -0.162       52.688       31.423       20.979     2775.975      987.398      440.127        0.827        0.210      111.118       19.349        0.030      341.102       15.582      857.738
06/24/2013  23:06:00     -135.927     -100.703       -3.326       87.568       66.996       42.578     7668.148     4488.494     1812.847        2.130        0.698      169.166       45.758        0.073      341.152       15.665      857.720
06/24/2013  23:07:00     -159.344     -141.056       -1.478       89.655      100.456       55.768     8038.026    10091.325     3110.089        3.326        1.062      212.808       54.165        0.065      341.135       15.636      857.731
06/24/2013  23:08:00     -135.397      -63.523        0.820       96.127       62.761       44.817     9240.314     3938.891     2008.576        1.878        0.759      149.558       43.930        0.086      341.130       15.627      857.758
06/24/2013  23:09:00     -144.701      -69.687       -4.293       50.842       38.286       27.800     2584.896     1465.830      772.836        1.532        0.241      160.607       20.284        0.016      341.116       15.606      857.780
06/24/2013  23:10:00     -105.861      -65.655        2.786       82.025       46.927       35.015     6728.102     2202.131     1226.028        1.284        0.508      124.568       38.385        0.095      341.120       15.611      857.778
06/24/2013  23:11:00      -51.147      -50.395        9.224       63.750       36.429       30.699     4064.086     1327.098      942.417        0.579        0.317       71.803       27.489        0.147      341.099       15.578      857.771
06/24/2013  23:12:00      -77.110      -27.201       -3.327       50.021       30.174       22.227     2502.060      910.470      494.044        0.530        0.195       81.767       24.265        0.088      341.116       15.606      857.767
06/24/2013  23:13:00      -68.995      -50.990       -3.506       49.396       41.046       25.126     2439.942     1684.754      631.308        0.606        0.238       85.792       23.246        0.073      341.113       15.600      857.778
06/24/2013  23:14:00      -83.276      -92.046        6.219       95.744       50.144       45.013     9166.907     2514.427     2026.192        1.457        0.685      124.127       55.058        0.197      341.156       15.673      857.794
06/24/2013  23:15:00     -180.863     -115.901       -3.607       73.043       55.567       33.923     5335.317     3087.668     1150.771        2.786        0.479      214.813       33.620        0.024      341.142       15.645      857.796
06/24/2013  23:16:00     -138.596     -114.492      -16.737       54.617       38.555       27.150     2982.987     1486.504      737.125        1.890        0.260      179.770       24.091        0.018      341.117       15.606      857.791
06/24/2013  23:17:00      -50.916      -55.454       13.882       50.441       56.654       29.304     2544.259     3209.655      858.716        0.624        0.331       75.283       25.576        0.115      341.107       15.590      857.790
06/24/2013  23:18:00     -128.923      -81.271        3.638       65.081       61.636       31.968     4235.504     3799.021     1021.983        1.615        0.453      152.401       33.731        0.049      341.095       15.569      857.789
06/24/2013  23:19:00     -127.771     -106.588       -1.997       74.483       51.544       37.259     5547.695     2656.835     1388.265        1.864        0.480      166.393       34.136        0.042      341.138       15.642      857.804
06/24/2013  23:20:00     -157.584     -142.027      -16.620       68.243       52.436       45.291     4657.163     2749.519     2051.239        2.737        0.473      212.142       41.480        0.038      341.207       15.757      857.830
06/24/2013  23:21:00     -141.286     -107.703        6.282       62.552       57.770       33.625     3912.707     3337.322     1130.633        1.999        0.419      177.656       33.450        0.035      341.194       15.737      857.833
06/24/2013  23:22:00     -106.381      -62.170       -2.379       44.820       31.804       24.764     2008.876     1011.472      613.256        0.941        0.182      123.215       22.979        0.035      341.167       15.693      857.803
06/24/2013  23:23:00     -125.907      -77.180      -13.434       46.325       40.462       26.722     2146.008     1637.212      714.073        1.324        0.225      147.680       23.625        0.026      341.162       15.683      857.792
06/24/2013  23:24:00     -104.753      -87.245        5.456       81.641       69.922       39.521     6665.313     4889.046     1561.890        1.586        0.656      136.327       45.995        0.114      341.198       15.744      857.789
06/24/2013  23:25:00      -94.089      -55.565        4.736       70.445       42.206       32.686     4962.568     1781.327     1068.401        0.989        0.391      109.271       38.835        0.126      341.220       15.781      857.809
06/24/2013  23:26:00      -83.417      -75.763       -2.686       56.011       38.180       25.519     3137.199     1457.685      651.213        0.897        0.262      112.687       31.525        0.078      341.202       15.751      857.843
06/24/2013  23:27:00      -96.785      -74.758       -3.840       81.875       55.579       36.319     6703.580     3089.001     1319.044        1.304        0.556      122.295       34.003        0.077      341.189       15.730      857.860
06/24/2013  23:28:00      -71.634      -61.248       13.613       76.688       52.824       35.098     5881.038     2790.391     1231.855        0.948        0.495       94.248       41.286        0.192      341.198       15.744      857.857
06/24/2013  23:29:00     -128.837       -5.268       -9.289       87.009       38.092       35.339     7570.590     1451.009     1248.875        1.349        0.514      128.945       43.898        0.116      341.202       15.752      857.858
06/24/2013  23:30:00      -89.851       -5.381        0.043       47.436       51.324       24.272     2250.189     2634.185      589.137        0.679        0.274       90.012       20.780        0.053      341.183       15.719      857.859
06/24/2013  23:31:00     -117.322      -46.200       -8.910       46.204       34.818       22.718     2134.813     1212.279      516.103        0.992        0.193      126.091       25.707        0.042      341.200       15.750      857.867
06/24/2013  23:32:00     -100.835      -22.271        8.165       47.080       34.790       24.454     2216.558     1210.362      597.993        0.738        0.201      103.265       28.610        0.077      341.179       15.712      857.897
06/24/2013  23:33:00      -67.621      -58.062        5.723       51.341       36.237       22.093     2635.892     1313.101      488.107        0.621        0.222       89.128       25.863        0.084      341.176       15.708      857.918
06/24/2013  23:34:00      -95.067      -88.966        0.125       50.298       41.089       30.617     2529.878     1688.338      937.401        1.105        0.258      130.202       25.732        0.039      341.165       15.687      857.923
06/24/2013  23:35:00     -122.752      -97.434       -5.836       30.623       30.998       20.193      937.755      960.872      407.766        1.345        0.115      156.721       15.578        0.010      341.150       15.662      857.905
06/24/2013  23:36:00     -111.293      -56.635       -1.778       36.804       28.081       19.067     1354.522      788.548      363.557        0.905        0.125      124.875       16.979        0.018      341.121       15.614      857.890
06/24/2013  23:37:00     -127.122      -88.275        5.696       57.680       48.912       28.600     3326.976     2392.366      817.948        1.526        0.327      154.766       27.102        0.031      341.140       15.646      857.885
06/24/2013  23:38:00     -114.953      -86.121       -3.673       57.691       43.305       30.625     3328.250     1875.306      937.885        1.339        0.307      143.635       29.782        0.043      341.172       15.702      857.870
06/24/2013  23:39:00     -128.763      -70.533        1.551       46.150       51.824       25.280     2129.816     2685.713      639.058        1.350        0.273      146.816       21.729        0.022      341.174       15.704      857.859
06/24/2013  23:40:00     -104.553      -44.401       -0.437       44.964       38.974       23.577     2021.799     1518.953      555.866        0.850        0.205      113.590       21.482        0.036      341.175       15.705      857.845
06/24/2013  23:41:00      -76.885      -77.556      -11.106       44.488       26.026       16.399     1979.203      677.344      268.919        0.749        0.146      109.207       10.922        0.010      341.211       15.768      857.833
06/24/2013  23:42:00     -116.067      -66.775       -4.409       65.628       33.016       28.625     4307.033     1090.027      819.413        1.208        0.311      133.905       12.231        0.008      341.216       15.775      857.832
06/24/2013  23:43:00      -99.939      -87.172       -0.775       46.469       39.375       29.938     2159.353     1550.388      896.295        1.110        0.230      132.615       28.892        0.047      341.218       15.780      857.836
06/24/2013  23:44:00     -117.329     -117.838       -8.418       48.449       46.956       28.575     2347.271     2204.877      816.550        1.654        0.268      166.288       28.009        0.028      341.191       15.731      857.832
06/24/2013  23:45:00      -82.409      -65.703        0.550       38.486       37.658       27.646     1481.146     1418.104      764.291        0.739        0.183      105.395       26.652        0.064      341.162       15.683      857.814
06/24/2013  23:46:00      -99.830      -70.686       -1.111       41.700       27.635       21.501     1738.894      763.679      462.292        0.896        0.148      122.321       21.738        0.032      341.163       15.684      857.799
06/24/2013  23:47:00      -81.288      -71.921       -9.420       40.790       17.721       16.382     1663.784      314.037      268.381        0.706        0.112      108.538        6.953        0.004      341.174       15.701      857.775
06/24/2013  23:48:00      -28.787      -28.194        5.765       41.956       28.794       17.559     1760.311      829.079      308.313        0.228        0.145       40.293       17.997        0.199      341.239       15.813      857.747
06/24/2013  23:49:00      -92.581      -72.737       -2.428       35.709       29.592       20.046     1275.101      875.709      401.856        0.821        0.128      117.736       17.517        0.022      341.203       15.753      857.732
06/24/2013  23:50:00      -86.543      -60.907       -9.420       21.305       30.241       18.465      453.899      914.501      340.966        0.650        0.085      105.827        8.156        0.006      341.233       15.804      857.741
06/24/2013  23:51:00      -91.170      -66.276        1.386       46.525       41.185       26.512     2164.539     1696.217      702.893        0.863        0.228      112.714       28.739        0.065      341.169       15.695      857.748
06/24/2013  23:52:00     -120.726     -109.314       -5.517       37.540       27.461       18.244     1409.259      754.088      332.833        1.452        0.125      162.863       14.916        0.008      341.164       15.687      857.760
06/24/2013  23:53:00     -147.356     -106.505       -5.078       33.247       41.869       19.649     1105.331     1752.986      386.083        1.816        0.162      181.817       15.086        0.007      341.148       15.659      857.768
06/24/2013  23:54:00      -38.959      -67.054        5.665       45.644       36.818       22.622     2083.411     1355.544      511.772        0.500        0.198       77.550       17.439        0.051      341.161       15.682      857.762
06/24/2013  23:55:00      -47.013      -81.975        5.832       35.367       39.394       20.690     1250.837     1551.853      428.078        0.610        0.162       94.500       18.344        0.038      341.171       15.699      857.758
06/24/2013  23:56:00      -94.589      -71.734       -1.181       64.789       43.102       24.545     4197.589     1857.760      602.462        1.037        0.333      118.714       17.411        0.022      341.164       15.686      857.782
06/24/2013  23:57:00     -121.728      -86.685       -4.353       60.804       54.490       28.730     3697.089     2969.211      825.425        1.492        0.375      149.439       30.281        0.041      341.129       15.626      857.810
06/24/2013  23:58:00     -130.983      -79.220       -2.532       52.609       51.353       30.520     2767.738     2637.098      931.448        1.489        0.317      153.076       27.618        0.033      341.101       15.579      857.819
06/24/2013  23:59:00     -125.785     -107.199       -0.157       53.467       52.539       31.257     2858.739     2760.381      977.027        1.695        0.330      165.268       29.963        0.033      341.090       15.561      857.797
